GEFSNGP_500_meanwind_000.txt.gz
Wind_Speed
59 60 62 65 67 70 73 75 76 73 72 67 67 67 65 63 61 58 54 52 52 53 46 43 46 46 48 43 42 44 45 45 45 42 37 32 35 37 38 39 37 36 39 43
58 58 62 67 70 72 74 71 71 70 68 63 63 62 62 63 60 56 52 49 47 48 38 31 35 40 40 35 37 36 34 37 40 35 30 31 32 34 36 36 36 37 40 42
59 61 67 73 70 74 76 70 64 64 64 63 61 60 57 57 53 50 46 43 39 37 30 27 25 28 31 28 27 31 33 35 30 30 32 31 30 31 32 32 33 35 39 41
65 69 72 69 68 71 70 65 56 56 55 53 56 57 55 55 55 51 45 42 36 31 22 15 13 16 21 20 21 24 28 28 29 29 27 27 27 28 30 31 33 34 38 41
73 76 80 68 66 66 67 62 56 54 51 54 60 64 62 59 57 51 45 43 39 31 24 18 15 11 14 16 18 22 25 27 27 26 25 27 29 30 33 37 39 40 41 44
76 79 76 64 60 58 59 57 51 46 50 60 66 72 67 53 49 45 43 41 34 29 26 25 21 18 18 20 23 25 25 25 26 26 25 28 31 34 38 40 41 43 43 45
76 73 65 58 56 52 54 55 41 44 52 60 66 64 58 49 46 42 34 36 31 27 26 25 24 22 19 21 26 29 27 26 26 25 27 31 35 37 39 42 44 44 46 48
73 66 58 56 48 49 50 43 42 45 52 59 62 57 56 51 41 36 27 27 28 23 21 19 23 26 22 19 23 26 28 27 25 26 29 33 37 36 37 41 45 46 48 49
67 58 52 47 45 45 42 38 40 44 48 55 59 53 53 41 24 21 18 20 21 16 17 18 20 24 23 22 25 26 27 27 27 29 32 36 39 39 38 41 43 44 46 47
59 50 48 42 39 36 33 34 39 42 44 50 53 51 43 32 23 19 15 13 12 15 18 20 21 24 29 28 28 31 32 32 33 34 36 39 40 40 41 43 44 44 45 45
51 48 43 36 35 28 26 31 36 37 39 44 42 45 43 34 26 20 14 11 12 16 20 23 25 27 27 30 31 33 34 34 35 37 38 38 40 42 43 43 42 42 42 42
48 45 40 38 34 26 27 32 35 36 37 38 37 37 38 36 30 23 18 17 18 21 23 25 26 27 27 29 32 33 34 35 36 36 38 40 42 42 43 41 41 41 41 41
45 41 37 37 31 28 31 32 30 32 36 37 35 33 31 30 27 24 21 19 18 19 22 25 26 25 26 28 31 33 34 36 37 38 41 43 43 44 44 43 44 44 44 45
40 37 35 33 29 27 27 25 27 32 34 34 33 32 31 29 27 25 22 20 19 20 21 22 22 21 22 23 26 29 33 36 38 40 43 44 44 45 45 46 48 49 49 49
37 37 35 32 30 27 25 27 30 31 30 28 30 30 30 30 30 30 28 27 26 26 26 26 26 26 27 28 29 32 34 37 40 42 43 44 46 46 47 48 50 51 53 55
34 34 33 32 29 26 26 27 29 30 30 29 29 29 30 31 31 31 31 31 31 31 31 31 31 31 31 32 32 33 36 38 40 43 45 47 48 49 51 53 55 56 58 59
32 29 28 27 25 24 25 27 28 28 29 29 30 30 32 32 32 32 31 31 30 30 29 29 30 31 31 32 33 35 37 40 42 45 47 49 52 54 57 58 60 61 63 64
31 29 28 26 24 24 26 26 27 27 26 27 30 33 34 33 32 32 31 30 30 30 30 29 30 31 32 33 35 38 40 43 46 49 52 54 57 59 61 63 65 67 69 71
31 29 28 27 25 25 26 27 26 25 27 31 35 37 36 34 33 33 32 31 31 31 32 32 33 35 38 39 41 43 46 48 51 54 57 60 63 65 68 70 72 74 76 78
27 26 27 27 27 27 27 26 26 28 31 35 38 39 37 36 34 34 33 33 34 34 35 37 38 40 43 45 47 50 52 55 58 61 64 67 69 72 74 76 77 78 78 78
25 24 26 28 27 26 25 26 28 32 35 38 40 40 40 38 36 35 36 37 38 39 41 43 44 46 48 51 55 57 60 63 66 68 71 73 74 74 75 75 75 74 73 72
25 24 25 27 27 26 26 28 32 35 38 40 41 42 41 39 37 37 38 40 42 45 47 50 53 56 58 61 63 65 67 69 71 72 73 72 71 70 70 68 67 65 64 62
23 24 26 26 26 26 27 31 34 36 39 41 42 42 40 39 39 40 43 45 49 52 55 58 61 63 64 65 67 68 70 70 70 69 68 66 64 63 61 58 56 53 50 47
22 24 25 25 26 28 30 33 36 38 40 41 41 41 40 40 42 44 48 52 56 60 62 64 65 66 67 68 68 67 66 64 62 59 56 53 50 47 44 41 39 36 34 32
21 23 24 25 27 30 33 35 37 39 40 41 41 41 41 43 47 51 55 59 63 65 66 66 66 66 65 63 61 58 54 51 47 43 39 36 34 32 31 29 27 27 27 26
21 23 24 26 29 31 34 36 37 39 41 41 41 42 45 49 53 58 62 64 65 65 65 64 61 58 54 51 47 42 39 36 34 32 30 28 28 28 27 26 25 24 23 23
21 24 25 28 30 33 35 36 37 40 41 42 42 45 49 54 59 62 64 64 64 62 58 53 47 43 40 36 34 33 32 31 31 30 30 30 31 31 30 29 28 27 26 25

GEFSNGP_500_meanwind_006.txt.gz
Wind_Speed
47 50 53 55 58 65 70 73 73 74 74 70 66 61 58 53 49 50 55 63 70 70 62 52 45 42 41 39 36 33 32 33 39 47 45 39 37 38 40 41 39 37 39 38
50 53 56 58 65 71 74 76 72 70 65 61 56 55 50 46 48 52 60 67 69 62 48 38 33 30 29 30 30 26 25 27 30 35 39 37 37 39 43 42 37 37 38 38
55 57 61 67 71 74 77 71 64 63 59 56 53 46 43 44 48 54 61 65 62 50 35 27 23 21 22 26 28 25 19 21 26 29 33 35 38 39 37 35 34 35 35 34
59 63 68 71 75 77 75 64 58 55 52 51 46 40 40 43 47 52 58 58 52 41 28 21 16 16 20 24 25 22 16 14 18 20 22 24 26 27 28 30 31 32 32 32
64 68 72 76 77 74 71 60 53 51 48 45 38 34 35 39 44 48 53 51 45 36 25 17 14 16 19 21 22 19 15 12 12 14 15 17 20 22 25 28 31 32 31 30
69 73 76 77 74 69 65 53 51 46 44 42 35 31 32 37 40 43 46 44 38 31 23 18 16 17 18 19 19 18 15 15 15 17 18 21 22 23 25 29 31 32 31 30
72 76 77 73 68 62 55 53 46 42 42 41 36 33 33 36 39 40 40 39 34 29 23 19 18 18 18 18 19 19 18 18 20 22 23 25 26 27 28 30 31 31 31 31
75 76 71 68 59 54 49 45 43 43 42 38 34 32 33 36 37 37 36 35 32 28 24 22 21 21 21 21 21 21 22 22 23 25 27 28 29 30 31 31 32 33 33 32
74 70 66 57 51 48 45 43 42 41 38 35 32 31 33 35 36 36 35 33 32 29 26 25 24 24 24 24 25 25 26 27 28 28 28 30 31 32 33 33 34 35 36 37
68 64 57 50 47 43 41 41 39 38 35 33 31 31 33 33 34 35 35 34 33 31 29 28 26 26 26 27 28 29 30 32 33 35 36 37 37 38 38 38 38 39 41 42
62 57 50 45 44 42 39 38 37 35 34 32 32 32 33 33 34 35 37 37 37 36 34 32 31 30 29 29 29 30 32 33 34 36 39 40 42 43 43 44 44 45 46 48
56 51 46 43 41 40 38 37 36 34 33 32 32 33 34 34 35 36 38 39 39 39 38 37 35 34 33 33 33 33 33 33 34 35 38 40 43 45 47 48 49 51 52 53
49 44 42 39 39 39 38 36 35 34 34 34 34 34 34 34 35 37 40 42 42 41 40 38 36 35 34 34 34 35 35 36 37 38 39 41 43 46 48 50 52 54 55 56
44 41 38 37 39 38 36 35 35 35 34 34 35 35 34 35 37 40 43 43 43 41 40 39 37 36 35 34 34 34 34 35 37 38 40 42 44 46 48 50 52 54 55 56
41 40 39 39 40 37 34 34 35 35 35 35 35 35 36 37 40 42 44 44 43 41 39 38 37 36 36 36 35 36 36 37 38 40 41 43 45 46 48 50 52 55 57 58
39 39 39 39 37 33 32 34 35 35 34 34 35 36 38 40 43 44 45 44 42 40 38 38 38 38 38 39 40 41 42 43 44 46 47 49 50 52 54 56 57 59 61 63
38 39 39 38 35 32 32 33 35 34 34 35 36 38 41 43 45 45 45 44 42 40 39 40 41 43 44 46 48 49 51 53 54 55 57 58 59 60 62 63 65 66 67 69
38 39 39 37 35 32 32 33 35 35 36 37 39 41 43 45 45 45 45 44 44 43 44 45 48 51 54 56 58 60 61 63 64 65 66 67 67 69 70 71 72 73 74 75
37 38 38 36 34 31 31 33 35 36 38 40 42 43 44 45 45 45 45 46 47 49 51 54 57 60 62 64 66 66 67 67 67 67 67 67 68 69 69 70 71 72 73 73
37 37 36 35 32 31 31 33 36 38 40 42 44 45 45 46 47 47 48 49 52 56 59 62 64 65 66 65 64 63 61 59 58 57 56 55 54 54 54 55 55 56 57 58
36 35 34 32 30 29 31 34 37 39 42 44 46 46 47 47 48 49 52 55 59 63 65 65 64 61 58 55 51 48 46 44 42 40 39 37 36 36 35 35 36 36 37 37
33 31 30 29 28 30 33 36 38 41 44 46 46 47 47 48 51 54 58 61 62 62 59 55 51 46 43 41 39 38 37 35 34 32 31 29 29 28 28 28 29 28 28 28
27 26 25 26 28 31 34 37 40 43 45 45 46 47 48 50 54 58 60 59 54 48 43 40 38 38 38 38 37 37 36 35 34 34 33 33 33 33 32 32 32 31 29 27
22 21 23 26 29 32 36 39 42 44 44 44 45 47 50 54 57 57 52 44 37 36 37 39 40 41 41 41 40 40 39 38 38 37 37 38 39 39 39 39 38 37 35 32
20 22 24 28 31 35 38 41 41 41 42 43 45 48 52 54 50 41 33 33 36 40 42 43 44 44 45 45 45 45 44 44 43 42 42 42 42 43 42 42 41 40 39 36
22 25 28 31 34 36 38 39 39 39 41 43 47 50 51 43 31 29 33 37 39 41 42 43 44 45 47 47 48 48 48 48 47 47 46 46 45 45 44 43 42 40 39 36
25 28 30 33 34 36 36 36 37 39 42 45 48 46 35 25 28 32 35 36 38 39 41 43 45 47 48 50 51 52 52 52 51 51 50 49 48 46 45 43 41 38 36 33

GEFSNGP_500_meanwind_012.txt.gz
Wind_Speed
45 49 52 56 60 64 69 73 77 78 76 72 68 64 61 57 54 49 44 41 38 39 40 41 43 42 41 38 36 33 32 31 32 31 27 24 21 21 23 25 29 32 35 36
50 53 56 62 65 69 74 77 77 76 71 65 61 57 54 52 49 45 41 37 36 37 38 39 41 40 39 36 34 32 30 30 30 30 26 22 18 16 16 19 22 26 29 32
54 57 62 65 72 73 76 74 73 71 64 60 57 53 51 50 46 42 39 37 36 36 37 38 39 39 38 36 33 31 29 28 28 27 25 20 16 14 14 15 17 20 23 26
58 63 64 72 75 75 75 68 69 64 58 54 51 49 48 46 43 39 37 35 34 35 36 38 39 39 39 37 35 33 30 28 26 25 23 19 15 14 16 16 18 19 21 23
62 66 68 75 76 74 73 64 63 58 52 48 46 44 42 41 39 37 35 34 34 35 37 38 39 40 39 38 37 35 32 30 28 25 22 19 16 14 15 17 19 20 21 23
64 68 72 77 76 73 69 58 55 50 47 46 46 45 42 40 38 35 34 34 34 35 37 38 40 41 40 40 39 37 34 32 30 27 24 21 18 17 16 17 19 21 22 23
67 71 73 78 75 70 61 58 52 47 46 45 45 45 44 42 39 37 36 35 35 36 38 39 41 42 41 41 39 38 36 34 32 30 28 25 23 21 21 22 23 24 25 26
70 72 73 76 71 64 56 50 47 46 46 45 43 43 42 40 38 37 36 36 37 38 40 42 43 44 43 42 40 38 36 35 34 33 31 30 28 27 27 27 28 30 31 31
70 72 74 71 64 57 50 48 46 45 44 43 42 42 40 39 38 38 38 39 40 41 43 45 46 46 45 43 41 39 37 36 35 34 34 33 32 32 31 32 33 34 36 37
71 74 72 69 62 53 48 46 46 45 43 41 41 41 40 39 39 39 40 42 43 45 46 47 47 47 46 45 43 41 38 37 36 35 35 35 35 36 36 36 37 39 40 42
71 75 73 67 59 50 45 44 45 44 42 41 41 41 40 40 40 41 43 45 47 48 48 48 48 48 48 47 45 43 42 40 39 37 37 36 37 38 39 40 41 42 44 45
72 75 73 65 55 48 44 43 43 42 41 40 40 41 41 42 43 45 47 49 50 51 51 51 51 51 51 50 48 47 45 44 44 43 42 41 41 41 42 43 44 45 46 48
73 75 69 61 52 47 44 43 42 41 40 39 40 41 43 45 46 49 51 53 54 54 54 54 54 54 54 54 53 52 52 51 51 50 50 49 49 48 48 49 49 49 50 50
75 74 66 58 50 45 42 41 40 41 40 40 41 43 45 48 50 53 55 56 56 56 57 57 58 58 58 58 58 58 58 58 58 58 58 58 58 58 58 58 58 58 58 58
73 69 62 54 48 44 41 39 39 39 40 41 42 45 48 51 53 56 56 57 57 58 59 59 60 59 59 58 57 56 56 55 54 54 55 55 56 58 60 61 63 64 65 66
69 62 55 49 45 41 38 37 37 38 40 42 45 48 51 54 56 56 57 58 59 59 58 57 55 53 51 49 47 46 45 44 43 42 41 41 42 43 45 47 51 55 59 63
62 54 47 42 39 36 34 33 35 37 41 44 48 51 54 55 55 56 58 59 57 54 51 47 45 43 42 42 41 41 40 39 38 37 36 35 34 33 32 32 33 35 39 43
54 46 40 37 34 32 32 33 36 39 43 47 51 53 53 54 55 57 55 51 46 42 40 40 40 41 42 43 43 43 43 42 41 40 38 37 36 34 33 31 30 29 29 29
45 38 34 33 32 33 34 36 40 43 47 50 51 51 52 54 55 51 44 38 35 35 37 39 41 42 44 45 46 46 46 46 45 44 42 40 39 37 35 33 32 31 30 28
37 32 31 32 33 36 38 41 43 46 48 49 49 50 52 52 46 37 32 31 32 34 36 39 41 44 46 47 48 48 49 48 48 46 45 43 42 40 38 36 35 33 32 31
33 30 30 33 36 39 41 43 45 47 47 47 48 51 50 41 32 28 28 30 32 35 38 41 43 45 47 49 50 51 51 51 50 49 48 47 45 43 41 39 37 35 33 32
31 30 32 35 38 41 43 45 46 45 45 47 49 48 38 28 24 25 27 30 33 36 39 42 45 47 49 51 53 54 54 54 54 54 52 51 49 47 44 40 37 34 32 30
30 31 33 37 39 42 44 45 45 45 46 48 47 36 25 22 22 25 27 30 33 37 40 43 45 48 51 54 56 58 59 60 60 59 56 54 52 50 46 42 37 33 29 26
31 32 35 37 40 42 43 44 44 44 46 46 37 24 18 19 22 24 27 30 34 37 40 43 46 49 52 55 58 61 64 64 63 61 58 55 52 50 47 44 39 33 27 23
31 33 35 38 40 42 43 43 43 44 44 38 26 17 15 18 21 24 27 30 33 36 39 43 47 50 53 56 60 63 65 65 64 63 60 57 54 51 48 45 41 35 28 22
32 33 36 38 39 41 41 41 42 42 39 29 18 13 14 17 20 23 27 30 33 36 39 43 46 49 53 57 60 62 64 65 64 64 63 62 58 55 51 48 44 40 34 28
32 33 35 37 38 39 39 40 40 38 31 20 12 11 13 16 19 23 26 29 32 35 39 42 45 49 52 56 59 61 63 64 66 66 66 66 64 60 56 51 48 45 41 38

GEFSNGP_500_meanwind_018.txt.gz
Wind_Speed
42 47 51 53 57 62 66 71 73 73 71 67 62 58 54 50 49 48 46 45 43 40 38 36 33 32 32 32 34 35 36 37 37 37 36 35 33 30 28 25 22 20 20 22
44 49 54 56 61 65 69 72 74 73 69 65 57 52 49 47 47 46 44 43 41 39 38 36 35 34 34 35 36 38 39 39 39 38 36 34 32 30 27 25 22 20 19 21
47 52 57 59 63 66 70 74 76 73 69 61 52 48 47 45 44 43 42 41 41 39 39 38 37 37 38 38 40 41 41 41 41 39 37 35 32 30 28 25 22 20 20 21
51 55 58 62 64 68 72 75 74 69 62 54 48 47 45 43 42 41 41 41 41 41 41 41 41 42 42 43 43 44 43 43 42 40 38 35 33 31 29 26 24 22 22 22
53 56 59 62 66 70 74 74 72 65 56 48 44 43 43 42 41 42 42 43 43 44 44 45 46 47 47 47 47 47 46 45 43 41 39 36 33 31 30 29 27 26 25 24
55 58 60 64 66 71 75 72 68 59 52 47 43 41 41 42 42 43 44 45 47 47 48 50 51 51 51 51 51 50 49 47 45 43 40 37 34 32 31 31 30 29 28 28
56 58 60 64 67 72 72 72 66 57 49 45 42 42 43 44 45 46 47 49 50 52 53 54 55 55 55 54 54 53 51 50 48 46 44 41 37 34 33 32 32 33 32 32
58 59 61 64 67 71 72 69 59 51 46 43 42 42 44 46 47 49 51 52 54 56 57 57 57 57 56 55 54 53 52 50 49 47 46 44 42 40 37 35 34 35 36 36
57 58 61 64 68 72 70 61 52 46 42 41 42 44 46 48 50 52 54 56 57 58 58 58 57 56 54 52 51 49 48 47 46 45 44 44 43 43 42 41 40 38 38 39
57 59 62 65 68 70 64 55 47 42 41 42 44 46 48 51 54 55 57 57 58 58 56 54 51 50 48 48 47 47 46 46 44 42 41 40 40 40 41 43 44 44 43 43
57 59 62 64 67 68 60 50 44 42 43 44 47 49 52 54 56 57 57 58 58 54 50 47 46 46 46 47 47 48 48 47 46 44 41 39 37 35 35 37 41 44 46 47
56 59 61 64 67 65 57 48 43 42 44 47 50 53 55 56 57 57 58 56 50 45 43 43 44 45 47 48 49 49 49 48 47 45 43 40 37 35 34 32 33 36 40 45
56 58 60 64 67 63 54 46 43 43 46 50 52 55 56 56 57 58 54 46 41 40 41 43 45 46 48 49 51 51 51 50 49 46 44 41 38 35 32 31 30 30 31 35
56 58 60 64 65 60 51 45 43 45 48 51 54 55 56 57 57 52 43 38 38 40 42 44 46 47 49 51 53 54 54 53 51 48 45 42 39 36 33 30 29 28 28 28
56 58 60 64 63 57 50 46 45 47 50 52 54 55 56 56 50 41 36 36 38 41 43 45 47 49 51 53 55 56 56 54 52 50 47 44 41 38 35 32 30 29 28 28
55 57 61 64 62 55 49 45 46 48 51 53 54 55 55 51 41 34 34 36 38 40 43 45 48 51 53 56 57 57 57 56 54 52 49 47 44 41 37 34 32 31 30 29
54 57 61 62 59 52 47 45 46 48 51 53 54 54 51 42 34 33 34 36 37 40 43 47 50 53 56 58 59 59 58 56 54 53 51 49 46 42 39 36 34 32 31 30
54 57 60 61 57 50 46 45 46 48 51 52 53 51 44 34 31 31 33 35 38 42 45 48 51 54 57 59 61 61 59 58 58 57 55 52 48 44 40 36 34 32 31 30
54 57 59 58 54 49 45 44 46 48 50 51 51 45 36 29 28 29 31 34 37 41 44 48 51 54 58 60 61 62 62 62 61 59 57 53 49 45 41 37 34 31 28 27
53 56 58 57 52 47 44 44 46 48 50 50 47 39 30 26 26 28 31 34 37 41 45 48 51 54 57 59 62 64 63 62 61 60 58 56 52 48 44 39 34 29 24 21
53 56 57 54 50 45 43 43 45 47 48 47 42 33 26 24 25 27 31 34 38 42 45 48 51 53 56 59 63 63 61 60 61 60 61 61 59 55 50 43 36 29 23 18
53 55 55 52 47 43 41 42 45 46 47 44 37 28 23 22 23 27 31 35 38 41 44 47 49 52 55 58 61 62 58 57 58 59 62 64 64 63 58 52 44 35 27 20
52 54 53 49 44 40 40 41 43 45 44 40 32 24 21 21 23 27 31 35 38 41 44 46 47 50 53 56 59 60 58 56 55 57 59 62 64 65 64 61 55 48 39 32
51 52 49 45 40 38 38 40 42 43 42 37 27 20 18 20 23 27 31 35 38 41 42 44 44 47 51 53 56 58 58 56 54 55 56 58 60 61 62 63 62 60 55 50
50 50 46 41 37 36 37 39 41 41 39 32 23 17 17 19 23 27 31 34 37 39 40 41 42 44 48 51 53 56 58 58 54 53 54 56 57 58 58 58 59 59 58 57
48 47 42 37 34 34 36 38 39 39 36 28 20 15 15 18 23 27 31 33 36 38 38 38 38 40 44 48 50 53 56 58 57 54 53 54 55 56 56 56 56 55 54 53
46 43 38 33 32 32 34 36 38 37 33 25 17 13 14 17 22 26 29 32 34 36 37 36 36 37 41 45 48 50 53 55 57 57 56 55 54 53 54 54 54 54 53 52

GEFSNGP_500_meanwind_024.txt.gz
Wind_Speed
36 40 43 48 52 55 58 61 64 67 70 72 71 66 59 53 50 49 51 52 53 54 55 56 57 57 57 57 57 56 55 54 53 52 51 50 49 48 47 45 43 41 39 37
36 41 45 49 54 58 60 63 65 68 71 73 70 63 57 52 50 51 53 55 56 57 58 59 59 59 58 57 55 54 53 52 51 50 49 48 47 47 47 46 44 42 40 37
40 44 48 53 58 60 62 64 67 69 72 73 68 61 56 52 52 54 56 58 59 60 61 61 61 58 55 52 49 49 48 48 47 47 46 46 44 43 43 43 43 42 40 38
43 48 52 56 59 62 64 65 68 70 73 72 67 60 54 53 54 56 58 60 61 62 61 59 55 50 48 48 48 48 48 48 49 49 48 46 44 42 41 40 40 40 40 39
45 50 54 58 61 64 65 66 69 71 72 70 65 58 54 54 55 58 60 61 62 60 57 51 47 46 47 48 49 50 51 51 51 51 50 48 45 42 39 37 36 37 38 39
46 51 56 60 63 65 67 67 70 71 72 69 65 58 56 56 58 60 61 61 59 54 48 45 45 46 47 49 51 53 53 54 54 53 51 49 46 42 39 36 34 33 34 37
48 52 57 61 65 66 66 68 69 71 71 68 62 57 57 58 60 61 61 58 53 47 45 44 45 47 49 52 54 56 57 57 56 54 52 50 47 43 39 36 33 31 30 32
50 54 59 62 65 66 66 68 69 71 70 65 59 56 57 59 60 61 58 52 47 43 43 44 46 49 52 54 56 58 59 58 56 55 53 51 48 44 41 37 33 31 29 29
49 54 59 63 65 66 66 67 69 71 68 63 57 55 57 59 60 58 54 47 43 42 43 46 49 52 54 56 58 59 59 58 56 55 54 52 49 46 42 39 35 31 29 27
50 55 60 63 65 65 66 67 69 69 66 60 55 55 57 59 58 55 49 43 41 41 44 48 51 54 56 58 59 60 59 57 57 56 54 53 51 49 45 40 36 32 29 27
51 56 60 63 64 65 65 67 69 68 64 58 55 56 57 58 56 50 44 41 40 43 46 50 52 55 57 59 60 60 58 57 57 57 58 57 55 52 48 43 38 33 28 26
51 56 60 62 63 64 64 66 68 66 61 57 55 56 57 56 52 46 41 39 41 45 48 51 53 55 57 60 61 59 57 57 58 58 60 61 60 55 49 44 38 34 29 26
52 56 59 62 62 63 64 65 66 64 59 55 55 56 56 54 49 43 39 40 43 46 49 52 54 55 57 60 61 59 57 58 58 58 61 63 64 60 51 41 36 32 28 25
52 56 59 61 61 62 63 64 65 62 58 55 54 55 55 51 45 40 38 40 44 47 50 52 53 55 58 61 61 58 57 58 58 58 61 65 67 65 57 44 33 27 25 22
52 55 58 60 60 60 62 64 64 60 56 54 54 54 53 48 42 38 38 41 44 47 49 51 52 55 58 61 60 57 56 57 59 60 62 66 69 68 60 47 34 25 20 18
52 55 57 58 59 59 61 63 63 59 55 53 53 53 51 46 40 37 38 41 44 46 48 49 51 55 58 60 61 57 55 58 60 62 62 64 68 70 63 51 37 26 19 15
52 54 56 57 58 59 61 62 61 57 53 51 52 52 48 43 38 37 40 43 45 46 47 48 51 54 57 60 61 58 55 57 60 61 61 63 67 71 68 57 45 34 24 17
52 54 56 56 57 58 60 61 58 55 51 50 51 50 46 40 37 37 39 42 44 46 47 47 49 52 56 59 59 58 57 58 58 59 61 62 65 68 70 65 56 45 34 25
52 54 55 56 56 57 59 59 56 53 50 49 49 48 44 38 35 36 38 40 42 43 43 44 46 51 54 56 58 59 59 58 57 57 59 61 63 64 66 67 64 58 49 39
52 54 55 55 55 56 57 57 54 50 48 47 48 46 41 37 34 35 38 40 41 42 41 41 44 48 51 54 57 59 59 58 57 56 57 59 61 62 63 63 64 63 60 55
52 53 54 54 54 55 56 55 52 49 46 46 46 44 39 35 33 34 37 39 40 40 40 40 42 46 49 53 55 57 57 58 58 57 57 58 59 59 60 60 60 60 60 59
52 53 53 52 53 54 54 53 50 47 45 45 45 42 38 33 32 33 35 37 38 38 38 38 40 43 47 50 52 54 55 56 57 58 58 58 58 58 58 58 57 57 56 55
51 52 51 51 51 52 53 51 48 45 43 43 43 40 36 32 31 32 33 35 37 37 37 37 38 41 43 46 49 51 53 54 56 57 58 58 59 59 58 57 56 55 54 53
50 50 50 50 50 51 50 49 46 43 41 42 42 39 35 31 29 29 31 33 35 36 37 36 37 38 40 43 45 47 49 51 53 55 57 58 58 59 59 59 57 56 54 53
49 49 48 48 49 49 49 47 44 41 40 40 40 38 34 29 27 28 29 31 33 35 36 36 36 36 38 39 41 44 46 48 50 52 53 55 56 57 58 58 58 58 57 55
48 47 47 47 47 47 47 45 42 39 39 39 39 37 32 28 26 25 27 29 31 33 34 35 35 35 36 37 38 40 42 45 47 49 50 52 53 54 55 55 56 57 57 56
47 46 45 45 45 45 45 43 39 38 37 38 37 35 32 27 24 24 25 26 28 30 32 33 34 35 35 36 37 38 40 42 44 45 47 49 50 51 52 53 54 54 55 55

GEFSNGP_500_meanwind_030.txt.gz
Wind_Speed
28 31 34 38 42 46 50 55 61 65 69 70 72 73 73 72 68 65 64 64 65 62 57 52 49 48 48 49 50 51 51 51 51 50 48 46 45 43 42 40 38 37 36 36
29 32 34 38 43 47 52 57 63 67 70 72 72 73 72 70 67 64 64 64 62 58 52 49 48 49 50 51 52 53 52 52 51 49 48 46 45 43 42 40 38 36 34 33
33 35 37 40 46 49 52 58 64 68 71 73 72 72 71 68 65 63 63 63 59 53 49 48 49 50 52 53 53 54 54 52 50 48 48 47 46 45 43 42 39 37 34 32
35 38 40 43 46 50 54 60 65 69 72 72 72 71 69 65 63 63 63 60 55 49 48 49 50 52 53 54 55 55 54 52 49 49 49 49 48 48 47 46 43 40 36 32
37 39 41 43 47 51 56 61 66 70 71 71 71 70 67 64 63 62 61 57 51 48 48 49 51 52 54 55 56 56 54 51 50 50 51 51 51 51 50 49 48 44 39 33
37 39 42 45 48 52 57 63 66 69 70 70 70 68 66 64 62 61 59 53 49 48 49 50 51 52 54 56 56 56 53 51 52 53 54 55 55 55 54 54 52 47 40 33
37 39 41 45 50 54 58 63 67 69 69 69 69 67 64 62 61 60 56 51 48 48 49 50 51 53 55 56 57 56 53 52 53 55 57 58 59 59 60 58 52 44 37 30
39 42 45 47 49 53 58 63 66 67 68 68 67 65 62 61 60 58 53 49 48 49 50 50 51 53 55 56 56 55 54 53 54 57 59 61 62 64 64 58 47 37 28 24
38 40 42 45 49 53 58 63 65 67 67 67 66 64 61 60 59 56 51 47 47 48 49 50 51 53 55 56 56 55 54 54 55 58 60 62 65 68 66 55 40 29 21 16
37 40 42 45 49 54 58 62 65 66 66 66 64 62 59 58 57 54 49 47 47 48 48 49 51 53 55 56 56 56 55 55 55 57 60 63 67 70 67 54 39 27 17 11
37 39 41 45 49 54 58 62 64 65 65 64 63 60 58 57 56 52 48 46 46 47 47 48 50 52 54 55 56 57 56 55 56 58 61 64 69 72 70 58 43 31 18 9
38 39 41 45 49 53 58 62 63 64 63 63 61 59 57 56 54 50 47 45 46 46 46 46 49 51 53 55 57 57 57 56 57 59 61 64 67 70 71 63 49 35 23 13
37 39 41 45 49 53 58 61 62 62 62 61 60 57 56 55 53 49 46 44 45 45 45 45 47 50 52 54 56 57 58 58 58 59 61 63 65 68 69 67 57 44 31 20
37 39 42 46 49 53 57 60 61 61 61 59 58 56 55 54 51 47 44 43 44 44 44 44 46 48 50 53 55 56 57 59 60 61 61 62 63 65 67 68 63 54 42 30
37 39 42 46 49 53 57 59 60 59 59 58 57 55 54 53 50 46 43 42 43 43 43 43 44 46 48 50 53 55 56 58 60 62 62 62 62 63 64 65 65 61 53 44
38 40 43 46 49 52 56 59 59 58 58 57 55 54 53 51 49 45 42 40 41 41 41 42 43 45 46 48 51 53 55 57 59 61 61 61 61 61 61 61 61 61 59 53
39 41 43 46 48 52 56 58 57 57 56 55 54 53 51 50 48 45 42 40 39 40 41 41 42 43 44 46 48 51 53 55 57 58 59 60 61 61 61 60 59 58 58 57
39 41 43 45 48 52 55 56 56 55 55 54 53 51 50 49 47 44 41 39 39 40 40 41 41 41 42 44 46 49 51 53 54 56 57 58 59 60 60 60 59 57 55 54
39 41 43 45 48 51 54 55 55 54 53 52 51 50 49 48 46 42 39 38 37 38 39 39 39 40 41 42 43 46 49 51 52 53 55 56 57 58 59 60 59 58 56 54
40 41 43 45 48 51 53 54 53 52 52 51 50 49 48 47 45 42 38 36 35 35 36 37 38 39 39 40 41 43 46 48 50 51 52 54 55 56 57 58 59 58 57 55
40 41 43 45 47 50 52 53 52 51 50 50 49 47 46 46 44 41 38 35 34 34 35 36 36 37 38 39 40 41 43 45 47 49 50 51 53 54 55 56 57 58 57 57
40 41 43 45 47 50 51 52 50 49 49 48 47 46 45 44 43 40 37 34 32 32 33 34 35 36 37 38 39 40 41 43 44 46 48 49 50 51 53 54 55 55 56 56
39 41 43 45 47 49 51 50 49 48 48 47 46 45 43 43 42 40 36 33 31 30 31 32 33 34 36 37 38 39 39 40 42 43 45 47 48 49 50 51 52 53 54 55
40 41 43 44 46 49 50 49 47 47 46 45 45 44 42 41 41 39 36 32 29 29 29 30 31 32 34 36 37 38 38 39 40 41 43 45 46 47 48 49 50 51 52 53
40 41 43 44 46 48 48 48 46 45 45 44 43 42 40 39 39 38 36 32 29 27 27 27 28 30 32 34 36 37 38 39 40 41 41 42 44 45 46 46 47 48 49 50
40 41 42 44 46 47 47 47 45 44 43 43 42 41 39 38 37 37 35 32 29 26 25 25 26 27 29 31 33 35 37 39 40 41 41 41 42 43 43 44 45 46 46 47
39 40 42 44 46 47 47 46 44 42 42 42 41 40 38 37 36 35 34 32 29 26 24 23 23 24 26 28 30 32 34 36 38 40 41 42 42 42 42 42 43 44 44 45

GEFSNGP_500_meanwind_036.txt.gz
Wind_Speed
29 30 31 33 36 38 40 43 46 50 55 60 65 68 71 73 73 74 73 72 71 68 63 60 59 59 59 59 60 59 57 55 54 53 52 53 54 55 56 56 56 55 53 49
28 28 29 31 34 37 39 43 47 51 56 61 66 69 71 72 73 73 72 71 69 65 61 59 58 58 58 59 59 58 57 56 55 54 54 55 57 58 59 60 60 59 54 48
32 30 30 32 36 39 40 43 48 53 57 62 67 69 71 72 72 72 71 70 67 62 59 58 58 58 58 59 59 59 58 57 56 56 57 58 60 62 63 64 63 56 47 39
36 35 33 36 38 40 42 44 50 54 58 63 67 70 71 71 71 71 70 68 64 60 57 57 57 57 58 58 59 59 58 58 58 59 60 61 63 65 66 66 61 50 39 29
41 39 37 37 40 43 46 46 51 55 59 63 67 70 70 70 70 69 68 66 62 58 56 56 56 57 57 57 58 58 58 59 61 61 62 63 65 67 68 66 58 46 35 23
42 41 40 40 42 44 47 49 53 56 60 64 67 69 69 69 68 67 67 65 60 56 54 55 55 56 56 56 57 58 59 61 63 64 64 65 67 69 69 66 57 45 34 22
45 41 39 42 43 46 47 51 54 57 60 64 67 68 68 67 67 66 66 63 59 55 53 54 55 55 55 55 57 58 60 61 63 64 65 66 68 69 70 66 58 46 34 23
50 48 45 46 46 46 48 50 53 57 60 63 66 67 66 66 65 65 64 62 58 54 53 53 54 54 54 55 56 58 59 61 63 64 65 66 67 69 69 66 59 48 37 26
50 47 47 47 46 47 48 50 53 56 60 64 66 66 65 65 64 64 63 61 56 52 51 52 53 53 54 54 55 57 59 60 62 63 65 66 67 68 68 67 61 53 42 31
51 49 47 47 47 47 48 50 53 56 60 63 65 65 64 64 64 63 62 59 55 51 50 51 52 52 53 53 54 56 58 59 60 62 64 66 66 67 68 67 64 58 49 37
51 50 49 47 47 48 49 51 53 56 59 62 64 64 63 63 63 62 61 58 54 50 49 49 50 51 52 52 53 54 56 58 59 61 63 65 66 67 67 67 67 62 55 47
52 51 50 49 49 49 50 51 53 56 59 62 63 63 62 62 62 61 60 57 53 49 48 48 49 50 51 51 52 53 54 56 57 59 61 62 64 66 66 66 65 63 60 54
53 53 51 51 50 49 50 51 53 55 58 61 63 62 62 61 61 60 59 56 52 48 46 46 47 49 50 50 50 51 53 54 56 57 58 60 62 63 64 64 64 62 61 58
54 54 52 51 50 50 50 51 53 55 58 60 62 61 61 60 59 59 57 55 51 47 45 45 46 47 49 49 49 49 51 52 54 55 57 58 60 61 62 63 63 62 60 58
55 55 53 52 51 50 50 51 52 54 57 60 61 60 60 59 58 57 56 54 51 47 44 43 44 45 47 48 48 48 48 50 51 53 54 56 58 59 60 61 61 61 60 59
55 55 54 53 51 50 50 51 52 54 56 59 60 60 59 57 56 56 55 53 50 46 43 42 42 43 45 46 47 47 47 48 49 50 52 53 55 56 57 59 59 60 60 59
56 55 54 52 51 50 50 50 51 53 56 58 59 59 58 56 55 54 53 51 49 45 42 40 39 40 42 44 45 46 46 46 47 48 50 51 52 54 55 56 57 58 59 59
57 56 54 53 51 50 49 50 51 53 55 57 59 58 57 55 54 53 52 51 48 45 41 39 38 38 40 42 43 45 45 45 46 47 48 49 50 51 53 54 55 56 57 57
58 56 54 52 51 49 49 49 50 52 54 57 58 57 56 54 53 52 51 50 48 44 41 38 37 36 37 39 41 42 44 45 45 46 47 48 49 49 50 52 53 54 55 55
58 56 54 52 50 48 48 48 49 51 54 56 57 57 55 53 52 51 50 49 47 44 41 38 36 35 35 36 38 40 42 43 44 45 46 47 48 49 50 50 51 52 52 53
58 55 53 51 49 47 47 48 49 51 53 56 57 56 54 52 51 50 49 47 46 43 41 38 35 33 33 34 35 37 39 41 42 43 45 46 47 48 49 50 50 51 51 51
58 54 52 50 48 46 46 47 49 51 53 55 56 56 54 52 50 48 47 46 44 42 40 38 35 33 32 32 33 35 37 39 40 42 43 44 46 47 48 49 49 50 50 50
57 54 52 49 47 46 46 47 49 50 53 55 56 55 54 51 49 47 45 45 43 41 40 38 36 33 31 31 31 33 34 36 38 40 41 43 45 46 47 48 48 49 49 49
56 53 51 48 46 46 46 47 48 50 52 55 56 55 53 51 48 46 44 43 42 41 39 38 36 34 32 31 30 31 33 34 35 37 39 41 43 44 45 46 47 47 47 48
56 52 49 47 46 46 46 47 48 50 52 54 55 55 53 50 47 45 44 42 41 40 39 38 37 35 33 32 30 30 31 32 33 35 36 38 41 42 44 44 45 46 46 46
54 51 48 47 46 45 46 47 48 50 52 54 54 54 52 49 46 44 43 42 41 39 38 37 36 35 34 33 31 30 30 31 32 34 35 36 38 40 41 42 43 44 44 44
53 49 47 46 45 45 45 46 48 50 52 53 54 54 52 49 46 44 42 41 40 39 38 36 36 35 35 34 33 32 31 31 31 32 33 34 36 37 39 40 41 42 42 42

GEFSNGP_500_meanwind_042.txt.gz
Wind_Speed
35 35 34 33 33 33 34 35 37 39 42 45 49 52 56 60 64 66 67 67 68 69 69 66 63 61 61 61 60 60 60 60 61 62 63 64 64 65 66 67 63 54 42 32
34 35 34 34 34 35 35 37 38 40 43 46 49 53 57 61 64 65 66 66 67 68 68 65 61 60 60 59 59 59 60 60 61 62 63 65 65 66 68 67 62 50 39 29
36 37 37 38 39 38 37 38 40 42 44 46 49 53 57 61 63 64 65 65 66 67 66 63 60 59 58 58 58 58 59 60 61 63 64 65 66 67 68 66 61 50 39 27
38 41 41 42 42 42 41 40 42 43 45 47 50 54 57 61 63 63 64 64 65 66 65 62 59 58 58 58 57 57 58 59 60 62 64 65 66 67 68 67 62 53 41 30
40 43 44 46 47 47 46 43 44 44 46 48 51 54 57 60 62 63 63 63 64 64 63 60 58 56 56 57 56 56 56 58 59 61 63 64 66 67 68 67 64 58 47 36
39 43 46 49 49 50 49 46 47 46 47 49 50 53 56 60 61 62 62 63 63 63 62 59 57 55 55 55 55 55 55 57 59 60 62 64 65 67 68 68 65 61 53 42
40 43 46 50 52 52 49 49 48 47 48 48 50 52 56 59 61 61 62 62 62 62 61 58 55 54 53 54 54 54 55 56 57 59 60 62 64 66 67 68 66 62 57 49
41 45 48 50 52 52 51 50 48 47 47 48 50 52 56 59 60 61 61 61 62 61 60 57 55 53 52 52 53 53 54 55 56 57 58 60 62 63 65 65 65 63 59 53
38 42 46 49 52 53 53 51 49 48 48 48 49 52 55 58 60 61 61 61 61 60 59 57 54 52 51 51 52 52 53 53 54 55 56 58 59 61 62 62 63 63 61 57
37 41 46 49 52 54 54 52 50 49 48 48 50 52 55 58 60 60 60 60 60 59 58 56 53 51 49 49 50 51 51 52 53 54 55 56 57 58 59 60 60 61 61 59
37 41 45 49 52 55 55 53 51 50 49 49 50 52 55 57 59 60 60 59 59 58 57 55 53 50 48 48 48 49 50 50 51 53 54 55 56 57 58 59 59 60 60 59
38 42 45 49 52 55 56 54 52 51 49 49 50 52 55 57 59 59 59 59 58 57 56 55 52 50 48 46 46 47 48 49 50 51 52 53 55 56 57 57 58 58 59 58
38 42 45 49 52 55 57 55 53 51 50 49 50 52 54 56 58 59 59 58 57 57 56 54 52 49 47 45 45 46 46 47 49 50 51 52 53 54 54 55 56 56 56 56
39 42 45 48 51 54 56 56 54 52 50 49 50 52 53 56 58 58 58 58 57 56 55 53 51 49 47 45 44 44 45 46 47 48 50 51 52 52 53 53 53 54 54 54
40 43 45 48 51 54 56 57 54 52 51 49 50 51 53 55 57 58 58 57 56 55 54 53 51 49 47 45 43 43 43 44 45 47 48 50 51 51 52 52 52 52 52 52
41 43 45 48 50 53 56 57 55 53 51 50 50 51 53 55 56 57 57 57 56 54 53 52 50 48 47 45 43 42 42 42 43 45 46 48 49 50 50 51 51 50 50 50
42 43 45 47 50 52 55 56 55 53 52 50 50 51 52 54 56 57 57 56 55 54 52 51 49 48 46 45 43 42 41 41 42 43 44 46 47 48 49 49 49 49 49 49
43 44 45 47 49 52 54 56 56 54 52 51 50 50 52 53 55 56 56 56 54 53 51 50 49 47 46 44 43 42 41 41 41 42 43 44 45 47 48 48 48 48 48 48
43 44 45 47 49 51 53 55 56 54 52 51 50 50 51 53 54 55 56 55 54 52 51 49 48 47 46 44 43 42 42 41 41 41 41 42 44 45 45 46 46 46 46 46
44 44 45 47 48 50 53 55 56 54 53 51 50 50 50 52 54 55 55 54 53 52 50 49 48 46 45 44 43 42 42 42 41 41 41 41 42 43 43 44 44 44 44 45
45 45 46 47 48 50 52 54 55 54 53 51 49 49 50 51 53 54 54 53 53 51 50 48 47 46 45 43 43 42 41 41 42 42 41 41 41 41 42 42 42 42 42 43
46 46 46 47 48 50 51 54 55 54 53 51 49 48 49 50 52 53 54 53 52 51 49 47 46 46 44 43 42 41 41 41 42 42 42 41 41 40 40 40 40 40 40 41
47 47 47 47 48 49 51 53 55 54 52 51 49 48 48 49 51 52 52 52 51 50 48 47 46 45 44 43 42 41 40 41 41 42 42 42 41 40 39 39 39 38 38 39
48 47 47 47 48 49 50 52 54 54 52 50 48 47 47 49 50 51 52 52 51 50 47 46 45 44 44 43 42 41 40 40 41 42 42 42 41 40 39 38 37 36 36 37
49 48 48 48 48 49 50 52 53 53 51 49 47 46 47 48 49 50 51 51 50 49 47 45 44 44 44 43 42 41 40 39 40 40 42 42 41 40 38 37 35 34 34 34
50 49 49 48 48 49 50 51 53 53 51 48 46 46 46 47 48 49 50 50 50 49 47 45 43 43 43 43 42 40 39 38 38 39 40 41 41 40 38 36 34 33 32 33
51 50 49 49 49 49 50 51 53 53 50 47 46 45 45 47 48 48 49 50 49 48 46 44 43 42 42 42 42 40 39 38 37 38 39 40 40 39 38 35 33 31 31 31

GEFSNGP_500_meanwind_048.txt.gz
Wind_Speed
20 23 26 30 34 37 40 42 44 44 43 44 45 46 48 49 52 54 57 60 62 64 65 67 68 68 68 66 64 63 62 61 61 62 63 63 64 66 68 69 69 66 60 53
19 22 25 28 33 37 40 44 45 46 46 46 47 47 48 50 52 54 57 60 62 64 65 66 67 67 66 65 63 61 60 60 60 61 62 63 64 65 66 68 68 66 62 55
18 22 25 29 33 36 40 45 47 48 49 49 48 49 49 51 52 55 58 60 62 63 64 65 66 66 65 63 62 60 60 59 59 60 61 62 63 64 65 66 67 66 64 58
19 22 27 30 33 37 40 44 48 49 51 51 51 51 51 52 53 55 58 60 61 63 64 64 65 65 64 63 61 60 59 58 58 58 60 61 62 63 64 65 66 65 64 61
21 24 26 30 34 38 41 43 48 51 53 53 53 53 52 53 54 56 58 60 61 62 63 63 64 64 63 62 60 59 58 57 57 57 58 60 61 62 63 63 64 64 64 62
23 26 29 32 35 39 42 45 49 52 54 55 56 55 54 54 55 56 58 59 61 62 63 63 63 63 62 61 60 58 57 56 56 56 57 59 60 61 62 63 63 64 63 62
24 27 29 32 35 39 42 45 49 52 54 56 57 56 55 55 55 56 58 59 61 62 62 62 62 62 62 60 59 57 56 55 55 55 56 57 59 60 60 61 62 62 62 61
26 28 30 33 36 39 41 44 48 51 54 56 58 58 57 56 56 56 57 59 60 61 61 62 62 61 61 60 58 57 55 55 54 54 55 56 57 58 58 59 59 59 59 59
27 29 31 33 35 38 41 44 47 50 53 56 58 59 59 57 57 57 58 59 60 61 61 61 61 61 60 59 58 56 55 54 54 54 54 54 55 55 56 56 57 57 57 57
28 29 31 33 36 39 41 44 47 50 53 56 58 60 60 59 58 58 58 58 59 60 60 60 60 60 60 59 57 55 53 53 53 53 53 54 54 54 54 54 54 55 55 55
30 31 31 32 36 39 41 44 46 49 52 55 58 60 60 60 59 58 58 58 59 59 60 59 59 59 59 58 57 55 53 52 52 52 52 53 53 53 53 53 54 54 54 54
34 33 34 35 38 40 42 44 47 49 52 54 57 60 61 61 60 59 58 58 58 59 59 59 59 58 58 57 56 54 52 51 51 51 51 51 51 52 53 52 52 52 52 52
37 37 36 37 40 42 43 45 47 49 51 53 56 59 60 61 60 59 58 58 58 58 58 58 58 57 57 56 56 54 52 50 49 50 50 51 50 50 49 50 50 50 50 50
40 41 40 40 42 43 45 46 47 49 51 53 55 58 60 61 60 59 58 57 57 57 57 58 57 57 56 56 55 54 52 50 49 49 49 50 50 50 49 48 47 47 47 47
41 43 43 43 44 45 46 47 47 49 50 52 54 57 59 60 60 59 58 57 56 56 56 57 56 56 55 55 54 53 52 50 48 48 48 49 50 50 49 48 47 45 44 44
42 43 44 45 46 47 47 48 48 48 50 52 53 56 58 59 60 60 58 57 55 55 55 55 55 55 54 54 53 53 51 49 48 47 47 48 49 49 48 47 46 45 43 43
43 44 45 47 48 48 48 48 48 49 50 51 53 54 56 58 59 59 58 56 55 54 54 54 54 54 53 53 52 52 51 50 48 46 46 47 47 48 48 47 45 44 43 43
45 46 47 49 50 50 49 49 49 49 49 51 52 53 55 57 58 59 58 56 54 53 53 53 53 53 52 52 52 51 51 49 48 46 45 46 46 47 47 46 45 43 42 41
49 50 50 50 50 51 51 50 49 49 49 50 51 52 54 56 57 58 58 56 53 51 51 52 52 52 51 51 50 51 50 49 47 46 45 45 45 46 46 46 44 42 41 40
54 53 53 51 51 51 51 51 50 50 49 49 50 51 53 54 56 57 57 56 52 50 50 50 50 50 50 50 49 49 49 49 47 45 44 44 44 45 45 45 43 41 40 39
59 57 55 53 52 52 52 52 51 50 49 49 50 51 52 53 55 56 57 55 52 50 49 49 49 49 49 48 48 48 48 48 47 45 44 43 43 43 44 44 43 41 39 38
61 59 58 56 55 55 54 53 52 51 50 49 49 50 51 52 53 55 56 54 51 49 47 47 47 47 48 47 47 47 47 47 46 45 43 42 42 42 42 43 42 40 39 38
60 58 56 56 56 57 57 55 53 52 50 49 49 49 50 51 52 53 54 54 50 47 46 46 46 46 46 46 46 45 46 46 46 44 43 41 40 40 41 42 41 40 38 37
58 55 53 53 55 56 56 55 54 52 50 50 49 49 49 50 51 52 53 53 49 46 44 44 44 44 45 45 44 44 45 45 45 44 42 40 39 38 39 40 40 39 38 37
56 54 53 52 53 54 55 55 54 51 50 49 49 48 48 48 49 51 52 52 48 45 43 43 43 43 43 44 43 43 43 44 44 43 42 40 38 37 37 38 39 38 37 37
54 53 52 52 53 54 54 53 52 51 50 49 48 48 47 47 48 49 50 50 47 44 42 41 42 42 42 42 42 42 42 43 43 43 41 39 37 36 36 36 37 37 36 36
54 52 52 52 52 52 52 53 52 51 50 49 48 47 47 47 47 48 49 48 46 43 41 40 40 40 41 41 41 41 41 41 42 42 41 39 36 35 35 35 35 35 35 35

GEFSNGP_500_meanwind_054.txt.gz
Wind_Speed
12 13 14 17 20 22 25 28 30 32 35 39 42 45 48 52 54 57 58 60 60 61 61 63 64 65 67 68 69 70 70 69 67 64 62 61 60 59 59 59 60 60 60 60
15 15 16 18 20 23 26 28 30 33 35 39 42 46 49 51 55 58 60 61 62 63 63 63 64 65 67 68 69 69 69 68 66 64 62 60 59 58 58 58 58 59 59 59
17 18 19 19 21 23 26 29 32 34 36 39 42 45 49 52 55 58 61 63 64 64 64 64 65 66 67 68 68 68 68 67 66 63 61 60 59 58 57 57 57 57 57 58
21 21 21 22 24 25 27 30 32 34 37 39 42 45 49 52 55 58 61 63 65 66 66 66 65 66 66 67 68 68 68 67 65 63 61 59 58 57 57 56 56 55 56 56
25 25 25 25 26 28 29 29 32 35 38 40 43 45 48 52 55 58 61 63 65 66 67 67 66 66 66 67 68 68 67 67 65 62 60 58 57 57 56 55 55 54 54 55
29 29 29 28 30 31 32 32 34 37 39 42 45 47 49 52 55 57 60 63 65 67 67 67 67 66 66 67 67 67 67 67 65 62 59 57 57 56 56 55 54 54 53 53
32 32 31 32 33 34 34 35 37 38 41 43 45 47 50 52 55 57 60 62 64 66 67 68 68 67 66 66 66 67 67 66 65 62 59 57 56 56 55 55 54 53 52 52
35 34 33 34 35 36 36 36 38 39 41 44 46 47 49 51 54 56 59 61 64 66 67 68 68 67 66 66 66 66 66 66 65 63 59 56 55 55 55 54 53 51 50 50
37 35 35 36 37 38 39 39 40 41 42 45 46 48 49 51 54 56 58 60 63 64 66 67 68 67 66 66 66 66 66 65 65 64 60 56 54 54 53 53 52 50 49 48
39 35 36 38 39 40 41 41 42 43 44 46 47 48 49 51 53 55 57 59 61 63 65 66 67 67 66 65 65 65 65 64 64 63 61 58 54 53 52 51 50 49 48 47
40 36 37 38 39 41 42 43 44 44 45 47 49 49 49 50 52 54 56 58 60 61 63 65 67 67 66 65 65 64 64 64 63 62 61 58 55 52 51 50 50 49 48 47
41 38 41 40 39 41 43 44 45 46 47 48 49 50 50 50 52 53 55 57 58 60 62 63 66 66 66 64 64 63 63 63 62 62 60 57 54 53 51 50 50 49 48 47
43 42 44 44 43 43 45 45 46 47 48 49 50 51 50 50 52 53 55 56 57 58 60 62 64 65 65 64 63 62 62 62 61 61 59 57 53 51 50 50 49 48 47 46
46 47 48 47 47 47 47 48 48 49 50 51 52 52 52 51 52 53 55 55 56 57 58 60 62 64 64 63 62 61 61 61 61 60 59 57 54 51 48 47 47 47 46 45
52 53 54 53 51 50 51 52 53 52 52 53 53 53 53 53 54 54 55 55 55 55 56 57 60 62 63 62 61 60 60 60 60 59 58 57 54 51 48 46 46 46 45 44
60 61 60 59 57 55 55 55 56 55 55 55 55 55 55 55 55 55 55 55 54 54 54 55 58 60 61 61 60 58 58 58 58 58 57 56 54 51 48 46 45 44 44 42
66 65 65 64 62 59 58 58 58 58 58 57 57 57 57 57 57 56 55 54 54 53 53 53 55 58 59 59 58 57 56 57 57 57 56 56 54 51 48 45 44 43 43 42
68 68 67 66 64 62 61 60 59 58 58 59 59 58 58 58 58 57 55 54 53 52 51 52 53 55 57 57 56 55 55 55 55 55 55 55 54 51 48 45 43 42 43 42
67 68 67 66 65 64 63 62 61 60 60 59 59 59 58 58 58 57 55 53 51 50 50 50 51 53 55 55 54 53 53 53 53 53 54 54 53 51 48 45 42 41 41 40
65 66 66 66 64 63 62 61 61 60 59 59 58 58 58 58 58 57 55 52 50 49 49 48 49 51 52 53 52 51 50 51 51 52 52 52 52 51 48 45 42 40 40 39
64 65 65 65 64 64 62 61 60 59 58 58 57 57 57 57 57 56 53 51 50 48 47 46 47 48 50 51 50 49 48 48 49 50 50 51 51 50 48 45 42 40 38 38
66 66 65 63 62 61 61 60 58 57 57 56 56 56 56 56 55 54 52 50 49 47 45 45 45 46 48 48 48 47 46 46 47 48 48 49 49 49 48 45 42 39 38 37
66 66 66 65 64 61 59 58 57 55 55 55 55 55 55 55 54 53 51 50 48 45 44 43 43 44 45 46 46 44 44 44 45 46 46 47 48 48 47 45 42 39 37 36
68 68 67 65 64 62 59 57 55 54 52 52 53 54 55 55 53 52 51 49 46 44 42 41 41 42 43 44 43 42 41 42 43 43 44 45 46 47 46 45 42 39 37 35
68 67 66 64 62 60 59 56 54 52 51 50 50 52 54 53 52 50 49 46 44 42 40 40 39 40 41 42 41 40 39 39 40 41 42 43 44 45 45 44 42 39 36 34
67 66 64 63 62 60 57 54 53 52 51 50 49 50 51 52 51 50 47 45 43 40 39 38 38 38 39 39 39 38 37 37 38 39 40 42 43 44 44 44 41 38 36 34
67 65 63 61 60 58 56 53 53 52 52 51 50 50 50 51 50 49 46 44 41 39 38 37 36 36 37 37 37 36 35 35 36 37 39 40 41 42 43 43 41 38 35 33

GEFSNGP_500_meanwind_060.txt.gz
Wind_Speed
28 28 29 28 27 28 28 29 30 30 31 32 35 37 40 43 44 46 48 50 52 54 57 60 63 66 68 70 72 74 75 74 74 75 75 74 73 71 68 65 63 62 61 61
30 31 32 31 28 30 31 31 33 34 34 35 37 39 41 44 45 47 49 51 53 55 57 60 63 65 68 70 71 74 75 75 74 75 75 74 73 71 68 65 62 61 61 60
33 33 35 33 30 32 34 34 36 37 37 39 40 41 43 45 47 49 51 53 54 56 57 60 62 65 67 69 71 73 75 75 74 74 74 73 72 71 68 65 62 60 60 59
37 36 38 33 33 34 36 36 38 39 40 42 43 43 44 47 49 50 52 54 55 56 57 59 62 64 67 69 71 72 74 75 74 74 74 73 72 70 68 65 61 59 59 58
39 40 40 35 35 37 39 39 40 42 43 44 45 45 44 47 49 51 52 54 55 56 57 59 61 64 66 69 70 71 73 74 74 73 73 72 71 70 68 65 61 59 58 57
41 43 43 38 38 39 41 42 42 44 45 46 48 49 48 49 51 52 53 54 56 57 58 59 61 63 65 68 69 71 72 73 73 73 73 72 70 69 67 65 61 58 57 57
42 45 45 40 40 42 43 44 45 47 48 49 50 51 52 52 53 53 54 55 56 57 58 59 61 63 65 67 69 70 71 71 72 72 72 71 70 69 67 64 61 58 56 56
43 46 44 41 42 42 44 46 47 49 51 52 53 53 54 54 55 55 55 56 57 58 58 59 61 62 64 66 68 69 69 70 71 71 70 70 69 68 66 64 61 58 56 54
47 46 43 42 42 43 46 48 50 52 53 54 55 55 55 55 56 56 56 57 58 59 59 60 61 62 64 66 68 68 68 68 70 70 69 69 68 67 65 64 61 58 55 53
51 47 44 43 44 45 48 51 53 54 55 56 57 56 56 57 57 57 57 58 59 60 60 60 62 63 64 66 67 67 67 67 68 68 67 67 67 66 65 63 61 58 54 52
54 50 48 47 48 49 51 54 55 57 58 58 59 59 59 60 59 59 59 60 60 61 61 61 62 63 64 65 66 66 66 66 67 67 66 66 65 65 64 63 61 58 55 51
58 54 56 54 52 53 55 56 58 59 60 60 61 62 62 62 62 62 62 62 62 62 62 62 63 63 64 64 65 65 64 64 64 65 64 64 64 63 63 62 61 58 54 51
60 59 60 60 58 58 59 60 60 61 62 62 62 63 64 64 64 65 64 64 64 64 64 64 64 64 64 64 64 63 63 62 62 63 62 61 61 61 61 60 60 58 54 51
61 62 63 62 62 60 61 61 61 61 61 62 62 63 64 65 65 65 66 65 65 65 64 64 63 64 64 63 63 62 61 60 60 60 60 59 59 59 59 58 57 56 54 50
61 63 64 64 62 61 61 61 61 60 59 60 60 60 61 62 62 63 63 64 64 64 64 63 62 63 63 62 61 59 59 58 57 58 57 57 57 57 57 56 56 55 53 51
60 61 62 62 61 60 59 60 60 58 58 57 57 57 57 58 58 59 59 60 60 61 61 62 61 60 60 60 59 57 56 55 54 55 55 54 54 55 55 54 54 54 52 50
55 56 57 57 57 55 55 56 56 56 56 56 56 55 55 55 55 56 57 57 58 58 59 59 58 58 58 57 56 55 53 53 52 52 52 52 52 52 52 52 52 52 51 49
49 50 50 50 50 50 51 52 53 54 54 54 54 54 54 53 53 53 53 53 54 54 55 56 57 56 56 55 54 52 51 50 49 49 49 49 49 50 50 50 50 50 50 48
46 48 50 51 53 54 54 54 54 55 55 56 56 56 56 56 55 54 53 52 52 53 54 55 56 55 54 54 52 50 48 47 47 46 47 47 47 47 47 47 48 48 48 47
47 48 49 51 52 53 53 54 55 55 56 56 56 56 55 56 56 54 54 53 52 51 52 53 53 53 53 52 51 48 46 45 44 44 45 44 44 45 45 45 45 46 47 46
47 48 49 49 50 52 53 55 56 57 58 59 59 58 57 56 56 55 53 53 51 51 51 51 51 51 51 50 48 46 44 42 42 42 42 42 42 42 42 42 43 44 45 45
48 49 50 52 54 56 57 59 61 62 63 63 63 62 61 60 58 57 55 54 52 52 51 51 50 49 49 48 45 43 41 40 39 39 40 39 39 39 40 40 41 42 43 43
50 52 54 56 58 60 61 63 64 65 66 66 65 65 64 63 61 59 56 54 53 52 51 50 49 48 47 45 43 40 39 38 37 37 37 37 36 37 37 38 39 40 41 42
52 54 56 58 61 62 64 65 67 67 67 67 66 65 65 64 61 59 57 54 52 51 50 49 47 46 45 43 40 38 37 35 34 34 35 34 34 35 35 36 37 38 40 40
53 55 57 59 62 64 65 66 65 65 65 64 64 64 63 62 59 56 54 53 51 48 47 46 45 44 42 40 37 36 34 33 32 32 32 32 32 32 33 34 35 36 38 39
54 56 58 61 63 65 65 65 65 65 65 64 63 62 60 57 55 53 50 49 48 46 45 45 43 42 40 37 35 34 32 31 30 30 30 30 30 30 31 32 33 35 36 37
56 58 60 62 63 64 64 65 65 66 65 64 62 60 57 54 51 49 46 44 44 43 42 42 40 39 36 34 32 31 30 28 27 28 28 27 27 28 29 30 31 33 34 36

GEFSNGP_500_meanwind_066.txt.gz
Wind_Speed
32 33 37 37 35 37 41 42 46 44 43 39 39 44 46 46 47 48 48 49 50 52 53 54 55 55 56 57 58 59 60 62 63 66 68 69 71 72 73 72 72 70 69 68
34 35 39 39 35 37 40 43 45 46 45 41 44 47 47 47 49 49 50 51 52 53 54 55 56 57 57 57 58 59 61 63 64 66 68 69 70 71 72 71 71 70 68 67
39 38 41 39 36 37 40 42 44 46 45 44 46 47 48 48 50 50 51 52 53 54 56 57 57 57 58 58 59 60 62 64 65 66 68 69 69 70 70 70 69 68 67 66
44 43 44 40 38 39 41 41 42 44 45 46 47 48 48 50 51 51 52 54 55 56 57 58 58 58 59 59 60 62 63 64 66 67 68 68 69 69 69 69 68 67 66 64
47 48 48 42 40 42 43 42 42 45 46 47 49 50 49 50 52 53 55 56 57 59 59 59 60 60 60 61 62 63 64 65 66 67 68 68 68 68 68 67 67 66 65 63
48 50 51 46 44 45 46 45 45 47 48 49 51 53 52 52 54 55 56 58 59 60 61 61 62 62 63 63 63 64 66 66 67 67 68 68 67 66 66 65 65 65 64 62
49 52 53 48 48 47 47 47 49 50 52 53 54 56 57 57 58 58 59 60 62 62 63 63 64 65 65 65 65 67 67 68 68 68 68 67 66 65 64 63 63 63 62 61
52 55 53 50 50 49 50 51 52 53 55 57 58 59 60 60 61 62 62 63 64 64 64 64 65 66 66 66 67 67 67 67 67 67 66 65 64 63 61 61 61 61 61 60
57 57 54 54 53 53 55 57 57 58 59 60 61 62 63 64 64 64 65 65 65 66 65 65 65 65 65 65 65 65 65 64 64 64 64 63 62 60 59 58 58 59 59 58
59 58 56 56 56 57 59 62 62 62 62 63 64 64 65 65 65 65 65 65 65 64 63 63 63 62 62 62 62 62 62 61 62 62 62 60 59 57 56 56 56 56 57 56
61 58 59 58 58 59 61 62 63 63 63 64 65 65 65 65 64 64 63 62 62 62 61 61 61 60 60 60 59 59 59 59 59 59 58 56 55 55 54 54 54 54 54 54
60 58 62 62 60 61 61 61 61 61 61 62 63 64 63 62 62 61 61 60 60 59 59 58 58 58 58 58 57 57 57 57 57 56 54 53 52 52 52 52 52 52 53 52
58 58 61 61 61 61 61 60 59 59 59 59 59 60 60 59 59 58 58 57 57 56 55 55 55 55 55 56 56 56 55 55 55 54 52 50 49 49 50 50 50 50 51 50
52 54 56 57 58 58 58 58 58 57 57 56 56 55 55 55 54 54 54 54 53 53 53 53 54 54 55 55 55 55 54 54 53 52 51 49 48 47 47 47 48 48 49 49
46 48 49 50 51 52 53 53 53 53 52 52 52 52 51 51 51 51 52 53 53 53 54 55 55 55 55 55 55 55 54 53 52 51 49 47 46 45 45 45 45 46 46 46
42 42 43 44 45 46 47 48 49 49 50 50 50 51 51 52 52 52 53 54 54 54 55 55 56 56 55 54 53 53 53 52 50 49 47 45 43 43 43 43 43 44 44 44
42 42 43 43 43 44 45 46 48 48 49 49 50 50 51 52 53 53 54 54 55 56 56 56 56 55 54 54 53 51 51 50 49 47 45 44 42 41 41 41 41 42 42 42
44 44 45 45 46 47 47 48 48 49 50 51 52 52 52 53 54 54 55 56 57 57 58 58 57 56 55 54 52 51 50 49 47 46 44 42 40 39 39 39 39 40 40 40
44 45 46 48 49 50 51 52 53 53 53 54 53 53 54 55 56 57 57 57 57 57 58 58 58 57 56 54 52 51 50 49 47 45 43 40 38 37 36 36 37 37 38 38
43 44 46 48 50 51 52 52 52 53 54 55 55 55 56 57 58 58 58 59 60 60 59 58 57 56 55 54 53 52 50 48 47 44 42 39 36 35 34 34 35 35 36 35
45 46 47 48 49 49 50 51 52 52 53 54 55 56 57 58 58 60 61 61 61 62 62 60 59 57 56 55 53 51 48 46 44 42 39 36 34 33 32 32 32 33 34 33
46 47 48 48 48 48 49 50 51 52 53 54 56 58 59 59 60 62 64 64 64 64 63 62 60 59 57 54 51 48 45 42 40 39 37 34 31 30 30 30 30 31 31 31
47 48 48 48 49 49 49 51 52 53 54 55 57 59 60 61 63 64 64 64 64 63 62 60 58 56 53 50 46 43 40 38 37 35 33 30 28 27 28 28 28 28 29 29
48 49 49 50 50 51 51 51 52 54 55 57 59 60 62 63 63 63 62 61 60 59 57 55 52 50 46 42 39 36 35 34 32 30 28 27 25 25 25 25 25 26 26 27
49 50 50 51 51 51 51 52 52 54 56 57 57 59 60 60 59 57 56 55 54 53 50 48 46 42 38 33 31 29 28 28 27 25 24 23 22 22 22 23 23 23 24 25
50 50 50 50 51 51 51 52 53 54 55 55 55 56 55 55 54 53 52 52 50 47 45 41 38 35 31 28 26 24 23 23 22 21 20 19 20 20 20 20 20 21 21 23
49 49 49 49 50 51 51 52 53 53 54 53 53 52 51 50 49 49 49 48 45 42 39 34 31 28 25 23 21 20 20 19 18 18 18 17 18 18 17 18 18 18 19 21

GEFSNGP_500_meanwind_072.txt.gz
Wind_Speed
38 38 41 41 39 39 41 42 46 47 48 47 48 49 49 49 50 51 52 54 55 55 56 57 58 58 60 61 62 63 64 65 65 66 67 68 69 69 69 68 69 69 69 67
43 41 44 44 40 40 42 44 45 47 48 48 51 52 52 53 54 54 55 56 56 57 58 58 59 60 61 62 64 65 65 66 67 69 70 70 69 69 68 68 67 66 65 64
48 46 48 46 42 43 44 44 45 48 50 52 53 54 54 55 56 57 57 58 58 59 60 60 61 62 63 65 66 67 67 68 68 69 69 68 67 66 65 64 63 62 63 62
52 52 53 49 46 46 48 48 49 51 53 55 56 56 56 57 58 58 59 59 60 61 62 62 63 64 65 66 66 67 67 67 67 67 66 64 62 62 62 61 60 59 59 59
54 56 58 52 50 51 53 52 52 55 57 58 59 58 57 58 59 60 61 62 62 63 63 63 64 65 66 66 66 66 65 65 65 64 62 61 60 61 59 58 57 56 56 56
55 57 59 55 54 55 56 57 56 58 60 61 62 63 61 60 61 62 63 63 64 64 64 64 64 65 64 64 64 63 63 62 60 59 58 58 58 57 56 55 54 54 54 55
55 57 57 55 56 57 57 58 59 61 62 64 65 66 66 65 65 64 65 65 64 64 63 63 63 62 61 61 60 60 59 58 57 57 56 56 54 53 53 53 52 52 52 53
53 55 55 54 55 56 58 60 62 63 64 65 66 66 66 65 65 64 63 62 62 62 61 60 60 60 59 58 58 57 57 56 56 55 54 53 52 52 51 50 50 50 50 51
52 52 52 53 55 56 59 61 62 63 63 64 64 63 63 62 61 60 60 60 60 59 57 57 58 58 57 57 56 55 54 54 53 53 53 52 52 51 50 49 49 49 49 49
50 50 50 51 53 55 57 59 60 60 61 60 60 59 58 57 57 57 56 56 55 54 54 55 56 57 57 56 54 54 54 54 54 54 54 53 53 52 50 49 48 47 47 48
48 48 49 49 51 53 54 55 56 57 57 56 55 54 53 52 52 51 51 52 53 54 54 54 55 55 55 55 55 56 56 56 56 56 56 55 53 52 50 48 47 46 46 46
48 48 51 51 52 53 53 52 51 51 50 49 50 50 50 50 50 51 52 53 53 54 54 54 54 55 56 56 57 57 57 57 57 56 55 54 53 51 49 47 45 44 44 44
49 50 51 51 52 52 52 51 50 49 48 49 49 50 51 51 51 52 52 53 54 54 55 55 55 56 56 57 57 57 57 57 56 56 55 54 53 52 49 46 44 43 42 42
49 50 50 50 51 51 51 50 50 50 50 51 51 52 52 52 52 52 53 53 54 54 55 55 55 56 57 57 57 58 58 58 58 57 56 55 54 52 49 46 43 41 41 41
51 51 51 51 51 51 51 51 50 50 51 51 51 51 51 51 52 52 53 54 54 54 55 55 56 57 58 58 59 60 60 60 59 59 57 55 53 50 47 44 42 40 39 39
51 51 51 50 51 51 51 51 50 50 50 50 50 50 51 51 52 52 53 54 54 54 55 56 57 58 59 60 60 60 60 60 60 58 55 54 51 48 45 42 39 38 36 36
50 49 49 49 49 50 50 50 50 50 49 49 49 50 50 51 51 51 52 53 54 55 56 57 58 59 60 60 60 61 62 61 60 57 54 51 48 45 42 39 37 35 34 34
49 49 49 48 48 48 48 48 48 48 49 49 49 50 51 51 51 51 52 52 53 54 56 57 58 59 59 59 60 61 60 58 56 52 49 46 43 40 38 36 35 33 32 32
49 48 48 47 48 48 48 48 48 48 48 49 49 49 50 50 51 51 51 52 53 54 55 56 57 58 58 59 60 60 58 55 52 48 46 42 39 36 35 33 32 31 29 30
49 48 47 47 47 47 47 47 48 48 48 49 49 49 50 50 50 50 50 51 53 55 56 57 57 58 59 59 59 58 55 52 48 45 41 37 35 32 31 30 29 28 27 27
48 48 48 47 47 47 47 47 48 48 47 48 49 49 49 49 49 50 50 51 52 55 56 56 56 57 58 57 55 54 51 48 44 41 37 34 31 29 27 26 25 24 24 24
48 48 47 47 47 46 46 47 47 47 47 48 48 48 49 48 49 49 50 52 53 54 54 54 54 55 54 53 53 51 47 44 40 36 33 29 26 24 23 22 22 22 21 21
47 46 45 45 45 44 44 46 46 46 46 47 47 48 48 48 49 49 49 50 52 53 52 51 51 51 51 50 49 46 43 39 35 31 28 24 22 20 19 19 19 18 18 19
44 44 43 44 44 44 44 44 45 45 45 45 46 47 47 47 47 48 49 50 50 50 49 48 48 49 48 46 44 41 38 34 30 26 24 22 19 16 16 16 15 15 15 16
42 42 42 42 42 42 43 42 42 42 43 44 44 45 46 47 47 47 48 48 47 46 46 45 45 45 43 41 39 37 35 31 27 24 22 19 16 13 12 12 12 13 13 14
41 41 41 41 41 41 41 41 41 42 42 42 42 43 43 45 45 45 45 44 43 43 44 43 42 41 40 38 37 35 32 29 25 22 19 16 11 9 9 9 10 10 11 11
41 40 40 40 40 41 41 41 42 42 42 41 40 41 42 42 42 42 41 40 40 41 41 40 39 39 38 36 34 32 30 27 23 20 17 12 8 7 8 8 9 9 9 10

GEFSNGP_500_meanwind_078.txt.gz
Wind_Speed
35 36 38 39 37 38 40 42 47 47 48 48 51 52 52 53 53 53 53 53 52 51 50 51 52 53 54 55 56 57 58 59 59 60 60 61 61 62 62 62 61 61 60 59
37 37 39 39 37 39 42 44 46 47 47 49 52 52 53 54 54 54 54 53 52 52 52 53 54 55 55 55 56 56 57 57 58 58 58 59 59 59 59 59 58 58 57 56
40 39 41 40 39 40 42 42 44 46 47 49 50 51 52 53 53 53 53 53 53 53 54 54 55 55 55 55 55 55 55 55 55 56 56 57 57 57 57 56 55 55 55 55
43 43 44 41 40 41 42 43 43 45 47 48 48 48 50 51 52 52 52 53 53 54 54 54 54 54 54 54 53 53 53 54 55 55 55 55 56 56 55 55 55 55 55 55
43 44 44 40 40 42 43 43 45 46 47 47 47 47 50 51 52 53 53 54 54 54 54 53 53 52 51 51 52 53 54 54 54 54 55 55 55 55 55 55 55 55 55 54
40 42 43 42 43 44 44 45 45 46 46 47 48 49 49 51 52 52 52 53 53 53 52 51 50 50 51 51 52 52 53 53 54 54 54 54 54 54 54 54 54 54 54 54
39 42 42 42 44 44 46 47 47 47 47 48 50 51 52 52 52 52 52 52 51 50 50 50 51 51 52 52 52 52 53 54 54 54 55 55 54 55 55 55 55 55 54 53
41 42 42 43 45 46 48 48 48 49 50 51 52 53 53 53 54 53 52 52 52 51 51 52 53 53 52 52 53 53 53 53 54 54 55 55 55 56 56 56 56 55 55 53
42 43 44 46 47 49 50 51 51 51 52 54 54 55 55 55 54 54 53 53 53 53 52 53 53 53 53 53 53 54 53 54 54 55 55 56 56 56 56 56 56 56 55 54
45 45 46 48 50 51 52 53 53 54 55 56 56 57 57 56 56 55 55 55 54 53 52 52 53 54 54 54 54 54 54 54 55 55 56 56 57 57 58 58 57 57 55 54
48 49 51 51 52 54 55 56 56 57 58 58 58 58 58 57 56 56 55 55 54 54 53 54 54 54 54 54 54 54 54 55 56 56 56 56 57 57 58 58 58 57 55 54
52 53 55 55 56 58 58 58 59 59 59 59 59 58 58 57 56 56 55 54 54 53 53 53 53 53 53 54 54 54 54 55 56 56 57 57 58 58 58 58 57 56 55 54
56 57 58 59 59 60 60 61 61 61 60 60 59 59 58 57 56 55 54 54 53 53 53 53 53 53 53 54 54 55 55 56 56 56 57 57 57 57 57 55 54 53 51 48
59 60 60 60 61 61 61 61 61 61 60 60 60 59 58 56 54 53 53 53 52 52 52 52 53 53 54 54 54 55 55 55 56 56 56 57 57 56 55 54 51 48 45 43
62 62 62 62 62 62 62 61 61 60 59 59 59 58 56 54 53 52 52 52 51 52 52 52 53 53 53 53 54 55 55 56 56 56 57 57 56 56 54 52 49 45 42 40
62 62 62 62 61 61 60 60 59 59 58 58 57 56 55 53 52 51 51 52 51 51 51 52 52 53 53 53 53 54 54 55 55 55 56 56 55 53 52 49 45 42 39 36
61 61 60 59 59 58 58 58 57 57 57 56 56 55 53 52 51 50 50 51 51 51 52 52 52 52 52 52 53 53 53 53 53 54 53 52 50 49 47 44 41 38 35 32
60 59 58 57 56 56 55 55 55 55 54 54 54 52 52 51 50 49 49 49 49 50 51 52 51 50 51 52 52 52 51 52 52 51 49 47 47 46 44 40 37 33 30 29
57 56 55 54 54 53 53 53 53 53 53 53 52 51 50 49 48 48 47 47 48 48 49 49 49 49 50 51 51 50 50 50 49 48 47 45 44 43 41 37 32 28 26 26
55 53 52 52 52 52 52 52 52 52 51 51 50 49 48 47 47 47 46 47 48 48 47 46 47 48 49 49 48 48 47 47 47 46 44 43 42 41 38 34 30 28 26 25
51 51 51 50 50 50 51 51 50 50 49 49 48 46 46 45 45 45 44 44 45 46 45 45 45 46 46 46 45 45 45 45 44 44 42 40 39 37 34 31 28 26 25 23
49 49 49 48 48 47 48 48 48 47 47 46 45 45 44 43 43 42 43 43 43 43 42 43 43 44 43 43 43 43 43 43 42 41 39 37 36 34 32 29 25 24 23 21
47 47 47 47 47 46 46 46 46 46 45 44 44 44 43 42 41 40 40 41 41 41 41 41 41 40 41 41 41 41 41 40 38 38 36 35 34 32 29 26 23 22 20 18
46 46 46 47 47 46 45 45 45 44 44 43 43 43 42 40 39 40 39 39 39 39 39 39 38 38 39 40 39 39 39 38 36 35 35 34 32 29 26 22 20 19 18 17
46 46 46 46 46 45 45 44 43 42 42 42 41 42 41 40 38 38 37 37 37 37 37 37 37 37 38 38 37 37 36 35 33 32 32 31 29 26 23 21 19 18 17 16
45 45 45 45 46 46 45 44 43 41 40 40 39 39 39 38 38 37 37 36 35 35 35 35 35 35 36 36 35 34 34 33 31 30 30 28 26 24 21 20 19 18 16 16
45 46 45 45 45 45 44 44 42 41 40 39 38 38 37 37 36 36 35 34 33 34 34 33 33 33 34 34 33 32 32 30 28 28 27 25 23 22 20 19 18 17 16 16

GEFSNGP_500_meanwind_084.txt.gz
Wind_Speed
28 29 31 32 30 32 35 38 41 40 40 40 42 42 42 43 44 45 44 44 45 47 49 50 51 52 53 55 56 56 57 57 57 58 58 59 59 59 59 59 60 61 62 62
30 30 34 33 30 33 35 37 40 41 40 41 42 42 42 43 45 46 46 47 49 50 52 53 54 55 56 56 57 58 58 58 58 59 58 58 58 57 58 58 59 59 60 60
33 32 35 33 32 33 35 37 39 40 40 42 43 43 44 45 47 48 49 51 52 54 56 56 57 58 58 58 59 59 59 59 58 58 57 56 57 57 57 58 58 58 59 60
36 35 35 32 33 35 37 37 39 40 41 42 43 44 46 48 50 51 53 55 57 58 59 59 60 60 60 60 60 60 59 59 58 58 57 57 57 58 58 58 59 59 60 60
36 38 37 34 35 37 39 39 40 41 42 44 45 47 48 51 54 56 57 59 60 61 62 62 62 62 62 61 61 61 60 59 59 59 59 58 58 58 59 59 59 59 60 60
37 39 39 36 38 40 42 43 44 44 46 48 50 52 53 55 57 59 61 62 63 64 64 64 64 64 63 62 62 61 61 60 60 60 59 58 58 58 58 58 58 58 58 58
36 39 39 40 41 43 44 46 48 50 51 53 55 57 59 60 62 64 65 66 67 67 66 66 65 64 64 63 62 61 61 60 59 59 59 58 58 57 57 57 57 57 57 57
37 39 40 43 44 46 48 49 51 53 55 57 59 61 63 65 66 67 68 68 69 68 67 66 65 65 63 62 62 61 59 59 58 58 58 57 57 56 56 56 56 56 57 57
40 41 43 46 48 50 52 53 55 57 59 61 63 64 66 68 69 70 70 70 69 69 67 65 65 64 63 62 60 59 58 58 57 57 57 56 56 55 55 56 56 56 57 57
43 44 46 49 51 53 55 56 59 61 63 65 66 68 70 71 72 72 72 71 69 68 66 65 64 63 62 61 60 58 57 57 56 56 55 55 55 55 56 56 56 57 57 56
47 48 50 52 54 56 58 60 63 65 67 68 70 71 72 73 73 72 71 70 69 68 66 65 63 62 61 60 59 57 56 56 55 54 54 54 54 54 54 55 56 56 56 56
50 52 54 56 58 60 62 64 66 68 69 70 72 73 74 73 72 71 70 69 68 67 66 64 62 61 59 59 58 56 55 54 53 53 53 52 52 52 53 54 55 55 55 54
54 56 58 59 61 63 65 67 69 70 71 73 73 73 73 72 70 69 69 68 67 66 64 63 60 58 57 56 55 54 53 52 51 51 51 52 52 52 52 52 52 52 51 51
57 59 60 62 64 66 67 69 70 71 72 72 72 72 71 70 68 67 66 66 65 63 62 60 58 56 55 54 53 52 51 50 50 50 51 51 51 52 52 50 49 49 49 49
60 62 63 65 66 68 69 70 71 71 71 71 70 69 68 67 66 65 64 64 63 61 59 58 55 53 52 51 50 49 49 49 49 50 50 50 50 49 50 50 49 49 47 46
63 64 65 66 67 69 70 70 70 70 69 68 67 66 65 64 64 63 63 62 60 58 56 54 52 50 49 49 48 47 47 47 48 48 48 48 48 48 49 49 48 47 45 44
64 64 65 66 67 68 68 68 68 67 66 65 64 63 62 62 61 60 59 58 57 55 53 51 49 48 47 46 46 45 45 45 45 46 46 46 46 46 47 46 45 44 43 42
65 65 66 67 67 67 66 65 65 64 62 62 61 60 59 59 58 57 55 53 52 50 49 48 47 45 44 44 43 43 43 43 43 43 43 44 44 44 44 43 43 42 41 40
63 64 64 64 64 64 63 62 61 60 59 59 58 57 56 55 55 53 52 51 50 47 45 44 43 42 41 41 41 41 41 41 41 41 41 42 42 42 42 42 41 40 39 37
62 62 62 62 61 60 59 58 58 57 56 56 55 54 53 53 52 51 50 49 48 46 44 42 40 39 39 39 39 40 39 39 39 39 39 40 40 40 40 39 38 37 36 35
61 60 59 58 57 57 56 56 55 54 54 53 53 53 52 50 50 49 48 46 44 43 42 40 39 38 37 37 38 38 37 37 37 37 38 39 38 38 38 38 37 35 34 34
58 57 56 56 55 54 53 53 53 52 52 52 51 51 50 48 47 46 45 44 42 40 39 37 37 36 36 36 36 36 35 35 36 36 36 37 37 38 37 36 35 33 33 32
55 54 54 53 53 51 50 50 51 50 50 49 49 49 48 46 45 44 41 39 39 38 37 36 35 35 34 34 34 34 34 34 34 35 35 36 37 37 35 34 32 32 31 30
53 52 51 51 51 50 48 48 48 48 48 47 47 47 46 44 42 41 40 38 37 36 35 34 33 33 33 33 33 32 32 32 33 33 33 35 36 35 33 31 31 30 29 28
51 50 50 50 49 48 47 46 46 46 46 45 45 44 44 43 41 39 37 36 36 35 33 32 32 32 31 31 31 30 30 31 31 31 33 34 34 32 31 29 29 28 28 28
49 49 48 48 47 46 45 45 44 45 45 44 43 42 42 41 39 37 36 35 34 33 32 31 30 30 30 30 29 29 29 29 30 31 32 33 32 30 29 28 28 27 27 26
47 47 46 45 44 44 43 43 44 44 44 43 41 40 39 38 37 35 34 33 32 31 30 30 29 28 28 28 28 27 27 28 29 30 31 31 30 28 27 27 26 26 25 24

GEFSNGP_500_meanwind_090.txt.gz
Wind_Speed
25 27 29 27 25 27 30 32 34 31 31 31 32 34 35 37 38 40 42 44 46 48 49 51 53 55 58 60 62 65 66 68 68 69 69 68 67 67 67 67 67 66 65 64
27 28 31 29 27 29 31 32 34 34 33 34 35 36 37 39 41 43 45 47 49 52 54 56 58 60 63 65 67 69 71 71 72 71 70 69 68 67 67 67 66 66 65 64
31 30 31 30 29 30 32 32 33 34 35 36 36 37 40 42 44 46 48 51 53 56 58 60 63 65 68 70 72 73 74 74 73 72 71 69 68 67 67 66 65 65 64 63
34 32 32 30 30 32 32 32 34 35 36 36 38 40 42 45 47 50 52 55 57 60 62 65 67 70 72 74 75 76 75 74 73 71 70 69 67 66 65 65 63 62 61 60
36 35 34 30 32 33 34 34 34 35 36 38 40 43 45 48 51 53 56 59 61 64 67 69 72 74 76 77 77 76 75 73 71 70 69 67 66 65 63 62 60 59 57 57
37 38 37 33 34 35 35 35 35 36 38 41 43 46 48 51 54 57 60 62 65 68 70 73 75 77 78 77 76 75 73 71 70 69 68 66 64 62 61 59 57 56 55 55
37 39 39 37 37 36 37 38 38 40 42 44 47 50 52 55 58 61 63 66 69 71 74 76 77 78 77 76 75 73 72 70 68 67 65 63 61 59 57 55 53 53 52 52
38 39 39 39 38 38 39 40 42 44 46 48 51 54 56 59 62 64 67 69 72 74 76 77 77 78 76 74 73 71 70 68 66 64 62 60 58 55 53 52 51 50 49 48
38 38 39 39 40 41 42 44 45 48 50 52 55 58 60 63 65 67 70 72 74 76 77 76 76 76 74 72 71 69 67 65 63 60 58 56 54 52 50 50 49 48 46 46
38 37 39 41 42 43 45 46 49 51 53 56 59 61 64 66 68 70 72 74 75 76 76 75 74 72 71 70 69 67 64 62 59 56 53 52 51 50 48 47 46 46 45 45
39 39 41 42 43 45 47 49 52 54 57 60 62 64 66 68 70 72 74 75 75 75 75 73 71 69 68 67 66 63 60 58 55 53 51 48 47 46 45 45 45 45 44 45
39 40 42 43 44 46 49 52 54 57 59 62 64 66 68 70 72 73 74 74 74 73 72 71 69 67 65 64 62 60 57 54 51 49 47 45 44 42 43 44 43 43 43 44
41 42 44 45 47 50 52 55 57 60 62 64 66 68 70 71 72 72 72 73 72 71 70 68 65 63 62 60 58 55 53 51 48 46 44 43 42 42 40 39 40 41 42 42
43 45 46 48 51 53 55 58 60 62 64 66 68 69 70 71 71 71 71 70 69 68 66 64 62 60 59 56 54 52 50 48 46 44 43 42 42 40 39 38 38 38 39 40
45 47 49 52 54 56 58 60 62 64 65 66 68 69 69 70 70 69 68 67 66 65 63 61 60 58 55 53 51 49 48 46 44 42 42 41 40 38 38 38 39 38 37 38
48 50 52 54 56 58 60 62 63 65 66 67 68 68 68 68 68 66 65 65 63 62 60 59 57 55 53 51 49 47 45 44 42 41 40 39 38 38 38 38 38 37 37 37
50 52 54 55 57 59 61 63 64 66 66 67 67 67 67 66 65 63 62 61 60 60 59 57 55 52 50 49 47 45 43 41 41 40 39 38 38 37 37 37 37 36 37 37
52 54 55 57 59 60 61 63 64 65 66 67 66 66 64 63 62 61 59 58 57 56 56 55 52 50 48 47 45 44 42 40 39 39 38 37 37 36 36 36 36 36 36 37
53 55 57 58 60 61 62 64 65 65 65 65 64 63 62 61 60 59 58 57 56 54 52 51 49 47 46 45 44 42 40 39 38 37 37 36 36 35 35 35 35 36 35 35
55 56 57 59 60 62 63 64 65 64 64 63 62 61 59 58 58 57 56 55 54 53 50 48 46 45 44 43 42 40 39 38 36 35 35 35 35 34 34 34 34 34 34 33
55 57 58 59 61 62 62 63 64 63 62 61 60 58 57 56 56 55 54 52 50 50 48 46 45 44 43 42 40 38 37 36 35 34 35 34 34 33 33 33 33 33 32 32
56 58 59 60 61 61 61 61 62 61 59 58 57 56 55 54 53 52 51 51 49 47 46 45 44 42 41 40 37 36 35 34 34 34 34 33 32 32 32 31 31 31 31 30
58 59 60 61 61 61 60 60 60 59 57 55 54 53 52 51 51 50 48 47 47 46 44 43 42 40 39 37 36 35 34 33 33 33 32 31 31 31 31 30 29 29 29 29
59 60 61 61 61 61 59 58 57 56 54 53 51 51 50 49 48 48 47 46 45 44 43 41 40 38 37 35 34 33 32 32 32 31 30 30 30 30 29 29 28 28 28 28
59 60 60 60 60 59 58 56 54 52 51 50 49 49 49 48 47 46 45 44 43 42 41 39 38 37 35 34 33 32 31 31 31 30 29 29 28 28 28 27 26 26 26 27
59 59 59 58 58 57 56 53 51 50 49 47 46 47 46 46 45 45 44 43 42 41 39 38 36 35 34 33 32 31 31 30 29 29 28 28 27 26 26 25 24 24 25 25
58 57 57 56 55 54 52 51 49 48 47 46 45 44 44 44 43 43 42 41 40 39 37 36 35 33 32 31 31 30 30 29 28 27 27 26 26 24 24 24 23 23 23 24

GEFSNGP_500_meanwind_096.txt.gz
Wind_Speed
28 29 30 30 30 32 34 34 36 34 34 33 36 37 38 39 40 41 42 43 45 46 47 49 52 54 56 58 61 63 66 69 71 74 76 78 80 81 82 82 82 82 81 80
29 31 33 32 31 33 34 36 37 38 37 37 38 38 39 40 42 43 44 46 47 48 50 53 55 57 60 62 65 68 70 72 75 77 79 81 82 82 81 81 80 80 79 77
31 32 34 34 32 34 35 37 38 38 39 39 39 39 40 42 43 45 46 48 49 51 53 56 58 61 64 66 69 71 74 76 78 80 81 81 81 80 80 79 78 77 75 73
35 34 36 35 35 35 37 38 39 39 40 40 40 41 43 44 45 47 48 50 52 54 56 59 62 65 67 70 72 75 77 78 80 81 81 81 80 79 78 76 74 72 70 67
38 38 37 35 36 37 39 39 39 40 40 41 41 42 44 46 47 49 51 52 54 57 60 63 65 68 70 73 75 77 79 80 81 81 81 80 78 77 75 73 70 67 64 62
38 40 40 38 37 38 40 40 39 40 41 42 43 44 45 47 48 50 52 55 57 60 63 65 68 71 73 75 77 78 79 80 80 80 79 78 76 73 70 68 65 62 59 57
39 41 42 41 41 40 41 41 41 41 42 42 44 45 47 49 51 53 55 58 60 63 65 68 71 73 75 77 78 79 80 79 79 78 76 75 72 69 66 63 60 58 55 53
40 42 42 42 43 42 43 43 43 43 43 44 45 47 49 51 53 55 58 60 63 65 68 70 73 75 76 78 79 79 78 77 76 74 72 70 67 64 62 60 57 54 51 49
41 42 43 44 44 44 44 44 44 44 45 46 47 49 51 53 55 58 60 63 65 68 70 72 74 76 78 78 78 77 76 74 72 70 67 65 63 60 58 56 54 51 49 46
42 43 44 45 45 45 45 45 45 46 47 48 49 51 53 55 58 60 63 65 67 70 72 73 75 77 78 78 77 75 73 71 69 66 63 61 59 57 55 53 50 48 46 44
43 44 45 46 46 45 45 45 46 47 48 50 52 54 56 58 60 62 65 67 70 72 74 75 76 77 77 77 75 73 70 68 66 63 61 58 56 54 52 49 48 46 44 43
44 44 45 45 45 45 45 46 47 49 50 52 54 56 58 60 62 65 67 69 71 73 75 76 76 76 75 74 72 70 67 65 63 60 58 56 53 50 48 47 46 45 44 43
44 44 45 45 45 46 46 47 48 50 52 54 57 59 60 62 65 67 69 71 73 74 75 76 75 74 73 71 69 67 65 63 61 58 56 53 51 48 44 42 43 43 42 42
44 44 44 45 45 46 47 48 50 52 55 57 58 60 62 64 66 68 70 72 74 74 75 74 73 71 70 68 66 64 62 61 59 56 54 51 48 46 44 42 40 39 40 41
43 43 44 45 46 47 48 50 53 55 57 58 60 62 64 66 68 69 71 73 74 74 73 72 70 68 66 65 63 61 60 58 56 53 51 49 46 44 43 42 40 39 38 39
43 43 44 45 47 48 51 53 55 56 58 59 61 63 66 68 69 70 72 73 73 72 71 70 68 65 64 62 61 59 57 55 53 50 48 46 44 43 42 41 39 38 38 37
43 44 46 47 48 50 52 54 56 58 60 62 63 65 67 69 70 71 71 71 71 70 69 68 65 63 61 60 58 56 54 52 50 48 46 44 43 42 40 39 37 37 36 36
44 45 47 48 50 52 54 56 58 60 62 64 66 67 68 70 71 71 71 70 68 67 65 64 62 60 59 57 56 54 52 49 47 46 44 42 41 40 38 37 36 35 35 35
44 46 48 50 52 54 56 58 60 62 64 66 67 68 69 70 71 71 70 69 67 64 62 60 59 57 56 55 53 51 49 47 45 43 42 40 39 37 37 36 35 35 35 35
47 49 51 53 54 56 58 60 62 64 65 67 68 69 70 71 71 70 68 66 64 62 59 57 56 54 53 52 50 48 47 45 43 41 40 38 37 35 35 34 34 34 34 33
49 51 53 55 57 59 61 62 64 65 66 68 69 70 71 70 69 68 66 62 59 58 57 55 54 52 51 49 47 46 44 43 41 40 38 36 35 34 34 34 33 33 33 33
52 54 55 57 59 60 62 63 65 67 68 69 70 71 70 69 67 64 62 60 57 56 54 53 51 50 48 46 44 43 42 41 39 38 37 35 34 33 33 33 33 32 32 32
54 56 58 59 61 62 63 65 67 68 69 70 70 70 68 66 64 62 58 57 56 54 52 51 49 48 46 44 42 41 41 39 38 36 35 34 33 32 32 32 32 31 31 31
56 58 60 61 63 64 65 66 68 69 70 70 69 68 66 64 61 59 57 55 53 52 50 48 47 46 44 42 41 40 39 38 36 35 34 33 32 32 31 31 31 31 30 29
58 60 62 64 65 66 67 68 69 69 69 68 66 65 63 62 59 56 54 53 51 50 48 46 45 44 43 41 39 38 38 36 35 34 33 32 31 30 30 30 30 30 29 28
61 63 64 65 67 68 69 69 69 68 67 65 62 61 60 58 56 54 52 51 49 47 45 44 43 42 41 40 38 37 36 35 34 33 32 31 30 29 29 29 29 29 28 27
63 64 65 66 67 68 68 68 67 65 63 62 59 57 56 55 53 51 50 48 46 44 43 42 41 40 39 38 37 36 35 33 32 31 30 29 28 28 28 28 28 28 27 26

GEFSNGP_500_meanwind_102.txt.gz
Wind_Speed
25 25 25 24 24 25 26 27 29 27 28 30 34 35 35 36 37 38 40 41 42 42 43 44 45 47 48 50 51 53 55 57 59 62 65 67 69 72 74 76 78 79 80 80
26 26 26 26 25 26 27 28 30 31 31 32 34 36 37 38 39 40 41 42 43 43 45 46 47 49 50 52 54 56 58 60 63 65 67 70 72 74 76 77 79 79 79 78
27 27 29 27 25 28 29 31 32 33 33 34 35 36 38 39 40 41 42 43 43 45 46 48 49 50 52 54 56 58 61 63 65 68 70 72 74 76 77 78 78 77 76 75
28 29 30 28 27 29 31 32 33 34 35 36 37 38 39 40 41 42 43 43 45 46 47 49 50 52 54 56 58 61 63 65 68 70 72 74 76 77 78 78 77 75 73 71
30 31 31 29 29 30 32 32 33 35 36 37 38 39 40 41 42 43 43 45 46 47 49 50 52 54 56 58 60 62 65 67 70 72 74 76 77 77 77 76 74 72 70 68
31 33 33 31 31 32 34 34 33 35 37 38 39 40 41 42 43 44 44 45 47 48 50 52 54 56 58 60 62 65 67 70 72 74 76 76 77 77 76 74 72 69 66 64
32 34 35 34 34 35 36 36 36 37 38 39 40 41 42 43 44 44 45 46 48 50 52 54 56 58 60 62 64 67 69 71 74 75 76 76 76 75 74 71 69 66 64 61
34 36 36 36 37 37 38 38 39 40 40 41 41 42 42 43 44 45 46 48 50 51 53 56 58 60 62 64 67 69 71 73 74 75 75 75 74 73 71 68 65 63 60 57
36 37 37 38 39 40 40 41 41 42 42 43 43 43 43 44 45 47 48 50 51 53 55 57 59 62 64 66 69 71 72 73 74 74 74 73 72 70 67 65 63 60 58 55
37 38 39 40 41 42 42 43 44 44 44 44 44 44 45 46 47 49 50 52 53 55 57 59 61 64 67 69 71 72 73 73 74 73 72 71 70 67 65 63 61 58 56 53
39 40 42 42 42 43 44 45 45 45 44 44 45 45 46 47 49 50 52 54 55 57 59 61 64 66 69 71 72 73 73 73 73 72 71 69 66 64 62 60 59 57 54 51
40 40 42 42 43 44 45 45 45 45 45 45 46 47 47 49 50 52 54 56 58 59 62 64 66 68 70 72 73 73 73 73 72 71 69 67 64 60 58 58 56 54 51 49
40 41 42 42 43 44 45 45 45 45 45 46 47 48 49 50 52 54 56 58 60 62 64 66 68 70 71 73 73 73 73 72 71 69 67 64 61 58 56 54 52 51 49 46
40 41 42 43 44 44 44 44 45 45 46 47 48 49 51 52 54 56 58 60 62 64 66 68 70 71 72 73 73 73 72 70 69 66 64 61 59 57 55 52 49 47 46 44
40 42 42 43 44 44 44 44 45 46 47 48 50 51 53 54 55 57 60 62 64 66 68 70 71 72 73 73 73 72 70 68 66 63 60 58 56 54 53 51 48 45 43 41
41 42 42 43 44 43 43 44 45 46 48 50 51 53 54 55 57 59 61 64 66 67 69 71 73 73 73 73 72 70 67 65 63 60 58 56 54 53 51 48 46 44 42 39
41 41 42 42 43 43 44 45 46 48 49 51 52 53 55 57 59 61 63 66 68 70 72 73 74 73 73 72 70 67 65 62 60 58 56 54 53 51 49 47 44 43 40 38
40 41 42 42 43 44 45 46 47 49 50 52 53 55 57 60 62 64 66 68 70 71 72 74 74 73 71 69 67 65 62 59 57 55 53 52 50 49 47 45 43 41 38 36
40 40 41 42 43 44 46 47 48 50 52 54 56 57 60 62 64 66 68 70 72 73 73 73 72 70 69 67 65 62 59 57 55 53 51 50 48 46 44 43 41 40 37 36
40 40 41 42 44 45 46 48 50 52 54 56 58 60 62 64 67 69 70 71 72 74 73 71 70 68 66 64 61 59 57 54 52 51 49 47 45 43 42 41 40 39 37 35
39 40 41 43 45 46 48 50 52 54 56 58 60 62 64 66 68 70 71 72 72 72 71 69 68 65 63 61 58 56 54 52 50 48 46 44 43 41 41 40 38 37 36 35
39 41 43 45 46 48 50 52 54 56 58 60 63 65 67 69 70 71 71 72 71 70 69 67 64 62 60 57 55 52 51 49 47 45 43 42 41 40 39 38 37 36 35 34
41 43 45 46 48 49 51 53 56 58 60 63 65 68 70 71 71 71 71 70 70 68 66 63 61 59 56 54 52 50 48 46 44 43 41 40 40 39 38 37 35 34 33 32
42 44 45 47 49 51 53 56 58 61 64 66 68 70 71 71 70 71 71 69 67 65 62 60 58 56 54 52 50 48 46 44 43 41 40 39 38 37 37 35 34 33 32 31
44 46 48 50 52 54 57 59 62 64 66 67 68 69 70 70 70 69 68 66 64 62 60 57 55 53 51 50 48 45 44 42 41 39 38 37 36 35 34 33 32 31 30 30
47 49 51 54 56 58 60 63 64 66 68 68 68 68 68 68 68 67 65 63 61 59 57 55 53 51 49 47 45 42 41 39 38 37 35 35 34 33 32 31 30 29 29 29
50 53 55 57 59 61 63 65 66 67 68 68 67 67 66 66 65 64 63 61 59 57 54 52 49 47 45 42 40 39 37 37 35 34 33 32 31 31 30 29 28 28 28 29

GEFSNGP_500_meanwind_108.txt.gz
Wind_Speed
30 30 28 28 27 27 28 27 27 25 26 27 30 31 31 32 33 35 36 37 39 40 42 44 45 46 48 49 49 50 50 51 52 53 54 56 57 59 60 62 64 66 68 70
31 30 30 29 27 27 27 27 27 27 26 28 31 32 34 35 35 36 38 39 41 43 44 46 47 48 49 50 50 51 52 53 54 55 56 58 59 61 63 64 66 68 70 72
30 30 30 29 26 27 27 27 28 28 28 30 31 33 35 36 38 38 39 41 42 44 46 47 48 49 50 50 51 52 53 54 56 57 58 60 62 63 65 67 68 70 71 72
29 30 31 27 26 27 28 27 29 29 30 31 33 34 35 37 38 40 41 43 44 46 47 48 49 50 50 51 52 53 55 56 57 59 60 62 64 65 67 69 70 71 73 73
30 31 30 28 27 27 28 28 29 30 32 33 34 35 36 37 40 41 42 44 45 46 47 48 49 50 51 52 53 54 55 57 59 60 62 64 65 67 69 70 71 73 73 74
31 32 32 28 28 29 30 30 29 31 32 33 35 36 37 39 41 43 44 45 47 48 48 49 50 51 52 53 54 55 57 59 60 62 64 66 67 69 71 72 73 73 74 74
31 32 31 28 28 29 31 31 32 32 33 34 36 38 39 41 43 44 46 47 48 49 49 50 51 52 53 54 56 57 59 60 62 64 66 67 69 71 72 73 73 74 74 73
32 33 30 29 30 31 33 34 34 35 36 37 38 40 41 43 45 46 47 48 49 49 50 51 52 53 54 56 57 59 60 62 64 65 68 70 71 73 74 74 74 74 74 72
32 33 32 32 33 34 35 36 36 38 39 40 41 42 44 45 46 47 48 49 49 50 51 52 53 54 56 57 59 60 62 63 65 67 69 71 73 74 75 75 75 75 73 70
33 33 33 34 35 36 37 38 39 40 41 42 43 44 45 46 46 47 48 49 50 51 51 53 54 56 58 59 61 62 64 66 67 69 71 73 74 75 76 75 75 73 70 67
35 34 36 36 38 39 39 40 41 42 43 44 44 45 45 46 47 48 49 50 50 51 53 54 56 58 59 61 63 64 66 68 70 72 73 74 75 76 75 74 73 71 68 65
35 36 38 39 39 40 41 42 42 43 44 45 45 45 46 47 48 49 50 51 52 53 54 56 58 59 61 63 65 67 68 70 72 74 75 76 76 75 73 71 69 67 65 63
36 37 39 39 39 40 41 42 43 44 44 45 45 46 47 48 49 50 51 52 53 55 56 58 59 61 63 65 67 69 71 73 74 76 77 76 76 74 71 67 65 63 61 60
35 37 38 39 40 41 41 42 44 44 44 45 46 47 48 49 50 51 52 54 55 56 58 59 61 63 66 68 70 71 73 75 76 77 77 75 74 72 70 67 63 59 58 56
36 38 39 39 41 41 42 43 43 44 45 46 47 48 50 51 51 52 53 55 56 58 59 62 64 66 68 70 72 74 75 76 76 76 75 74 73 71 68 65 62 58 55 52
37 38 39 40 40 41 42 43 44 45 46 47 48 49 50 51 52 53 54 56 58 60 62 64 66 68 71 73 74 75 76 76 76 76 74 73 71 68 65 62 59 55 52 50
37 38 39 40 41 41 42 43 44 45 46 48 49 50 50 51 52 54 56 58 60 62 65 67 69 71 73 75 76 76 76 76 76 75 73 71 68 65 62 59 56 53 50 48
37 38 38 40 41 42 42 43 44 46 47 48 48 49 51 52 54 56 58 60 62 64 67 70 72 73 74 75 76 76 76 76 75 73 71 68 65 62 60 57 53 51 48 46
36 37 38 39 40 41 42 44 45 45 47 48 49 50 52 54 56 58 60 62 65 67 69 71 73 74 75 76 77 77 76 75 74 71 69 66 63 60 57 54 51 49 46 44
36 37 38 40 41 42 43 44 45 45 47 48 50 52 54 56 58 60 62 64 67 70 71 72 74 74 75 76 77 76 75 74 72 69 66 63 60 56 54 51 49 46 44 42
38 39 39 40 41 42 43 43 44 46 48 50 52 54 56 58 61 63 65 66 69 71 72 73 74 75 76 77 76 74 73 71 69 66 63 59 55 52 50 48 45 43 41 40
38 39 39 40 41 42 43 44 46 48 50 52 54 56 58 61 63 65 67 70 71 72 73 74 75 76 76 75 73 71 69 68 65 61 58 54 52 49 46 44 42 40 39 38
38 39 40 40 42 43 44 46 48 50 52 54 57 59 61 64 66 68 69 70 72 73 74 75 75 75 74 72 70 68 66 63 60 57 53 50 48 45 43 41 39 37 36 36
39 39 40 42 43 44 46 48 50 52 55 57 59 62 64 66 68 70 72 72 73 74 74 74 73 72 70 68 66 64 62 59 56 52 49 46 44 42 40 38 36 35 35 34
40 41 42 44 45 47 49 51 53 55 57 59 62 64 67 69 70 71 72 73 73 73 73 71 70 69 67 65 63 60 58 55 51 48 46 43 41 39 37 36 35 34 33 32
42 43 45 46 48 50 52 54 56 58 60 62 64 67 69 70 72 72 72 72 72 71 70 68 67 65 63 61 59 56 53 50 47 45 43 41 38 36 35 34 32 31 30 29
44 45 47 48 50 53 55 57 59 61 63 65 67 69 70 71 71 71 71 70 69 68 66 65 63 61 59 57 54 50 47 44 42 40 39 37 35 33 32 30 29 28 28 28

GEFSNGP_500_meanwind_114.txt.gz
Wind_Speed
31 31 32 31 31 32 34 33 33 30 29 27 29 30 30 30 29 29 29 30 32 33 35 36 37 39 40 42 44 45 47 48 49 50 51 52 53 54 55 56 57 58 59 61
30 31 32 32 31 31 32 32 32 32 30 28 31 32 31 30 30 30 31 32 34 35 37 38 39 41 42 44 45 47 48 49 50 51 52 53 54 55 56 57 58 60 61 62
31 31 33 33 29 30 31 31 32 33 29 30 32 31 31 30 30 31 33 34 35 36 38 39 41 42 44 46 47 49 50 51 52 53 54 55 56 57 58 59 60 61 63 64
33 33 35 29 28 30 31 30 31 31 29 30 31 31 31 32 32 33 34 35 37 38 39 41 42 44 46 48 49 50 51 52 53 54 55 56 57 58 59 61 62 63 65 66
32 33 32 29 28 29 31 30 29 29 29 30 31 32 32 33 34 35 36 37 38 40 41 43 44 46 48 49 50 51 52 53 54 55 56 57 58 60 61 62 64 65 66 68
33 33 32 27 27 29 31 30 28 30 30 31 32 33 33 34 35 36 37 38 40 42 43 45 46 47 48 49 50 52 53 54 55 56 57 58 60 62 63 64 65 67 68 70
32 32 31 28 28 30 31 28 28 30 31 32 32 33 34 36 37 38 39 40 42 43 45 46 46 48 49 50 51 53 54 55 56 57 59 61 62 63 65 66 67 69 70 71
32 33 30 28 29 30 29 29 29 30 31 32 33 34 36 37 38 39 40 42 43 45 46 46 47 48 50 51 53 54 55 56 57 59 61 62 64 65 67 68 70 71 72 73
32 31 29 30 30 30 30 30 31 32 33 34 35 36 38 38 40 41 42 43 44 45 46 47 48 49 51 52 54 55 56 57 59 60 62 64 65 67 69 71 73 74 75 75
32 31 31 31 31 32 32 33 33 34 35 36 37 38 39 40 40 41 42 44 45 46 46 47 49 51 52 54 55 56 57 58 60 62 63 65 68 70 72 74 75 76 76 76
32 31 32 33 33 34 35 35 36 36 37 37 38 39 40 40 41 42 43 44 45 46 47 49 51 53 54 55 56 57 58 60 62 64 66 68 70 72 74 75 77 77 77 77
32 32 34 34 35 36 36 37 37 38 38 38 39 39 40 41 42 43 44 45 46 48 49 51 52 54 55 56 58 59 61 62 65 67 69 71 73 73 74 76 76 77 78 79
33 33 34 35 35 36 37 37 38 38 38 39 40 40 41 42 43 44 45 46 47 49 50 52 53 55 56 58 59 61 64 66 68 70 72 74 74 75 75 74 75 77 78 78
34 34 35 35 35 36 36 37 38 38 39 40 41 41 42 43 43 44 46 47 49 50 52 53 55 56 58 60 62 65 67 69 71 73 74 75 75 77 77 77 76 76 76 76
33 34 35 35 35 36 37 37 38 38 39 40 40 41 42 43 44 46 47 49 50 52 53 55 56 58 60 63 65 68 70 72 74 74 75 76 77 78 79 79 79 77 75 73
33 34 35 35 36 36 36 36 37 38 38 39 40 42 43 44 46 47 49 50 52 53 55 57 59 61 63 66 68 70 72 74 75 75 76 77 78 79 80 79 77 75 73 70
34 34 35 35 35 35 36 36 37 38 39 40 41 42 44 45 47 49 50 52 54 55 57 59 61 64 66 69 71 73 74 74 75 76 77 78 79 79 78 76 75 73 70 67
34 34 34 35 35 35 36 36 38 39 40 41 42 43 45 46 48 50 51 53 55 57 60 62 65 67 69 72 73 74 75 75 76 77 79 79 79 77 75 74 72 70 66 61
32 33 34 34 34 35 36 37 38 40 41 42 43 44 46 48 49 51 53 55 57 60 62 65 67 69 71 73 75 75 76 77 78 79 79 78 76 74 73 71 68 65 60 56
32 33 33 34 35 36 37 38 39 40 42 43 44 46 48 49 51 53 55 58 61 63 65 67 69 71 73 74 75 76 77 78 79 78 77 75 73 71 69 67 63 59 55 51
33 33 34 35 36 37 38 39 40 41 43 44 46 48 49 51 54 56 58 60 63 65 67 69 72 73 74 75 77 78 78 78 77 76 74 72 69 67 64 61 57 53 49 46
33 34 35 35 36 37 38 40 41 43 44 46 48 50 52 54 57 59 61 63 65 67 69 72 74 75 76 77 77 78 77 76 74 71 69 67 64 62 58 54 50 47 45 42
33 34 35 36 37 38 40 41 43 44 46 48 50 53 55 57 59 61 62 64 67 70 72 74 75 76 77 77 77 75 73 71 69 66 64 61 59 56 51 48 45 43 40 38
34 35 36 37 38 40 41 43 45 46 48 51 53 55 57 59 60 63 65 67 70 73 74 74 75 76 76 75 72 70 68 66 64 61 59 56 53 49 46 43 41 39 37 36
35 36 38 39 40 42 43 45 47 49 51 53 55 57 59 61 63 65 68 70 72 73 74 75 75 74 72 70 68 66 64 62 60 57 54 50 46 43 41 40 38 37 35 34
37 38 39 41 42 44 45 47 48 50 52 54 56 58 60 63 66 68 70 72 73 74 73 72 70 69 67 66 64 62 60 58 55 51 47 44 42 40 39 37 36 35 34 33
39 40 41 42 44 45 47 49 51 52 54 56 58 60 63 66 68 71 72 73 73 71 69 68 66 65 64 62 60 58 55 51 48 45 42 40 39 37 36 35 34 34 33 31

GEFSNGP_500_meanwind_120.txt.gz
Wind_Speed
34 34 34 34 34 35 36 36 37 35 34 29 29 32 33 33 33 32 32 32 33 33 34 35 35 36 37 38 39 40 42 43 45 47 48 50 51 52 53 54 55 55 56 58
35 34 35 36 35 35 35 35 36 36 33 29 31 33 34 34 33 33 33 33 34 35 35 36 36 37 38 39 41 42 43 45 47 48 50 51 52 53 54 54 55 57 58 59
35 34 37 38 32 33 34 33 34 35 32 30 31 32 34 34 34 33 33 34 34 35 36 36 37 38 39 41 42 43 45 47 48 50 51 52 53 54 55 56 57 58 59 60
36 36 38 32 30 31 32 32 34 34 32 31 32 33 33 33 33 33 33 34 35 35 36 37 38 39 40 42 43 45 47 48 50 51 52 53 54 55 56 57 58 59 61 62
36 37 36 32 29 29 32 32 31 32 31 31 33 34 33 33 33 32 33 33 35 36 37 37 38 40 42 43 45 46 48 49 51 52 53 54 55 56 57 58 60 61 62 64
36 36 35 29 28 29 31 30 27 30 30 31 32 33 31 31 32 32 33 34 35 36 38 39 40 42 43 45 46 47 49 50 51 52 54 55 56 58 59 60 62 63 65 67
35 35 32 28 28 29 30 28 28 30 30 30 30 30 30 30 32 32 33 35 36 38 39 41 42 43 45 46 47 48 49 51 52 53 55 56 58 59 61 62 64 65 67 69
34 35 30 28 29 29 29 30 30 30 30 29 29 29 30 31 32 33 35 36 38 39 41 42 44 45 46 47 48 49 50 51 53 54 56 58 60 61 63 65 66 68 70 71
34 32 30 31 31 30 30 31 30 30 30 30 30 31 32 33 35 36 37 38 39 41 42 43 44 45 46 47 48 49 51 52 54 56 58 60 62 63 65 67 69 71 73 74
34 31 31 31 31 31 31 31 30 30 31 31 32 32 33 35 36 37 38 39 40 41 42 43 44 45 47 48 49 51 52 54 56 58 60 62 64 66 68 70 72 74 75 76
33 31 32 32 32 32 32 32 32 32 32 33 33 34 35 36 37 38 39 39 40 41 42 44 45 46 47 49 51 53 54 56 58 60 62 64 65 68 70 72 75 76 77 78
32 32 33 33 33 33 33 33 33 33 34 34 35 36 36 36 37 38 39 40 41 42 43 44 45 47 49 51 52 54 55 57 60 62 64 66 68 70 72 74 75 77 78 80
34 33 34 33 33 34 34 34 34 34 35 35 36 36 36 37 38 39 39 40 41 42 44 45 47 49 50 52 54 56 58 60 62 64 67 69 71 73 74 74 75 77 78 80
34 34 34 33 34 34 34 35 35 35 35 35 35 35 36 37 38 39 40 41 42 43 45 46 48 50 52 54 56 58 60 62 65 67 70 72 73 75 75 76 76 76 77 78
34 34 34 34 34 34 34 34 35 35 35 35 36 36 37 37 39 40 41 42 43 45 46 48 50 52 54 56 58 60 63 65 68 70 71 73 75 76 77 78 79 78 76 75
34 34 34 34 34 34 33 33 33 34 35 35 36 37 38 39 40 41 42 43 45 46 48 50 52 54 56 58 61 63 65 68 70 71 73 75 76 78 79 79 78 77 75 74
33 34 34 34 34 33 33 33 33 34 35 36 37 38 39 40 41 42 43 45 46 48 50 52 54 56 59 61 63 65 67 69 72 74 76 77 78 79 78 77 77 75 73 71
33 33 33 33 33 33 33 34 34 35 35 36 37 38 39 40 41 43 44 46 48 50 52 54 56 59 61 63 66 68 70 72 75 76 78 78 78 77 76 75 74 71 69 66
32 33 33 33 33 34 34 34 35 36 36 37 38 39 40 41 43 44 46 48 50 52 54 56 59 61 63 66 69 71 73 76 77 77 77 77 76 75 74 72 70 67 65 62
32 32 33 33 33 34 34 35 35 36 37 38 39 40 41 43 44 46 48 50 52 54 56 58 61 63 66 69 71 73 76 77 77 77 76 75 73 72 70 67 65 63 60 57
32 32 32 33 34 34 35 35 36 37 37 39 40 41 42 44 46 48 50 51 53 56 58 61 64 67 69 71 74 76 76 76 76 75 73 71 69 67 65 63 61 58 56 53
32 32 32 33 34 34 35 36 37 38 39 40 41 42 44 46 48 50 51 53 56 58 61 64 67 69 71 73 75 76 76 75 73 71 69 67 66 64 62 60 57 54 52 50
32 32 32 33 33 34 36 37 37 39 40 41 43 44 46 48 50 51 53 56 58 61 63 66 69 71 72 74 75 74 73 71 69 67 66 65 64 61 58 56 53 52 50 48
32 33 33 34 35 35 36 37 38 40 41 43 45 47 48 49 51 53 56 58 61 63 66 69 71 72 73 73 73 71 69 67 65 64 64 62 59 57 54 51 49 48 46 44
33 34 34 35 36 36 37 38 40 41 43 45 47 48 50 52 54 56 58 61 63 65 68 70 71 71 72 71 70 68 66 64 63 61 59 57 54 52 49 47 46 44 42 41
33 34 34 35 36 37 39 40 42 44 45 47 48 50 52 54 56 58 60 63 65 67 69 69 70 71 71 69 67 64 62 60 58 56 54 51 49 47 46 44 42 41 40 38
34 35 36 37 39 40 41 43 44 46 47 49 50 52 54 56 58 60 62 64 66 67 68 69 70 69 67 65 62 59 58 55 53 51 49 47 46 44 42 41 40 39 37 36

GEFSNGP_500_meanwind_126.txt.gz
Wind_Speed
38 38 37 36 37 37 39 39 39 36 35 32 33 33 33 33 33 33 33 33 33 33 33 33 34 34 34 34 35 36 36 37 38 40 41 43 44 45 46 47 49 50 51 52
37 37 37 37 36 37 37 37 36 36 33 31 33 34 33 33 33 33 33 33 33 33 33 33 34 34 35 35 36 36 37 38 39 41 42 44 45 46 48 49 50 51 52 53
37 36 38 38 34 34 35 34 35 35 33 33 34 34 34 33 33 33 33 32 32 32 33 33 34 34 35 35 36 37 38 39 40 42 43 45 46 47 49 50 51 51 53 54
38 38 40 35 32 32 33 33 34 34 34 34 34 34 33 33 33 32 32 31 31 32 32 33 34 34 35 36 37 38 39 40 42 43 45 46 47 49 50 50 52 53 55 56
38 38 38 34 31 31 32 32 32 33 33 34 34 33 32 32 32 31 31 31 31 32 32 33 33 34 35 36 36 38 39 41 43 44 46 47 48 49 50 52 53 55 56 58
38 37 36 30 29 30 32 31 30 32 32 32 32 32 30 31 31 30 30 31 31 31 32 33 33 34 35 35 37 38 40 42 43 45 46 47 48 49 51 52 54 56 58 60
37 36 34 30 29 30 31 29 29 30 30 30 30 31 30 30 30 30 30 30 31 31 32 33 34 34 36 37 38 40 42 43 44 45 46 47 48 50 52 54 56 58 60 63
35 36 31 28 29 29 29 30 30 29 29 29 29 30 30 30 30 30 30 30 31 32 33 34 35 36 37 39 40 41 42 43 44 45 46 47 49 51 53 56 58 60 63 64
34 32 29 29 29 29 30 30 29 29 29 29 29 29 29 29 29 29 30 30 31 33 34 35 36 37 38 39 40 41 42 43 44 45 47 49 51 53 56 59 61 63 64 66
32 30 30 30 30 30 30 29 29 28 29 29 29 29 29 29 29 30 31 32 33 34 35 36 37 37 38 39 40 41 42 43 45 47 49 51 53 56 58 61 62 64 66 68
31 29 30 31 31 31 30 29 29 29 29 29 29 30 30 30 30 31 32 33 34 34 35 36 37 37 38 39 40 41 43 45 47 49 51 53 55 58 60 62 64 67 69 71
30 29 31 31 31 31 31 30 30 29 29 30 30 30 30 31 31 32 33 33 34 34 35 36 36 38 39 40 41 43 45 47 48 51 53 55 57 59 61 64 66 69 71 72
31 31 31 31 31 30 30 30 30 30 30 30 30 30 31 31 32 33 33 34 34 35 36 36 37 39 40 41 43 45 47 48 50 52 55 57 59 61 63 66 68 70 72 73
32 32 32 31 31 30 30 31 31 30 30 31 31 31 32 33 33 33 34 35 35 36 37 38 39 40 42 43 45 47 48 50 52 54 57 59 61 64 66 68 70 71 73 74
32 33 33 32 32 32 31 31 31 31 31 31 31 32 32 33 33 34 35 36 37 37 38 39 40 42 43 45 47 48 50 52 54 56 59 61 64 66 68 70 72 73 74 74
32 33 33 33 33 32 32 31 31 31 31 31 31 32 33 34 34 35 36 37 38 38 39 41 42 44 45 46 48 50 51 53 56 59 61 63 66 68 70 72 74 74 74 72
32 32 32 32 32 32 31 31 31 31 32 32 33 33 34 35 35 36 37 38 39 40 41 42 44 45 47 48 49 51 53 56 59 61 64 66 68 70 73 74 74 73 71 69
32 32 32 32 32 32 32 32 31 32 32 33 34 34 35 36 37 37 38 39 40 41 43 44 45 46 48 49 51 53 56 59 61 63 66 68 70 73 74 74 72 70 68 66
32 31 31 31 31 31 31 31 31 32 33 33 34 35 35 36 37 38 39 40 42 43 44 45 46 48 49 51 54 56 59 61 63 66 68 70 73 74 73 71 69 67 65 62
30 30 30 30 30 30 31 31 32 32 33 33 34 35 35 36 37 39 40 41 43 44 45 46 48 50 51 54 56 59 61 64 66 68 70 72 72 71 70 68 66 64 62 59
29 29 29 29 30 30 31 31 32 33 34 34 35 35 36 37 38 40 41 43 44 45 47 48 50 52 53 56 59 61 64 66 68 70 71 71 70 69 67 65 63 61 58 55
29 29 29 29 30 30 31 32 33 33 34 34 35 36 37 38 40 41 42 44 45 47 48 50 52 54 56 59 61 64 65 67 69 69 69 69 68 65 63 62 59 56 54 52
29 29 29 30 30 31 31 32 32 33 34 35 36 37 38 39 41 43 44 46 47 49 50 52 54 57 59 61 63 64 66 67 68 68 68 67 64 62 60 58 55 52 51 49
29 30 30 30 31 31 32 33 33 34 35 36 37 38 39 41 43 44 46 47 48 50 52 54 57 58 60 62 63 65 66 67 67 67 65 62 60 58 57 54 51 49 47 46
29 30 30 30 31 32 32 33 34 35 36 37 38 40 41 42 44 45 47 49 51 53 55 56 58 59 61 63 65 66 66 66 65 63 60 58 57 55 53 51 49 47 45 44
30 30 31 31 32 32 33 34 35 36 37 38 40 41 43 44 46 48 49 51 53 54 55 57 58 60 62 64 65 64 64 63 61 59 57 56 54 52 50 47 45 44 43 42
30 31 32 32 33 33 34 35 36 37 38 39 41 43 44 46 48 49 51 53 54 55 56 58 59 61 62 63 63 63 62 60 58 56 55 53 51 48 46 44 43 42 41 41

GEFSNGP_500_meanwind_132.txt.gz
Wind_Speed
41 41 41 39 38 39 40 39 38 35 35 33 35 37 37 37 36 34 34 33 33 33 33 34 34 34 34 34 35 35 35 36 36 38 39 39 40 41 43 44 45 45 46 47
41 41 41 40 38 38 38 38 37 36 35 33 35 37 38 37 36 34 33 33 33 33 33 33 33 33 33 33 34 34 35 36 37 38 38 39 40 42 43 44 45 45 46 48
41 40 41 41 38 37 36 36 37 37 33 33 35 35 36 36 35 34 33 33 33 32 32 32 33 33 33 33 34 34 35 36 36 37 38 39 40 42 43 44 44 45 47 49
41 42 43 37 35 35 35 34 35 34 33 33 34 34 35 34 33 33 32 32 32 32 32 32 33 34 34 34 34 34 35 35 36 37 38 39 40 42 43 44 45 47 49 50
42 42 41 38 34 33 34 33 32 33 32 33 33 34 33 32 32 32 32 32 32 32 32 33 33 33 34 34 34 34 34 35 36 37 38 40 41 43 44 45 46 48 49 50
42 41 41 36 33 32 33 33 29 31 31 31 32 32 30 30 31 31 31 31 31 31 32 32 33 33 33 33 33 33 34 35 37 38 39 41 42 44 45 46 47 49 50 52
42 41 39 34 32 32 33 29 29 29 29 29 30 30 29 30 30 30 30 30 31 31 32 32 32 32 32 32 33 34 35 36 38 39 40 41 43 44 45 47 48 50 51 53
42 41 37 32 31 30 30 30 29 29 28 28 29 29 29 30 30 30 30 30 30 31 31 31 31 32 32 33 34 35 36 37 38 40 41 42 43 45 46 48 49 51 52 54
39 36 33 33 31 30 30 30 28 27 27 28 28 29 29 30 30 29 29 30 30 30 30 31 32 32 33 34 34 35 36 38 39 41 42 43 44 46 47 49 51 52 54 55
39 36 35 34 32 30 29 30 29 28 27 28 28 29 29 29 29 29 30 30 30 30 30 31 32 33 33 34 35 36 38 39 40 42 43 44 46 47 49 51 52 54 55 56
38 35 35 34 33 32 31 30 29 29 28 28 28 29 29 29 29 30 30 30 30 31 31 32 33 34 35 36 37 38 39 40 41 43 44 45 47 49 50 52 53 55 56 58
36 34 35 33 32 33 32 31 30 30 30 30 29 29 30 30 30 30 30 30 31 31 32 33 33 35 36 37 38 40 40 41 43 44 45 47 48 50 52 53 55 57 59 61
36 36 36 34 33 33 33 32 32 32 31 31 31 31 30 30 30 31 31 31 32 33 33 34 35 36 37 38 39 40 41 42 44 45 46 48 50 51 52 54 56 58 60 62
36 36 36 35 34 34 33 33 32 32 32 32 32 31 31 31 31 31 32 32 33 34 35 36 36 37 38 39 40 41 43 44 45 47 48 50 51 52 54 55 57 59 61 64
36 36 36 35 34 34 33 33 32 31 31 32 32 32 32 32 32 32 33 33 34 35 36 37 38 39 40 41 42 43 44 46 47 48 50 51 52 53 55 57 59 60 62 64
35 35 34 34 33 33 32 32 32 31 31 31 32 33 33 34 34 34 34 35 35 36 37 38 39 40 41 42 43 44 46 47 48 50 51 52 53 55 57 59 61 62 64 66
35 34 33 32 32 32 32 32 32 32 32 32 32 33 34 34 34 34 35 36 37 37 38 39 40 41 42 43 45 46 47 48 50 51 52 53 56 57 59 61 63 65 66 67
34 33 32 32 32 32 32 33 32 32 33 33 33 33 34 34 35 36 36 37 38 38 39 40 41 42 43 45 46 47 48 49 51 52 53 55 57 59 62 64 66 67 68 68
33 33 32 32 31 32 32 33 32 32 33 33 33 34 34 35 35 36 37 38 38 39 40 41 42 43 45 46 47 48 49 51 52 53 55 57 59 62 64 66 67 68 67 66
32 32 31 31 31 31 32 32 32 32 33 33 34 34 34 35 36 36 37 38 39 40 41 42 43 45 46 47 48 50 51 53 54 55 58 60 62 64 66 67 67 66 65 63
31 31 31 31 32 32 32 33 33 32 32 33 33 34 34 35 36 37 38 39 40 41 42 44 45 46 48 49 50 51 53 55 56 58 60 62 64 65 66 66 65 64 62 61
30 31 31 31 32 32 32 33 33 33 33 34 34 35 36 36 37 38 39 40 41 42 44 45 46 48 49 50 52 54 55 57 58 60 62 64 65 66 65 65 64 62 61 59
31 31 31 31 32 32 32 33 33 34 34 35 36 36 37 38 38 39 40 41 42 43 45 46 48 49 50 52 54 56 57 59 60 62 64 65 65 65 65 63 61 59 58 55
31 31 31 31 31 32 33 33 34 34 35 36 36 37 38 38 39 40 41 42 43 44 46 47 49 50 52 54 56 58 59 60 62 63 64 64 64 63 62 60 58 56 53 52
29 29 30 30 30 31 32 33 33 34 35 35 36 37 38 39 40 41 42 43 44 46 47 48 50 52 54 56 58 59 59 60 61 62 62 62 62 60 58 57 54 52 51 50
29 29 30 30 31 31 32 33 34 35 35 36 37 38 39 40 41 42 43 44 46 47 49 51 52 54 56 57 58 58 59 60 60 61 61 60 59 58 55 53 51 50 49 48
30 30 31 31 31 32 33 34 35 35 36 37 38 39 40 41 42 43 44 46 47 49 51 53 54 56 56 56 57 58 59 60 60 60 59 58 57 54 52 50 49 48 47 47

GEFSNGP_500_meanwind_138.txt.gz
Wind_Speed
45 43 43 42 42 42 42 40 39 35 33 30 30 30 31 30 30 29 29 29 28 28 28 28 29 29 30 30 30 30 30 31 31 31 32 32 33 34 35 36 37 38 38 39
46 44 44 44 41 41 40 38 37 35 33 30 31 32 32 31 30 29 28 28 28 28 28 28 29 29 29 29 30 30 30 30 31 31 31 32 33 34 35 36 37 38 39 40
46 45 45 46 42 40 39 38 36 34 29 29 32 32 31 31 30 29 28 29 28 28 29 28 29 29 29 29 29 30 30 30 31 31 31 32 33 34 35 35 37 38 39 40
45 46 48 41 39 39 37 36 35 33 30 30 30 31 31 31 31 30 30 30 29 29 29 29 29 29 29 29 29 30 31 31 31 31 32 32 33 34 35 36 37 38 40 41
46 47 46 42 39 37 37 35 33 33 31 31 31 32 31 30 31 30 30 30 29 29 29 29 29 29 29 29 30 30 31 31 31 32 32 32 33 34 35 36 37 39 40 42
45 46 45 39 37 36 37 36 32 33 32 32 33 32 28 29 30 30 30 30 29 29 29 29 29 29 30 30 30 30 31 31 32 32 32 33 33 34 35 37 38 40 41 43
44 43 42 38 36 37 37 30 29 31 32 32 32 30 28 29 30 29 30 30 30 30 29 29 29 30 30 30 30 31 31 32 32 32 32 33 34 35 36 38 39 41 42 44
44 42 38 36 36 36 32 30 28 29 31 31 30 30 29 29 28 29 29 30 30 30 30 30 30 30 31 31 31 31 32 32 33 33 33 34 35 36 38 39 40 42 44 45
42 39 35 35 34 32 32 32 31 30 30 29 29 29 28 27 27 28 29 29 29 29 29 29 30 30 31 31 31 31 32 32 33 34 34 35 36 37 39 40 42 44 45 46
40 37 35 34 32 31 30 30 30 29 29 29 28 28 28 27 27 28 28 28 28 28 29 29 30 30 31 31 31 32 32 33 34 34 35 36 37 38 40 42 44 45 46 47
38 35 35 34 32 31 31 30 29 29 28 28 28 28 27 27 27 27 27 28 28 28 29 29 30 30 31 31 32 32 33 33 34 35 36 37 39 40 42 44 45 46 47 48
36 33 33 32 31 31 31 30 29 29 29 28 27 27 27 27 27 27 27 27 28 28 29 30 30 31 31 32 32 33 34 35 36 37 38 39 40 42 43 45 46 47 48 50
36 35 34 33 33 32 31 30 30 30 29 28 27 27 27 27 27 27 27 27 28 29 30 30 31 31 32 32 33 34 35 36 37 38 39 40 42 43 45 46 47 48 50 51
37 37 36 34 33 32 31 30 30 30 29 28 27 27 27 27 27 27 27 28 28 29 30 31 31 32 32 33 34 35 36 37 38 39 40 42 43 44 46 47 48 49 51 53
36 35 35 34 33 32 31 31 31 30 29 29 29 29 28 28 28 28 28 29 29 30 30 31 32 32 33 34 35 36 37 38 39 40 42 43 44 46 47 48 49 51 52 55
35 35 35 34 32 32 32 31 31 30 29 29 29 30 29 29 29 29 29 29 30 31 31 32 33 33 34 35 36 37 38 39 41 42 43 44 46 47 48 49 51 53 55 57
36 36 35 34 33 32 32 32 32 31 30 30 30 30 30 30 30 30 30 30 31 32 33 33 34 34 35 36 37 38 39 40 42 43 44 46 47 48 49 51 53 55 57 59
35 34 34 33 33 32 31 31 31 32 32 31 31 31 31 32 31 31 31 31 32 33 33 34 34 35 36 37 38 40 41 42 43 44 46 47 48 50 51 53 55 57 59 61
33 33 32 32 32 32 31 31 31 31 32 31 32 32 32 32 32 31 31 32 32 33 33 34 36 36 37 39 40 41 42 43 44 46 47 48 50 51 53 55 57 59 61 62
32 31 30 30 30 30 30 30 30 31 31 32 32 32 32 32 32 32 32 33 33 34 35 36 37 37 38 39 40 42 43 45 46 47 48 50 51 53 55 57 59 60 61 62
32 31 30 30 30 30 29 29 30 30 31 32 32 32 32 32 32 32 33 34 34 35 36 37 37 38 39 40 41 43 44 46 47 49 50 51 53 55 57 59 60 60 61 60
32 31 30 29 29 29 29 30 30 30 31 31 32 32 32 32 32 33 33 34 35 36 37 37 38 39 40 41 42 44 46 47 49 50 52 53 55 57 58 59 59 59 59 58
31 30 29 29 29 29 29 29 29 29 30 31 31 31 31 32 32 33 33 34 35 36 37 38 39 40 41 42 44 46 48 49 51 52 54 55 57 58 59 59 59 58 57 56
30 30 29 29 29 29 28 28 29 29 30 30 31 31 31 31 32 33 34 35 35 36 37 38 40 41 43 44 46 48 49 51 52 53 55 57 58 59 59 58 57 57 56 55
29 29 29 29 29 28 28 28 29 30 30 31 31 31 31 32 32 33 34 36 37 38 39 40 41 43 44 46 48 49 51 53 54 55 57 58 59 58 57 57 56 56 54 53
28 28 28 28 27 28 28 29 29 30 30 31 32 32 32 33 34 35 36 37 38 39 40 42 44 45 46 48 50 51 53 54 56 57 58 58 57 56 55 55 54 53 51 50
28 28 28 28 28 28 29 30 30 30 30 31 32 33 33 34 34 35 36 38 40 41 42 44 45 46 48 50 51 52 53 55 56 57 56 55 54 54 54 53 52 51 49 48

GEFSNGP_500_meanwind_144.txt.gz
Wind_Speed
49 49 49 49 49 49 51 50 49 45 42 38 36 34 34 33 32 32 31 31 31 32 32 32 32 32 32 32 32 32 32 32 33 33 33 33 34 34 34 35 35 36 36 37
48 48 49 50 49 48 49 49 48 46 43 38 37 36 36 35 34 33 32 32 32 32 32 31 31 31 31 31 32 32 32 33 33 33 33 33 34 34 34 35 35 36 37 38
46 48 50 52 48 47 47 46 46 46 41 40 39 37 36 35 35 34 33 32 32 32 31 31 31 31 31 31 31 31 32 32 32 33 33 33 33 34 34 34 35 36 37 38
46 47 50 46 45 46 45 45 45 44 41 40 39 38 37 37 37 36 35 33 33 32 31 31 31 31 31 31 31 31 32 32 32 32 32 33 33 33 33 34 35 36 37 38
45 47 47 45 44 44 44 44 43 42 41 40 40 41 40 38 38 37 35 34 34 33 32 32 31 31 31 31 31 31 32 32 32 32 32 32 33 33 34 35 36 37 38 39
46 45 46 42 41 41 43 43 39 39 39 39 41 42 38 37 37 36 36 35 34 33 33 32 31 31 31 31 31 31 32 32 32 32 32 33 33 34 35 35 36 37 38 39
46 44 44 41 39 40 41 37 36 37 37 39 40 39 36 37 37 36 36 35 34 33 32 32 32 32 32 31 31 32 32 32 32 32 33 33 34 35 35 36 37 38 39 40
46 45 41 39 40 38 35 34 35 35 36 38 38 38 37 37 36 35 35 34 33 32 32 32 32 32 32 32 32 32 32 32 32 33 33 34 34 35 36 37 38 38 39 40
43 41 39 39 38 37 36 35 36 36 35 36 37 37 37 37 36 34 34 34 33 32 32 32 32 32 32 32 32 32 32 32 33 33 34 34 35 36 36 37 38 39 40 41
42 41 40 37 36 35 36 36 37 37 36 35 35 35 35 35 35 34 34 33 32 32 32 32 31 32 32 32 32 33 33 33 33 34 34 35 36 36 37 37 38 40 41 42
44 42 40 38 35 34 34 35 36 37 36 34 33 33 33 33 33 33 33 32 32 31 31 31 32 32 32 32 32 33 33 33 33 34 35 35 36 36 37 38 39 40 41 43
43 42 41 38 36 35 35 35 35 35 35 35 33 32 32 32 32 32 31 31 31 30 30 31 31 32 32 32 32 33 33 33 34 34 35 36 36 37 38 39 40 41 42 44
42 42 41 39 37 35 35 35 35 34 34 34 33 33 32 32 31 31 31 31 31 31 30 31 31 32 32 32 33 33 34 34 35 35 36 36 37 38 39 40 41 42 43 45
42 43 42 41 39 35 34 34 34 34 33 33 33 33 32 31 31 31 31 31 31 31 31 31 32 32 32 32 33 33 34 34 35 36 36 37 38 38 39 41 42 43 45 46
41 42 40 40 38 35 34 34 33 33 33 32 32 32 32 32 31 31 31 31 31 31 31 31 31 32 32 32 33 34 34 35 35 36 37 37 38 39 40 41 43 44 45 47
40 42 41 38 36 34 34 34 33 32 31 31 32 32 33 32 31 31 31 31 31 30 31 31 31 32 32 33 33 34 34 35 35 36 37 38 38 39 41 42 43 44 46 47
38 39 39 37 36 34 33 33 33 32 31 31 32 33 33 32 31 31 30 30 30 30 30 30 30 31 32 32 33 34 34 35 35 36 37 38 39 40 41 42 44 45 46 48
37 37 39 38 37 36 34 33 33 33 32 32 32 33 33 32 31 31 31 30 30 29 29 30 30 31 32 33 34 34 34 35 36 37 38 39 40 41 42 43 45 46 48 50
36 37 38 38 37 36 35 33 32 31 31 31 31 32 32 32 31 31 30 30 30 30 30 31 31 32 33 33 33 34 34 35 36 37 38 39 40 42 43 44 46 48 50 52
35 37 37 37 35 34 34 34 32 31 31 30 30 31 32 32 32 31 31 31 31 31 31 32 33 33 33 33 34 34 35 36 37 38 39 40 42 43 44 46 48 50 51 53
34 35 35 35 33 33 34 33 32 31 31 31 31 30 31 32 32 31 31 31 31 32 32 33 33 33 33 34 34 35 35 36 37 39 40 41 43 44 46 48 50 51 53 54
33 34 34 34 33 32 32 32 31 30 31 31 31 31 31 31 31 31 31 32 33 33 33 33 33 33 34 34 35 35 36 37 39 40 41 43 44 46 48 50 51 52 53 54
33 33 34 34 33 32 31 30 29 30 30 30 30 30 30 30 31 31 31 32 33 33 33 33 34 34 34 35 36 36 37 39 40 41 43 45 46 48 49 51 52 53 54 55
32 32 33 33 33 33 31 30 29 29 30 30 30 30 30 31 31 31 32 32 33 33 33 33 34 35 35 36 37 38 39 40 42 44 45 47 48 49 51 51 52 53 54 54
29 31 32 33 34 33 31 30 30 30 30 30 30 30 30 30 31 31 32 32 32 32 32 33 33 34 35 36 38 39 41 42 44 46 47 49 50 51 51 52 53 54 54 53
29 30 30 31 31 31 31 30 29 28 29 30 30 29 30 30 30 31 31 31 32 32 33 33 34 35 37 38 39 41 42 44 46 48 49 50 50 51 52 53 54 54 53 52
28 27 27 28 28 28 28 28 28 28 28 29 30 30 30 30 30 30 31 32 33 33 34 35 36 37 39 40 42 43 45 46 48 49 49 50 51 51 53 53 53 52 52 52

GEFSNGP_500_meanwind_150.txt.gz
Wind_Speed
46 45 44 46 49 49 51 50 50 48 46 43 40 39 38 37 36 36 35 35 35 35 35 34 34 34 34 33 33 33 32 32 32 33 34 34 34 34 34 34 34 35 35 35
46 46 46 47 48 48 48 49 49 48 47 43 41 40 40 38 36 36 36 35 35 34 34 34 34 33 33 33 33 33 33 33 33 33 34 34 34 34 34 34 34 35 35 35
46 47 47 49 48 46 46 46 47 47 44 42 42 41 40 39 38 37 36 36 35 34 34 34 33 33 33 33 33 33 33 33 33 33 33 34 34 34 34 34 34 35 35 35
45 47 48 46 45 45 45 44 44 45 44 43 43 42 42 42 41 39 38 36 35 34 34 34 34 34 34 34 33 33 33 33 33 33 33 34 34 34 34 34 34 35 35 35
45 46 45 43 43 43 43 43 42 44 44 44 44 44 43 42 41 41 40 38 37 35 35 35 35 35 34 34 34 33 33 33 33 33 33 33 33 33 34 34 35 35 35 36
43 44 45 42 42 42 44 43 42 43 44 44 45 45 41 41 41 42 42 41 39 38 37 37 37 36 35 34 34 33 33 33 33 33 33 33 33 33 34 34 35 35 35 36
41 43 43 41 41 41 44 43 41 41 42 42 43 43 41 41 42 43 43 42 40 40 39 38 38 37 35 34 34 33 33 33 33 33 33 33 33 34 34 35 35 35 36 37
40 41 39 39 39 40 41 41 42 42 42 42 42 43 44 43 42 42 43 42 42 41 39 38 38 37 36 35 34 34 33 33 33 33 33 33 34 34 35 35 35 36 37 37
40 39 37 38 38 39 39 40 41 42 43 43 42 42 42 42 42 42 43 42 42 40 39 38 38 37 36 35 35 34 34 33 33 33 33 33 34 34 35 35 35 36 37 37
39 39 39 38 39 39 39 39 39 41 41 41 42 42 41 40 41 42 42 42 41 40 39 38 38 37 36 36 35 34 34 34 33 33 33 34 34 35 35 35 36 36 37 38
40 39 38 38 39 39 39 41 40 39 40 39 39 40 40 39 39 40 41 41 40 39 38 38 37 36 36 35 34 34 34 33 33 33 33 34 34 35 35 35 36 37 37 38
38 38 39 39 40 39 39 40 40 40 39 39 38 39 39 39 39 39 39 40 39 38 37 36 36 36 35 35 34 34 34 34 34 34 34 34 35 35 35 36 36 37 38 39
40 40 40 40 41 40 39 38 38 39 38 38 38 38 38 38 37 37 38 37 37 37 37 36 35 35 34 34 34 33 33 33 34 34 34 35 34 35 35 35 36 37 38 39
42 41 40 40 41 41 40 38 37 37 38 37 36 36 36 35 35 34 35 36 35 34 34 33 33 33 33 33 33 33 33 33 33 34 34 34 34 35 35 36 37 38 39 39
41 41 40 40 40 40 41 39 38 38 38 38 37 35 34 33 33 32 33 33 33 32 32 32 32 32 32 33 32 32 32 33 33 33 34 34 34 35 36 36 37 38 39 40
40 41 41 41 40 39 39 39 39 38 37 36 35 34 33 32 32 31 31 31 31 31 31 31 32 32 32 32 32 32 32 32 33 33 33 34 35 35 36 37 38 39 40 40
39 40 40 41 41 40 40 39 39 37 37 36 34 33 33 32 32 31 31 31 31 31 31 31 31 31 31 31 32 32 32 32 33 33 33 34 35 36 37 38 38 39 40 41
37 39 40 41 41 41 40 38 38 37 35 35 34 33 33 33 32 32 32 31 31 31 31 31 30 31 31 30 31 31 32 32 32 33 34 35 36 37 37 38 39 40 41 42
36 38 39 40 40 40 39 38 37 37 36 34 34 34 33 33 32 32 31 31 30 30 31 30 30 30 30 30 30 31 31 32 32 33 34 35 36 37 38 38 39 40 41 42
34 37 38 38 39 40 39 37 36 36 36 35 35 33 33 33 32 31 31 30 30 30 30 30 30 30 30 30 31 31 31 32 32 33 34 35 36 37 38 38 39 40 42 43
33 35 36 37 38 39 38 37 36 36 35 35 34 34 34 33 32 32 31 30 30 30 30 31 30 30 30 31 31 31 31 32 33 33 35 35 36 37 37 38 40 41 42 43
32 34 35 35 36 36 35 36 36 35 34 34 34 33 33 33 32 31 30 30 29 29 29 30 30 30 30 31 31 31 31 32 33 34 35 35 36 36 38 39 41 42 43 44
29 32 33 34 34 35 35 35 36 36 35 35 35 35 35 33 32 32 31 31 30 30 29 30 30 31 31 31 31 32 32 33 33 34 35 35 36 37 39 40 41 43 44 45
27 30 32 33 34 35 34 34 34 34 34 34 34 34 34 33 31 31 31 30 30 29 29 30 30 31 31 32 32 32 32 32 33 34 35 36 37 38 40 41 42 43 44 45
26 29 31 33 33 33 33 33 33 33 33 33 33 33 33 32 31 30 30 30 29 29 30 30 31 31 31 31 31 32 32 32 33 34 35 37 38 40 41 42 43 44 45 46
25 29 30 31 32 32 32 32 32 31 31 31 30 30 30 30 30 30 30 30 30 29 30 30 30 31 31 31 31 32 33 33 35 36 37 38 40 42 43 43 44 45 46 47
24 26 28 29 30 31 32 32 31 30 30 30 30 30 29 29 29 30 29 29 29 29 29 29 29 30 30 31 32 32 33 35 36 37 38 40 42 43 43 44 45 46 47 48

GEFSNGP_500_meanwind_156.txt.gz
Wind_Speed
42 42 41 41 43 45 49 51 51 49 49 46 42 43 43 42 42 42 42 42 41 41 43 43 43 43 42 41 41 40 40 39 39 38 38 37 37 36 36 36 35 35 35 35
42 43 44 43 44 44 46 46 48 49 48 46 44 44 43 43 40 40 40 41 41 41 42 42 43 43 42 41 41 40 40 39 38 38 38 37 36 36 36 36 35 35 35 35
42 43 46 44 42 43 44 45 46 49 47 47 47 46 44 42 42 41 41 41 40 40 41 42 42 43 42 42 41 40 39 39 38 38 37 36 36 36 36 36 36 36 36 36
42 42 45 42 39 41 44 45 46 47 47 48 47 45 43 42 42 41 40 41 41 41 41 42 42 42 41 40 40 39 39 38 38 37 36 36 36 36 36 36 35 36 36 36
41 42 42 42 40 38 41 44 46 47 48 48 48 47 44 43 42 40 40 40 42 42 41 41 41 41 41 40 39 39 39 38 37 37 36 36 36 36 36 36 36 36 36 36
39 41 41 39 39 38 40 42 44 47 49 48 48 48 44 43 43 42 42 42 42 42 42 41 41 41 40 40 39 38 38 38 37 36 36 36 35 35 35 35 36 36 36 36
36 37 38 37 37 38 39 39 41 45 47 47 48 47 45 44 43 44 44 44 43 42 42 41 41 41 40 39 38 38 37 37 37 37 36 36 35 35 35 35 35 36 36 36
35 36 35 35 35 37 38 38 39 43 45 46 46 46 46 45 43 43 44 44 44 43 43 42 41 41 40 39 38 38 38 37 37 36 36 36 35 35 35 35 35 36 36 36
33 34 33 35 36 37 37 38 38 41 44 46 46 44 44 45 44 42 42 43 43 44 43 43 41 39 39 39 38 38 38 37 37 37 36 36 35 35 35 35 35 35 36 36
34 33 33 35 37 37 37 37 38 40 42 45 46 46 44 43 43 43 43 43 43 44 44 43 42 40 39 38 38 38 38 37 37 37 36 36 35 35 35 35 35 35 35 35
35 35 36 36 37 37 37 38 38 39 41 43 45 45 44 43 42 42 43 43 43 43 43 43 43 41 39 39 38 38 38 37 36 36 36 36 35 35 35 34 34 35 35 35
35 36 38 38 38 38 39 38 38 39 40 41 43 43 43 42 42 42 43 43 41 42 42 42 42 41 40 39 39 38 37 36 35 35 35 35 35 35 34 34 34 34 35 35
35 37 39 39 38 39 39 40 40 39 40 40 41 42 41 41 40 40 42 42 41 41 41 41 41 41 40 39 39 39 37 37 36 35 35 35 35 35 34 34 34 34 35 36
35 37 39 39 40 41 41 40 41 40 39 40 40 40 40 39 39 39 40 41 42 42 43 42 41 40 39 39 39 39 38 37 37 36 35 34 34 34 34 34 34 34 35 36
34 37 38 39 40 41 41 40 41 41 41 41 41 41 40 40 40 40 41 41 41 41 41 41 41 40 39 38 38 38 37 37 36 35 35 35 34 34 34 34 34 35 36 36
34 35 37 39 40 41 41 40 40 40 41 42 42 41 40 40 41 41 40 40 40 39 39 39 39 39 38 38 37 37 36 36 35 34 34 34 35 35 34 34 35 35 36 36
36 36 36 38 39 40 41 40 38 38 39 41 41 41 40 38 39 40 41 40 39 39 39 39 38 37 37 37 37 36 36 35 35 34 34 35 35 34 33 34 35 35 36 37
35 36 36 37 38 39 40 40 39 37 38 40 40 40 39 38 37 37 39 39 39 38 38 37 37 37 37 37 36 35 34 34 34 33 34 34 33 33 34 34 35 36 36 36
33 33 33 34 36 36 37 37 37 37 37 37 38 38 37 36 35 35 37 37 37 37 36 36 36 36 36 36 35 35 34 33 33 33 33 33 33 33 34 34 35 36 36 37
29 29 30 31 33 35 35 35 35 36 37 36 36 36 35 34 33 34 35 36 35 35 35 35 35 34 34 34 33 33 33 32 32 32 33 33 33 33 34 34 35 36 36 37
27 27 28 29 31 32 32 33 34 35 35 35 35 35 34 33 33 33 34 36 35 35 35 34 33 32 32 32 32 32 32 31 31 32 32 32 32 33 34 34 35 36 36 36
24 25 25 26 28 30 31 32 33 33 33 34 35 35 34 34 33 33 33 34 34 34 34 33 33 32 32 32 31 30 30 31 31 32 32 32 32 33 33 34 35 35 36 36
22 23 23 24 27 29 31 31 32 32 33 33 34 33 33 32 32 32 32 32 32 32 32 31 31 31 31 30 29 30 31 32 32 31 31 32 32 33 34 34 35 35 36 37
21 23 23 24 26 28 29 30 31 32 32 33 33 32 32 32 32 33 33 33 32 31 31 31 31 30 29 29 30 30 31 31 31 31 31 32 32 33 33 34 34 35 36 37
19 20 22 23 25 26 28 30 30 31 31 32 32 31 31 32 32 32 32 32 32 31 31 31 31 31 31 30 30 30 31 31 31 31 31 31 31 31 32 33 34 35 37 38
18 19 20 22 23 25 27 29 30 30 30 30 31 31 31 32 32 32 32 32 32 32 31 30 30 30 29 30 30 31 31 30 30 30 30 30 30 31 32 33 35 36 37 39
19 20 20 21 22 24 26 28 29 29 29 28 29 30 30 31 31 31 31 31 31 31 30 30 30 29 30 30 30 30 30 30 30 30 30 31 32 33 34 35 36 37 38 40

GEFSNGP_500_meanwind_162.txt.gz
Wind_Speed
36 38 41 42 43 44 45 46 47 45 44 41 41 42 42 43 43 43 43 44 44 45 46 47 47 46 45 45 45 44 44 43 42 42 42 42 42 42 41 41 40 40 39 40
36 37 40 43 42 44 44 44 45 46 45 42 42 42 42 43 44 43 43 42 43 43 44 45 45 46 46 45 44 43 43 43 43 42 42 42 42 42 42 41 40 40 40 39
35 36 39 42 40 42 43 43 43 46 46 44 44 44 44 43 44 44 43 43 43 43 43 43 43 44 44 44 44 43 43 42 43 42 42 42 41 41 41 41 40 40 39 38
35 36 38 36 37 39 42 42 44 44 45 46 45 45 47 47 45 45 44 43 42 43 43 43 43 43 43 43 43 43 42 42 42 42 42 42 41 41 41 40 39 39 38 37
34 36 36 34 35 36 39 41 42 44 45 46 46 46 47 49 48 46 45 44 43 43 44 44 44 43 42 43 43 43 42 42 42 42 42 42 41 41 41 40 39 38 37 36
32 34 34 32 32 34 37 39 40 42 44 46 47 47 46 47 47 46 46 46 46 45 46 46 46 45 43 42 41 41 42 42 42 43 43 42 41 41 40 38 37 37 37 37
30 31 32 30 31 32 34 35 38 41 42 44 46 47 46 46 45 45 45 44 45 45 46 46 46 45 44 43 42 42 42 43 43 42 42 41 41 40 38 37 37 37 37 37
29 30 29 29 31 33 33 36 38 39 41 43 45 47 46 47 46 46 45 44 44 44 44 45 45 45 45 44 43 43 43 43 43 42 41 41 40 38 36 36 36 36 37 37
30 29 28 29 30 32 34 36 38 38 39 41 44 46 47 47 47 46 46 46 45 45 45 45 45 44 44 44 44 44 43 42 42 41 40 39 37 36 36 36 35 36 36 36
30 29 28 29 30 32 35 37 37 38 38 39 42 45 47 48 47 46 45 46 45 45 46 45 45 45 44 44 44 43 43 42 42 41 40 38 37 36 35 35 35 35 35 35
30 29 30 30 31 32 34 36 38 39 38 38 40 44 47 48 48 47 46 46 46 45 44 44 45 46 44 44 44 43 42 41 40 39 38 37 36 35 34 34 34 34 34 34
29 29 33 33 33 34 34 36 38 39 38 39 40 42 45 48 49 48 48 47 46 46 45 44 45 45 44 44 44 43 42 41 40 38 37 36 35 35 34 34 33 34 34 34
29 30 33 34 35 36 36 37 38 39 39 39 40 42 44 46 48 48 48 48 48 46 45 45 46 45 45 44 42 42 42 41 39 38 37 36 35 34 34 33 33 33 33 34
30 30 31 32 34 36 37 38 39 39 40 40 40 41 43 45 46 47 48 48 48 47 46 45 45 44 44 43 42 41 41 41 40 39 38 37 35 35 34 34 34 33 34 35
30 31 30 30 32 35 37 38 39 39 40 40 40 41 42 44 45 46 47 48 48 47 46 46 44 43 43 43 42 42 40 39 38 38 37 37 35 35 35 34 34 34 34 35
30 31 31 31 32 35 37 38 39 39 39 39 39 40 42 42 43 44 45 46 47 47 46 46 45 44 43 43 42 41 41 40 39 38 37 37 36 35 34 35 35 34 35 35
29 30 31 31 32 33 36 38 39 39 40 39 38 38 40 42 42 42 44 45 46 47 46 47 46 45 43 42 42 41 40 40 39 38 37 36 36 35 35 35 35 34 34 34
27 29 30 31 32 33 34 37 38 39 39 39 38 38 39 40 41 41 42 43 44 45 45 45 45 45 44 44 43 41 40 40 39 38 37 37 36 35 35 34 33 33 33 33
26 27 28 28 29 29 31 34 36 37 38 38 37 36 36 37 39 40 41 41 41 42 43 44 44 44 44 43 42 41 40 40 39 38 38 37 36 35 34 34 33 32 33 33
24 25 26 26 27 27 27 29 32 34 35 35 35 36 36 36 38 39 40 40 40 40 41 41 42 42 42 41 40 39 39 38 38 38 37 37 36 35 34 33 33 32 33 33
22 23 23 24 24 24 25 26 29 31 32 32 33 35 35 35 36 37 37 38 38 39 39 39 39 40 39 39 38 38 38 37 37 36 35 35 34 34 33 33 33 32 32 32
21 21 21 21 21 22 23 25 27 29 29 29 30 32 33 34 34 35 35 36 36 37 37 38 39 39 38 37 37 37 36 36 35 34 34 33 33 32 32 32 32 32 32 32
21 20 20 20 19 20 23 24 26 27 27 28 29 30 31 33 33 34 34 35 35 36 36 36 37 38 37 36 35 35 34 34 33 33 33 32 31 31 31 32 32 31 31 31
19 19 19 19 19 19 19 22 24 25 26 26 27 28 29 31 32 33 33 34 34 34 35 35 35 35 35 35 35 34 34 33 33 32 31 31 31 31 32 31 31 30 30 30
18 18 18 18 18 19 19 20 21 23 24 24 25 26 28 29 31 33 34 33 33 33 34 35 34 34 34 34 33 33 32 32 31 30 31 31 31 31 30 30 29 29 29 29
17 17 16 17 17 19 20 20 21 21 22 23 25 26 27 28 29 31 31 31 31 31 32 32 32 32 32 31 31 31 31 31 31 30 30 30 29 29 29 29 29 28 28 28
15 15 15 16 17 18 20 20 21 21 21 22 23 25 25 26 28 28 29 28 28 29 30 30 30 30 29 29 30 30 30 30 30 30 30 29 29 28 28 28 28 28 28 29

GEFSNGP_500_meanwind_168.txt.gz
Wind_Speed
34 34 35 37 38 40 44 46 48 48 47 42 41 42 43 43 43 46 47 48 49 50 50 51 53 53 53 53 53 53 53 52 50 49 49 48 47 46 46 45 44 43 42 42
32 33 35 37 36 38 42 44 46 47 46 42 41 42 43 43 44 45 47 47 48 49 49 50 52 53 53 53 53 53 53 52 51 50 49 48 48 47 46 45 44 44 43 42
32 32 35 36 34 36 38 40 43 45 44 43 43 43 43 44 44 45 47 47 47 48 48 49 50 52 52 52 53 53 53 53 52 51 50 49 49 48 46 46 45 44 44 44
34 34 36 32 32 34 35 38 40 43 43 44 45 45 44 44 45 46 47 47 48 48 47 47 49 50 51 51 52 52 52 52 52 52 51 50 49 48 47 46 46 45 45 45
34 35 34 32 32 32 34 35 38 41 43 44 45 46 45 44 45 46 47 47 47 49 49 48 48 49 50 51 51 51 51 52 52 52 51 51 49 48 47 47 46 46 45 45
34 35 34 30 31 32 33 34 35 38 42 44 46 46 45 46 46 46 47 48 48 49 49 49 48 48 48 49 50 50 50 50 51 51 51 50 49 49 48 48 47 47 46 45
34 35 33 30 31 32 33 33 35 36 39 42 45 45 44 46 46 47 47 48 49 50 49 49 48 48 48 49 50 50 49 49 49 50 49 49 49 49 48 48 48 47 45 44
35 35 32 29 30 32 32 33 36 37 38 39 41 41 42 44 45 46 48 48 49 50 49 49 50 49 48 49 50 50 50 49 48 48 48 48 47 47 48 47 47 46 45 43
35 33 31 30 31 32 32 33 34 36 37 39 40 40 42 43 44 45 47 48 48 49 50 51 51 50 50 49 49 49 49 49 48 47 47 46 46 46 46 46 45 45 44 43
34 31 31 31 32 32 33 33 34 36 38 39 40 39 40 41 43 44 46 47 48 49 49 50 51 51 51 51 50 49 48 48 48 47 47 46 46 46 45 44 44 43 42 42
34 32 31 31 32 33 34 34 34 35 37 38 38 38 39 40 41 42 45 46 47 48 49 49 51 52 51 50 50 49 48 48 48 49 48 47 46 45 45 43 42 41 41 41
32 31 32 31 32 34 35 35 35 36 36 38 38 37 37 39 40 42 44 46 47 46 47 49 49 50 51 50 49 49 48 48 49 49 49 48 47 46 45 44 42 42 41 40
31 31 32 31 32 34 36 36 36 37 37 38 38 37 37 38 39 42 44 45 46 45 46 48 49 50 51 51 51 50 49 49 49 49 49 48 47 46 44 43 42 41 40 39
30 30 31 31 32 33 34 35 36 37 38 39 39 38 38 39 39 40 42 45 46 46 47 47 48 49 51 51 50 50 50 49 49 49 48 47 46 44 43 42 41 40 39 37
30 31 30 30 31 31 32 34 35 36 37 38 39 39 39 40 40 40 41 42 45 46 46 47 47 48 50 51 51 50 49 48 47 47 46 45 45 44 42 41 40 39 37 36
30 31 31 30 30 30 31 32 33 34 36 37 37 37 38 39 39 39 40 40 42 45 46 46 46 46 47 49 49 48 48 48 46 46 45 44 43 43 41 40 39 38 36 35
30 29 29 29 29 29 30 31 32 33 34 36 36 37 37 38 38 39 40 40 40 42 44 44 44 45 45 46 47 47 46 46 45 44 44 43 42 41 40 40 39 37 36 36
27 27 27 27 27 27 28 29 29 30 31 33 35 36 36 37 38 38 39 40 41 40 42 43 44 45 45 45 45 45 45 44 44 44 43 42 42 41 40 39 38 37 36 35
26 26 26 27 27 27 27 28 28 29 30 32 33 34 35 36 36 37 38 39 41 42 42 43 43 44 45 45 43 43 43 43 43 42 41 40 40 39 38 38 37 36 34 34
25 25 26 27 27 26 26 27 28 28 29 30 31 33 33 33 35 36 37 37 39 41 42 43 43 42 44 44 44 44 44 43 43 42 41 40 39 38 36 36 36 35 34 33
23 24 25 25 26 26 26 26 26 27 27 29 30 31 31 31 32 33 33 34 35 38 41 42 41 41 41 43 44 43 42 41 41 41 41 40 39 38 37 36 35 34 34 33
23 23 24 24 25 25 24 24 24 25 25 26 27 29 29 29 29 30 31 32 33 35 38 40 40 40 39 40 40 39 40 40 40 41 41 40 40 38 37 35 34 33 33 33
23 23 23 23 22 22 23 23 23 23 23 24 24 25 26 27 27 28 29 30 31 33 35 37 39 38 38 38 38 37 37 38 38 39 39 39 38 37 35 35 34 33 32 32
22 23 22 21 20 20 21 22 21 21 22 22 23 24 24 24 25 26 27 27 29 30 32 34 35 35 34 34 34 34 34 35 35 35 36 36 36 35 35 34 34 34 32 31
22 22 21 20 19 19 19 19 19 19 20 20 21 21 22 23 23 23 24 25 26 27 28 30 31 31 31 32 32 32 32 32 32 32 32 33 32 32 32 32 32 33 32 31
21 21 20 19 18 18 18 18 19 19 19 19 20 20 21 21 22 22 22 22 23 25 26 27 28 28 29 29 30 31 31 31 31 31 31 31 31 31 30 30 30 30 31 30
20 19 19 18 17 17 17 18 18 18 18 18 18 19 20 20 20 21 21 21 22 23 24 25 26 26 27 28 29 29 29 30 30 30 29 29 29 29 29 29 29 29 29 29

GEFSNGP_500_meanwind_174.txt.gz
Wind_Speed
32 32 33 33 33 34 36 37 40 40 40 38 38 39 39 40 41 41 42 43 44 46 47 48 51 53 55 56 57 58 57 57 56 55 54 54 53 52 51 51 50 49 48 47
32 33 34 35 33 34 35 36 38 39 40 39 41 40 40 40 42 42 42 44 44 46 47 49 50 52 54 55 55 56 57 55 55 55 55 54 54 53 53 52 51 51 50 49
33 33 35 35 32 33 34 35 37 39 38 40 41 40 41 41 42 42 43 43 45 46 47 48 50 51 53 54 55 55 56 55 54 55 55 54 54 54 53 53 52 51 50 50
34 34 36 33 32 33 34 33 35 36 37 39 40 40 41 42 42 43 43 43 45 46 47 48 49 51 53 54 54 55 55 55 54 54 55 55 54 54 53 52 51 50 50 50
33 34 35 32 32 32 33 33 33 34 35 36 38 38 39 40 41 42 44 44 45 47 47 48 49 50 51 53 54 55 55 55 54 54 54 55 55 54 53 52 51 51 51 50
33 35 35 31 30 31 33 33 32 33 33 35 36 37 36 37 39 40 41 43 43 44 46 47 48 50 50 51 52 53 54 54 54 54 54 54 54 54 54 53 52 52 51 50
34 36 35 31 30 30 31 31 32 33 33 34 36 36 36 35 36 39 40 41 42 43 44 46 47 49 50 51 52 53 53 53 53 54 53 52 53 53 53 53 52 52 51 50
34 36 33 31 31 31 31 31 31 33 33 33 34 35 35 35 35 37 39 41 41 41 41 43 46 47 48 50 51 52 53 53 52 52 53 52 52 52 52 52 52 51 51 49
35 34 32 32 32 32 32 32 31 32 32 32 32 34 35 35 35 35 38 40 40 40 39 41 44 46 48 50 51 52 52 52 52 51 52 51 51 51 50 51 50 50 49 48
33 31 30 31 31 32 33 33 32 32 32 32 32 31 32 33 35 35 35 38 40 41 40 40 42 45 46 48 50 51 52 52 53 52 52 51 50 50 51 50 49 47 47 46
32 30 31 31 32 32 32 32 32 32 32 33 33 32 32 32 33 34 34 35 37 39 41 40 41 43 44 46 48 50 51 52 53 53 53 51 49 48 48 48 48 47 45 45
32 32 33 33 32 32 32 32 32 32 32 33 32 32 32 32 33 34 35 34 35 38 39 39 40 41 42 44 46 47 49 50 52 53 51 50 49 47 46 46 46 46 45 43
33 32 33 33 33 33 33 33 33 32 32 33 32 32 32 32 32 33 35 35 35 36 37 38 40 40 40 42 45 46 47 48 49 49 50 50 49 47 46 44 44 44 44 43
32 32 32 31 32 32 32 32 32 32 32 32 33 33 32 32 32 33 34 35 36 36 37 38 40 41 41 41 42 44 45 47 47 47 48 49 49 48 46 44 43 42 41 41
31 32 31 31 30 30 30 30 31 31 31 31 31 33 33 33 33 34 35 36 36 37 37 38 40 41 41 40 41 42 42 44 45 45 46 46 46 46 46 44 42 41 40 40
30 31 31 30 29 29 29 29 29 29 29 29 30 30 32 33 34 35 36 37 38 38 38 38 38 40 41 40 40 41 40 41 43 44 44 45 45 45 44 44 43 42 41 40
29 29 29 29 28 28 28 28 29 29 29 29 30 30 31 32 33 34 35 36 36 38 38 37 37 39 41 41 41 42 42 41 41 42 43 43 45 44 43 43 43 42 41 39
27 27 27 27 27 26 26 27 28 28 28 28 28 28 29 30 31 32 33 35 35 36 37 37 37 38 39 41 41 42 43 42 42 42 42 43 43 43 43 42 42 41 41 39
26 25 25 26 25 25 25 26 26 26 26 26 26 26 27 28 29 31 32 32 33 34 36 36 36 37 38 40 41 41 41 41 42 42 41 41 42 41 41 40 40 40 40 39
25 24 24 24 24 24 24 24 24 25 25 25 25 25 25 27 28 29 31 31 31 33 35 35 36 36 37 39 41 41 41 41 42 41 41 40 40 40 40 40 39 38 39 39
24 23 23 23 23 23 23 23 23 23 24 24 24 24 24 25 27 28 29 30 31 33 34 35 35 35 37 38 40 40 40 40 40 40 40 39 39 39 39 38 38 38 39 38
23 23 23 23 22 22 22 22 22 22 22 23 22 22 23 24 25 26 27 28 29 31 33 34 35 35 36 37 38 38 38 39 39 39 39 39 39 38 37 36 37 37 36 37
22 21 22 22 21 21 21 21 21 21 21 22 22 21 21 22 23 23 24 25 27 29 30 32 33 34 34 35 36 37 37 38 38 39 38 37 38 38 36 35 35 35 34 34
21 21 21 21 20 21 21 21 20 20 20 21 20 20 20 20 20 21 22 24 25 27 28 29 31 32 32 32 34 35 35 36 37 38 38 38 38 38 36 35 34 33 34 34
22 21 21 21 20 20 20 20 20 20 20 20 19 19 19 19 19 20 21 22 23 24 25 27 28 29 30 31 31 32 34 35 35 36 36 37 37 37 35 34 33 32 32 33
21 21 20 20 20 19 19 19 19 19 19 18 18 18 18 18 18 19 19 21 22 23 23 24 25 26 28 29 29 29 31 33 33 34 35 36 36 36 34 33 31 31 31 31
20 19 19 19 18 18 18 17 17 18 17 17 17 17 17 17 17 17 18 19 20 21 22 23 23 24 26 27 28 28 29 31 32 33 33 34 34 34 32 31 30 29 29 29

GEFSNGP_500_meanwind_180.txt.gz
Wind_Speed
37 36 36 37 36 36 37 37 39 38 39 36 34 36 36 36 36 36 37 37 37 39 40 42 43 44 45 47 49 51 52 52 52 54 56 54 52 51 51 51 50 50 49 49
37 36 37 38 36 36 37 38 39 40 39 37 38 37 37 36 36 36 36 37 38 39 40 41 42 43 45 46 49 50 51 53 52 54 56 54 52 51 51 52 51 50 50 49
37 37 40 39 35 35 36 36 38 39 38 38 38 37 37 38 37 36 37 38 39 40 41 40 41 42 44 46 48 50 51 52 53 54 55 56 54 54 53 52 52 52 51 51
39 38 40 36 34 35 36 35 36 37 37 36 36 36 35 36 36 35 35 37 39 40 42 42 42 43 44 45 47 49 50 52 54 55 54 56 56 54 54 54 52 52 51 51
40 40 40 36 34 35 37 36 35 35 35 36 36 35 34 35 36 36 35 36 37 39 40 42 42 43 44 44 46 47 48 50 53 55 55 55 55 54 53 53 53 52 52 51
40 41 41 36 35 35 37 36 34 35 35 35 36 36 34 35 35 35 34 35 36 38 39 40 41 42 43 43 45 46 48 48 50 53 55 55 54 53 53 53 52 53 52 50
40 42 41 36 36 36 37 36 35 36 36 36 36 36 36 35 35 35 35 35 36 37 38 40 40 40 41 42 44 46 47 48 49 51 52 54 54 53 53 53 53 52 52 50
39 41 39 37 37 37 37 37 37 37 37 37 36 36 36 36 36 35 36 36 36 36 37 38 39 41 42 42 43 45 46 47 48 50 51 52 53 53 53 54 53 51 51 51
40 40 38 38 38 38 39 39 38 37 37 36 36 36 36 36 36 36 35 35 36 36 37 38 39 40 41 42 42 43 44 45 46 49 50 51 51 52 52 52 52 51 51 50
40 38 37 38 39 39 39 39 39 37 36 36 35 35 35 35 35 35 34 35 36 35 36 37 38 39 40 41 42 42 43 44 45 47 48 49 50 50 51 51 51 51 51 50
39 36 37 37 38 38 39 38 38 37 37 36 35 34 34 34 34 34 34 35 36 36 36 36 36 37 38 39 40 40 41 43 44 46 47 48 48 48 49 50 50 50 50 50
37 35 38 38 37 37 37 37 36 36 36 36 35 34 34 33 33 33 33 34 35 36 37 36 36 36 36 37 38 39 39 40 42 43 45 46 47 47 47 49 50 49 49 50
36 36 37 37 36 36 36 35 34 34 34 34 34 34 34 34 33 33 33 34 35 35 36 36 36 35 35 35 37 38 38 39 41 42 43 44 45 45 45 46 47 48 47 49
35 35 36 35 35 35 34 34 33 33 32 31 32 32 32 32 32 32 33 34 34 35 35 36 36 36 36 36 36 36 37 39 40 42 42 42 42 43 44 45 44 44 45 45
34 35 35 34 34 34 33 33 33 32 31 30 30 30 31 31 31 31 32 32 33 34 34 35 35 36 36 36 36 36 36 37 39 41 42 42 41 42 43 43 42 42 43 43
34 34 34 33 33 32 32 32 32 31 30 30 30 30 31 31 31 31 31 32 33 33 34 34 35 35 36 36 36 35 35 36 38 39 41 41 41 41 42 42 41 40 40 39
34 33 32 32 31 31 31 31 30 29 29 29 29 29 30 30 30 30 31 32 32 33 34 34 34 35 35 35 35 35 35 36 37 38 39 41 41 40 40 39 39 39 38 38
32 31 31 31 31 31 31 30 29 29 29 29 28 28 29 29 30 30 31 31 32 32 33 34 34 35 35 35 34 34 34 35 35 37 38 39 39 38 38 38 38 38 38 38
31 31 31 31 31 30 30 30 29 29 29 28 28 29 29 29 30 30 31 31 31 31 31 32 33 34 35 34 34 33 34 34 34 36 38 39 39 39 39 39 38 38 38 38
31 31 31 30 30 29 29 29 29 29 29 29 28 29 29 28 29 29 29 30 30 30 30 31 32 33 33 34 33 33 33 34 35 35 37 38 39 39 39 38 38 38 38 38
30 30 30 30 29 29 29 28 28 27 27 27 27 27 27 27 27 27 28 28 28 29 29 30 31 32 32 33 33 33 33 34 34 33 35 36 37 37 37 37 37 37 36 36
28 28 28 28 28 28 28 27 27 27 26 26 26 26 26 25 25 26 26 26 26 27 28 29 30 30 31 32 33 33 33 33 33 34 34 35 36 36 36 36 35 35 35 35
26 26 26 26 26 26 26 26 26 25 25 25 25 25 24 24 24 24 24 25 25 26 27 28 28 29 30 31 32 32 32 32 32 33 33 33 35 35 35 35 34 34 34 34
26 26 26 26 25 25 24 24 24 25 24 24 24 23 23 22 23 23 23 23 23 24 25 26 27 28 28 28 29 31 32 32 31 31 32 32 33 35 34 34 33 33 32 32
26 26 26 25 25 24 23 23 23 23 23 23 23 22 22 22 22 22 21 21 21 22 23 24 25 26 27 27 28 29 30 31 30 29 30 30 32 33 34 34 33 31 31 31
25 24 24 24 24 23 22 21 21 21 21 21 21 20 20 20 20 20 19 19 20 21 21 22 22 23 24 25 26 28 29 30 29 28 28 29 30 31 32 31 31 31 31 31
23 23 23 23 22 21 20 20 20 19 19 19 19 18 18 17 17 17 17 17 19 19 20 20 21 21 22 23 24 25 27 28 28 28 27 27 28 30 30 30 29 29 30 29

GEFSNGP_500_meanwind_186.txt.gz
Wind_Speed
39 38 38 37 36 35 37 38 39 37 36 34 34 35 35 35 35 36 36 36 36 36 36 36 37 39 41 42 43 43 44 45 46 47 47 47 47 48 48 49 48 49 50 50
40 39 39 39 36 36 37 37 38 38 36 34 36 36 35 35 36 36 37 37 37 37 36 37 38 40 41 42 43 43 44 45 46 47 48 48 48 49 47 48 48 48 49 48
41 39 41 40 35 35 36 36 37 37 35 35 35 35 35 35 35 36 36 37 37 38 38 37 38 39 40 42 43 43 44 44 46 46 46 47 48 49 49 49 49 49 49 48
43 41 42 38 35 35 36 36 36 37 36 35 34 34 35 35 34 35 36 36 36 36 37 38 38 38 39 41 43 44 45 44 45 46 45 46 48 50 50 50 50 50 50 48
42 43 42 36 34 35 36 35 35 35 35 35 35 35 34 34 34 34 35 35 36 35 36 36 37 38 39 40 42 44 46 46 45 45 45 45 47 49 50 51 52 52 52 50
41 42 41 36 34 35 37 36 34 34 35 35 36 35 33 34 34 34 34 34 34 35 35 35 36 37 38 38 40 42 43 44 44 45 45 46 47 49 49 50 52 52 52 51
40 41 40 35 35 35 36 35 35 35 34 35 35 35 34 34 33 34 34 34 34 35 36 36 35 36 36 38 39 39 41 43 44 44 45 46 47 48 49 50 51 52 52 50
39 41 39 35 35 35 35 36 36 36 35 35 35 34 34 34 34 34 34 34 34 35 36 36 35 36 36 37 38 38 39 40 42 44 45 46 47 48 48 49 51 52 52 51
40 40 37 36 36 36 36 36 36 36 36 36 35 35 35 35 34 34 34 35 35 35 35 36 36 36 36 37 37 38 39 40 41 42 44 45 45 46 47 47 49 49 51 51
40 37 36 36 36 36 37 37 37 37 36 36 36 35 35 34 34 34 35 35 34 35 35 35 36 37 36 36 37 37 38 38 39 41 42 44 45 45 46 46 48 48 49 49
38 35 36 35 35 36 36 36 36 36 35 35 35 35 35 34 34 35 35 34 34 34 34 35 35 36 37 37 37 36 36 36 37 38 40 42 44 45 44 45 46 47 48 49
37 34 36 34 33 34 34 34 35 34 34 34 34 33 33 33 33 33 33 33 34 34 34 34 35 35 35 36 36 36 36 36 36 36 37 40 42 44 44 45 45 45 47 47
36 35 35 33 32 32 33 33 33 33 33 33 33 33 33 32 31 31 31 32 32 33 34 34 34 34 34 34 34 34 34 35 35 35 37 38 40 42 43 44 44 44 45 46
35 35 34 32 32 32 33 33 33 33 32 32 32 32 32 31 30 30 31 31 31 31 32 33 33 33 33 34 33 33 33 34 34 33 34 36 38 40 42 43 43 43 44 44
34 34 34 33 33 33 33 33 33 32 32 31 31 31 30 29 29 29 30 30 30 30 31 31 32 32 32 33 33 33 33 33 33 33 33 34 36 39 41 42 42 41 42 43
33 34 34 33 33 33 33 33 32 31 30 29 29 29 29 28 28 29 29 29 29 29 30 30 31 31 31 32 32 32 31 32 32 33 33 34 35 37 39 40 41 41 41 42
32 32 32 33 33 32 32 32 31 30 29 29 29 29 28 28 28 28 29 29 29 29 29 30 30 30 31 31 30 30 30 31 31 31 32 32 33 35 37 38 39 40 40 41
32 32 32 32 32 32 31 30 30 29 29 29 28 28 28 28 28 28 28 28 28 29 29 29 29 29 29 29 29 29 29 29 30 30 31 32 31 32 34 36 37 38 39 39
29 29 29 30 31 30 29 29 29 30 29 29 29 28 28 28 27 27 27 27 27 27 28 28 28 28 27 28 28 28 28 28 28 29 30 31 30 30 31 33 35 36 37 37
27 28 28 29 30 29 29 29 29 29 29 29 28 28 27 27 26 26 26 27 27 27 27 28 28 27 27 26 27 27 26 27 27 27 28 29 29 29 29 30 32 35 35 36
27 27 27 28 29 29 29 29 28 28 28 28 28 27 26 26 26 26 26 26 26 27 27 27 27 26 26 26 26 26 25 25 26 27 28 28 28 28 29 29 30 33 34 34
26 26 26 26 26 26 26 26 26 26 26 26 26 26 26 25 25 25 25 25 25 25 25 24 24 24 24 25 25 25 24 24 25 27 27 27 28 28 29 29 29 31 32 32
25 24 24 24 23 23 23 24 24 24 24 25 25 25 24 24 23 23 24 24 23 23 23 23 22 22 22 22 23 23 23 24 25 26 27 27 27 27 28 28 28 29 30 31
24 24 24 23 22 22 22 22 23 23 23 23 23 22 22 22 21 21 21 20 20 20 20 20 20 21 21 20 21 22 23 23 24 25 26 27 26 26 27 27 27 28 29 29
23 23 23 23 22 22 22 22 22 22 21 21 21 20 20 20 19 19 18 18 18 19 19 19 19 19 19 20 20 21 22 22 22 23 25 26 26 26 26 26 26 27 27 28
22 22 22 22 22 22 22 22 22 21 20 19 19 19 19 18 18 18 18 18 18 18 18 18 19 19 19 20 20 20 21 21 22 22 23 25 25 25 26 26 26 26 26 27
21 21 21 21 21 20 20 20 19 19 18 18 18 18 18 18 18 17 17 17 17 17 17 17 18 19 19 19 19 20 20 20 21 21 22 23 24 24 25 25 25 24 25 26

GEFSNGP_500_meanwind_192.txt.gz
Wind_Speed
44 44 44 44 43 42 43 43 45 43 42 39 40 41 40 40 39 39 38 37 37 37 37 36 37 37 38 39 40 40 41 43 43 43 42 41 41 42 43 44 45 47 49 50
45 44 44 45 42 42 43 44 44 44 42 39 40 40 40 39 39 38 38 38 38 37 37 37 37 38 38 39 39 39 40 41 42 43 43 43 42 43 43 44 44 46 47 48
46 45 46 45 42 42 43 43 44 45 43 41 40 39 38 38 38 38 39 38 38 37 37 38 38 38 38 38 39 39 39 40 42 43 43 44 43 44 44 44 44 45 45 47
47 46 48 45 42 43 43 43 43 44 42 41 40 39 38 38 39 39 39 38 38 37 38 38 38 38 38 38 38 38 39 40 40 41 43 45 45 44 44 44 45 45 46 46
46 47 48 43 42 42 43 43 42 42 41 41 40 40 39 39 39 38 38 38 37 37 37 37 37 37 38 38 37 37 37 39 39 40 41 42 43 44 44 44 45 46 46 46
46 47 48 43 41 42 44 44 41 41 41 41 41 40 39 39 38 38 38 37 36 36 36 36 37 37 37 37 37 37 37 37 38 39 40 40 41 42 42 43 44 46 48 47
45 47 47 42 42 42 44 43 42 42 41 40 40 40 39 39 38 38 38 37 37 36 35 35 35 35 36 36 37 37 37 37 38 38 39 40 40 41 42 42 43 45 47 47
44 46 45 42 43 43 43 43 43 42 41 40 40 40 40 39 39 38 37 37 36 36 35 35 35 35 36 36 37 38 38 38 38 38 38 39 39 40 42 43 44 44 45 46
45 44 43 42 42 42 43 43 42 41 41 41 40 40 40 40 40 39 38 37 36 36 35 34 35 36 36 35 36 37 38 38 38 38 38 38 38 39 41 42 43 44 44 45
44 42 41 41 41 42 42 42 41 41 41 40 40 40 40 41 40 39 37 37 36 35 35 34 34 35 36 35 35 36 37 38 38 38 37 37 38 39 40 41 42 43 43 43
43 41 41 40 41 41 42 42 40 39 39 39 39 39 39 39 38 37 36 36 36 35 34 34 34 35 36 36 36 36 36 36 36 36 36 36 37 38 40 40 41 42 42 41
41 39 41 40 39 40 40 39 38 38 38 38 39 38 38 37 36 35 34 34 34 35 34 34 35 35 36 35 35 35 36 35 35 35 35 35 36 37 38 39 40 41 41 41
40 39 40 39 39 39 39 37 37 38 37 37 37 37 36 35 34 33 33 33 33 33 33 33 34 34 34 34 33 33 34 35 35 35 35 35 36 36 37 38 39 40 40 41
40 40 40 39 39 38 37 37 37 36 36 36 35 35 35 34 33 33 33 33 33 33 32 32 32 31 31 31 30 31 32 33 33 34 34 34 34 34 35 36 36 37 39 39
39 39 38 38 37 36 35 35 36 35 35 35 35 35 34 33 32 32 32 32 32 31 31 31 30 30 30 29 29 29 29 30 31 31 32 33 33 32 33 34 35 36 37 38
37 37 37 36 35 34 35 35 35 34 34 34 34 34 33 33 32 31 31 30 30 30 30 29 29 29 29 29 29 28 28 29 29 29 29 30 30 31 31 32 33 34 35 35
35 35 35 35 35 35 35 35 35 34 33 34 33 33 32 32 31 30 29 28 28 29 29 28 28 28 28 29 29 28 28 29 29 29 28 28 28 28 29 31 31 31 32 34
34 33 33 33 34 35 35 35 35 34 34 33 33 32 32 31 30 28 28 27 27 27 28 29 28 28 28 28 28 28 28 28 28 28 28 28 27 27 28 28 29 28 30 31
31 31 31 32 32 33 33 34 33 33 33 33 33 32 31 30 29 28 28 28 27 27 28 28 28 28 27 27 27 26 26 26 27 27 26 26 26 26 27 27 27 27 29 31
29 30 30 31 31 32 32 32 32 32 31 31 31 30 29 28 28 28 28 27 27 27 27 27 27 27 26 26 26 25 25 24 24 25 25 24 25 25 26 26 26 26 27 28
28 28 28 29 30 30 30 31 31 30 29 29 28 28 27 27 27 27 27 27 26 26 26 26 26 26 25 25 24 24 23 23 22 23 23 23 23 23 24 25 25 25 26 27
26 26 27 27 27 27 27 28 28 28 27 26 26 27 26 26 26 26 26 26 26 25 25 24 24 24 24 23 23 22 22 22 21 21 21 22 22 22 22 23 23 24 25 26
25 26 26 26 26 27 27 26 26 26 26 26 26 26 26 25 25 25 24 24 24 24 23 23 23 23 22 22 21 21 21 20 20 20 20 20 21 21 21 21 22 23 24 24
25 25 25 26 26 26 26 26 25 25 24 24 24 24 24 24 24 24 23 23 23 22 22 21 21 21 20 20 20 19 18 18 18 18 18 19 19 19 19 19 21 21 22 22
24 24 24 25 25 25 25 25 24 24 23 22 22 22 22 22 22 22 22 21 21 21 21 20 20 19 19 18 18 17 17 17 17 17 17 18 18 18 18 18 19 20 20 21
23 23 23 24 24 23 23 23 23 23 22 22 22 22 21 21 20 20 20 20 20 20 19 19 19 19 18 17 17 17 17 17 17 17 17 17 17 17 17 17 18 19 19 19
22 22 22 23 23 22 21 21 21 21 21 21 21 20 20 20 19 19 19 19 19 19 19 18 18 17 17 17 16 16 17 16 16 16 17 16 15 16 16 17 17 17 18 18

GEFSNGP_500_meanwind_198.txt.gz
Wind_Speed
43 42 42 42 42 42 43 43 43 42 41 39 40 41 41 40 40 40 40 39 39 39 38 38 37 37 37 37 38 38 37 38 40 40 41 42 43 44 44 44 44 45 46 46
43 42 43 43 41 41 42 42 42 42 41 39 40 41 41 40 40 40 40 39 38 37 37 37 36 36 36 37 37 38 38 37 38 38 40 41 41 42 43 43 44 44 44 45
43 42 44 44 41 41 41 41 42 42 41 40 41 41 40 40 40 40 40 39 38 37 36 36 37 36 36 37 37 37 37 37 37 37 39 40 40 41 42 42 42 43 43 44
44 44 45 43 41 40 41 41 42 42 41 41 41 40 40 40 40 40 39 38 36 37 36 36 36 37 36 36 36 36 37 37 36 36 37 39 39 40 41 42 42 42 42 43
44 45 45 42 40 40 41 41 41 41 41 40 40 41 40 39 39 38 38 37 37 37 37 36 36 36 35 34 34 34 36 36 36 36 37 38 39 40 40 41 41 42 41 42
43 45 45 43 41 41 42 43 40 40 40 40 40 40 39 39 39 38 38 38 38 37 37 36 35 35 34 34 33 34 35 35 35 35 36 37 38 39 39 40 40 41 41 41
43 44 45 42 41 41 42 41 39 39 39 39 40 40 40 40 39 39 39 39 38 37 36 35 34 34 34 33 33 33 34 34 35 35 35 36 37 38 39 39 39 40 40 40
42 43 43 40 40 40 41 40 40 39 40 40 40 40 40 39 39 39 38 38 37 37 36 35 34 34 33 33 33 33 33 34 35 35 35 35 35 37 38 38 39 39 40 39
41 41 40 40 41 41 41 40 40 40 40 40 40 39 39 39 39 39 37 36 36 35 35 34 34 33 33 32 32 32 32 33 34 35 35 34 35 35 36 37 37 37 38 37
40 39 39 39 39 39 39 40 40 40 39 39 39 39 39 38 38 37 36 35 35 34 34 33 33 33 33 32 32 32 33 33 34 34 35 34 34 34 34 35 37 37 36 36
39 37 37 37 37 37 38 38 38 39 39 38 38 38 38 37 36 36 35 34 34 33 33 33 32 32 32 32 32 32 32 33 33 33 33 34 33 33 34 33 34 35 35 35
35 35 36 35 36 38 38 38 38 38 37 37 37 37 37 36 35 35 34 34 33 32 32 32 31 31 32 32 32 32 32 32 33 33 33 33 33 33 34 34 34 34 34 34
36 37 38 38 38 39 38 38 38 38 37 37 37 37 36 35 34 34 34 33 32 32 31 31 30 30 31 31 31 31 31 32 32 32 32 33 33 33 33 34 34 34 34 34
37 38 38 38 39 39 38 38 38 38 38 37 36 36 34 34 33 33 32 32 31 31 31 30 30 30 30 30 30 30 30 30 30 31 31 31 32 33 34 34 34 34 34 34
36 36 36 37 37 37 37 38 38 38 38 37 36 35 34 33 32 32 31 31 30 30 30 30 30 30 30 30 30 29 29 28 28 29 29 30 30 30 31 32 33 33 34 34
35 35 35 35 35 35 36 37 37 36 35 34 34 33 32 32 32 31 31 30 29 29 29 29 29 29 29 30 30 29 28 28 27 27 27 28 28 28 29 29 30 31 32 32
34 34 34 34 34 34 34 34 34 33 33 33 33 32 32 32 31 31 31 30 29 28 28 28 28 28 29 29 29 28 27 27 26 26 26 26 26 26 27 27 28 29 29 30
30 31 32 32 32 32 32 32 32 32 31 31 32 32 32 32 32 31 30 30 29 29 29 28 28 28 28 28 27 27 26 25 25 25 25 25 25 25 25 25 25 26 27 27
27 27 28 29 29 30 31 31 31 30 30 30 30 31 31 31 30 30 30 29 29 28 28 28 28 27 27 27 26 25 25 24 24 24 24 24 23 23 23 23 23 24 25 25
24 25 25 26 27 28 28 29 29 29 29 30 30 29 29 29 28 28 28 27 27 27 27 27 27 27 27 27 25 24 24 23 23 23 22 21 21 21 21 22 22 23 23 24
22 23 24 25 25 26 26 27 28 29 29 30 29 29 28 28 27 27 26 26 26 26 26 26 26 25 25 25 24 23 23 23 22 21 20 20 19 20 20 21 21 22 22 23
22 23 23 23 24 25 25 26 27 28 28 28 28 27 27 26 26 26 25 24 24 24 24 24 24 23 23 23 22 21 21 20 20 19 19 18 18 19 19 19 20 20 21 21
22 22 22 23 23 24 25 25 26 25 25 25 25 25 24 24 24 23 22 22 22 22 22 22 21 21 21 21 20 19 18 18 18 17 17 17 17 17 17 18 18 18 18 19
22 22 22 23 23 23 23 24 24 24 24 23 24 23 23 22 22 22 22 21 21 20 20 20 20 19 19 19 18 17 16 16 16 15 15 15 15 15 15 15 15 16 17 17
21 22 23 23 23 23 23 23 23 23 23 22 22 22 22 21 20 20 20 20 19 18 18 18 18 18 17 17 16 16 15 14 14 14 14 14 14 14 14 14 14 15 15 16
21 21 21 21 21 21 21 21 22 21 21 21 21 21 21 20 20 19 19 19 18 18 18 17 17 17 17 17 16 15 14 13 13 13 13 13 12 12 12 12 13 14 14 15
20 20 20 20 19 20 20 20 20 19 19 20 20 20 20 19 19 18 18 18 17 17 17 17 16 16 16 15 15 14 14 14 13 13 12 12 11 11 11 11 12 13 13 14

GEFSNGP_500_meanwind_204.txt.gz
Wind_Speed
43 42 44 45 44 44 44 44 45 43 44 42 42 43 44 44 44 43 42 43 43 43 42 42 41 42 42 41 41 41 41 41 42 43 44 44 44 44 45 46 46 48 48 49
42 42 43 45 45 44 44 44 44 44 43 41 42 43 43 43 43 44 43 43 43 43 42 42 42 41 41 41 40 40 40 40 41 41 42 43 43 42 42 44 45 45 45 45
44 42 45 46 43 43 44 43 43 44 42 41 42 42 42 43 43 43 44 43 43 42 42 41 40 40 39 39 39 40 40 39 39 40 41 42 42 42 42 42 42 42 42 42
45 45 48 46 43 43 43 42 42 43 42 42 42 42 42 42 43 43 43 43 43 42 41 40 40 39 38 38 39 39 39 39 38 38 39 39 40 40 39 39 39 40 40 40
46 47 49 46 43 42 42 42 42 43 42 42 42 43 43 42 43 42 42 42 42 41 40 40 39 38 38 38 38 38 38 37 37 37 37 37 37 38 38 38 37 38 38 38
46 48 48 44 42 42 43 44 42 43 42 43 43 43 42 42 42 42 42 42 42 41 40 39 39 39 38 38 38 37 37 36 36 37 37 36 36 36 36 36 36 37 37 38
45 46 47 44 43 43 44 44 43 43 43 43 43 43 42 42 42 42 42 42 41 40 39 39 38 38 38 38 37 36 35 35 35 36 35 35 35 35 36 36 35 35 35 35
42 44 44 42 43 43 43 44 44 44 43 43 43 42 42 42 42 42 41 40 39 38 38 38 38 38 38 37 37 36 35 34 34 34 34 34 34 34 35 35 35 34 33 33
38 40 40 40 41 41 42 43 44 44 43 43 43 42 42 42 41 41 40 39 39 39 38 39 39 39 38 37 37 36 36 35 33 33 33 33 33 34 34 35 34 34 33 32
38 37 37 38 39 40 41 42 42 42 42 43 42 42 41 41 41 40 39 39 39 39 38 39 39 39 38 37 37 36 35 34 33 33 32 32 33 33 33 33 33 33 32 32
39 38 38 38 39 40 40 41 41 41 41 41 41 41 40 40 40 39 39 39 39 39 39 39 38 38 37 37 36 35 34 33 33 32 32 32 32 32 32 31 31 31 31 32
37 37 38 38 39 39 40 40 40 40 40 40 40 40 40 40 39 39 39 39 39 39 38 38 37 36 35 35 35 34 33 33 33 33 32 32 32 31 31 31 30 31 31 31
36 36 37 37 37 38 38 38 39 39 39 39 39 39 39 39 38 38 38 38 38 37 37 36 36 35 34 34 34 33 32 32 32 32 32 31 31 30 29 29 29 29 29 30
35 35 36 37 37 37 37 38 38 39 39 38 38 38 38 37 38 38 38 38 37 36 35 35 34 34 34 33 32 32 31 31 31 31 31 30 30 29 28 28 28 29 29 29
33 35 36 36 37 37 38 38 38 38 37 37 37 37 37 37 37 37 37 36 36 35 34 34 33 33 33 32 31 31 31 31 30 30 29 28 28 27 27 27 27 27 28 27
33 34 35 35 35 35 36 36 36 36 37 37 37 37 37 36 35 35 35 35 35 34 34 33 33 32 32 31 31 30 30 30 29 28 27 26 26 26 26 26 26 26 27 27
32 32 32 33 33 33 33 34 35 35 35 36 36 36 35 35 34 34 33 33 33 33 33 33 32 32 31 31 30 30 29 29 29 27 26 26 25 25 25 24 24 25 25 26
30 30 30 30 31 32 33 34 34 34 35 35 35 34 34 33 33 33 33 32 33 33 33 33 32 31 30 30 29 29 28 28 27 26 25 24 24 24 24 23 23 23 23 24
28 28 29 30 31 31 32 32 33 33 33 33 33 33 32 32 33 33 32 32 32 32 32 31 30 30 29 29 28 27 25 25 24 24 23 22 22 23 23 22 22 21 22 22
26 26 27 27 28 29 30 31 31 32 32 31 31 31 31 32 32 32 32 31 31 30 29 28 28 28 27 27 26 25 24 24 23 23 22 22 22 22 22 21 21 20 20 20
24 25 26 26 27 27 28 28 29 29 29 29 29 30 30 31 31 31 31 31 30 29 28 27 27 26 25 25 24 24 24 24 23 23 23 22 22 22 21 20 19 19 19 19
23 24 25 25 26 26 26 27 27 28 29 29 30 30 30 31 31 31 31 30 29 28 27 27 26 26 25 24 23 23 23 22 22 22 21 21 21 21 20 19 18 18 18 18
23 24 25 25 25 25 26 26 27 28 28 29 29 30 30 29 29 29 29 28 27 27 26 26 25 24 23 23 22 22 21 21 21 20 20 20 19 18 18 17 17 17 16 16
24 24 24 24 24 25 25 26 27 27 27 28 28 28 27 27 27 27 26 26 25 24 24 24 23 22 21 21 20 19 19 18 19 18 18 17 17 16 16 16 16 16 15 15
23 23 23 23 23 24 24 24 25 25 25 26 25 25 24 24 24 23 23 23 23 22 22 22 21 21 20 19 18 17 17 17 16 16 16 15 15 15 14 14 14 14 14 13
22 22 22 22 23 23 23 23 23 23 24 23 22 22 22 22 21 21 21 21 20 20 20 20 19 18 18 17 17 16 16 15 15 14 14 14 14 14 14 14 14 14 13 13
21 21 22 22 22 21 21 21 21 21 20 20 20 20 19 19 19 19 18 18 18 18 18 17 17 17 16 16 16 15 14 14 14 13 13 12 12 11 11 12 12 12 12 12

GEFSNGP_500_meanwind_210.txt.gz
Wind_Speed
41 41 42 42 43 43 43 42 43 41 40 38 38 39 40 40 40 40 40 40 40 41 41 42 42 42 43 43 44 44 43 43 43 41 41 41 41 41 42 42 42 44 44 46
42 41 42 43 42 41 41 41 42 42 41 37 38 40 40 40 40 40 40 40 40 40 41 42 42 42 42 43 43 44 43 42 42 40 39 40 39 39 40 41 41 43 45 46
41 41 42 43 39 41 42 42 42 43 40 39 39 39 39 39 39 40 40 39 40 41 42 42 42 42 42 43 44 43 42 40 40 39 39 39 38 38 38 39 40 42 42 43
40 41 44 40 38 39 40 40 41 41 40 40 41 40 40 40 40 41 40 40 40 41 41 41 41 41 42 43 43 43 42 40 40 39 39 38 38 38 38 39 41 41 42 42
40 41 42 38 36 38 40 41 40 40 40 40 41 41 41 40 41 41 41 42 42 42 42 42 42 42 42 43 43 42 42 40 39 39 39 38 38 38 39 40 41 40 40 40
40 41 41 36 35 37 39 40 38 39 40 40 41 41 41 41 41 41 42 42 42 42 42 42 42 42 42 42 42 41 40 39 39 38 38 38 38 39 40 40 39 39 39 38
38 40 39 37 37 37 39 38 38 39 40 40 41 40 40 40 40 41 41 41 42 42 42 42 42 42 42 42 41 41 40 39 38 37 37 37 38 39 39 39 39 38 37 37
36 38 37 35 37 37 37 37 38 38 38 39 40 39 39 39 39 40 41 41 42 42 42 42 42 42 41 41 41 40 39 38 37 37 37 38 38 38 39 39 37 36 36 36
34 35 35 34 35 35 36 36 36 36 37 38 39 39 40 40 40 40 40 41 41 41 42 42 42 42 41 41 40 40 38 37 37 37 38 38 37 37 37 37 37 36 36 35
33 33 33 34 35 36 36 36 36 36 37 37 38 38 39 39 39 39 39 39 40 40 41 40 40 40 40 39 39 38 38 37 37 37 38 38 38 37 36 36 36 35 35 33
33 32 33 34 35 35 36 36 36 36 36 37 37 37 38 38 38 38 38 38 39 39 39 39 39 39 39 39 39 38 37 37 38 38 38 37 37 36 35 34 35 34 33 32
32 33 35 35 36 36 36 36 36 36 36 37 37 37 38 39 39 39 38 38 38 38 38 38 38 39 39 39 38 37 37 37 38 37 37 36 35 34 34 33 33 32 31 30
31 32 33 33 34 36 37 37 37 37 37 37 38 38 39 39 39 39 39 38 38 38 38 38 38 38 38 38 37 37 37 36 36 35 35 34 34 33 32 32 32 31 30 28
30 31 31 31 33 34 35 36 37 37 37 37 37 37 37 38 38 38 37 37 37 37 36 36 36 37 37 36 36 36 35 35 34 33 33 32 32 31 30 29 29 28 28 28
29 30 30 30 31 32 33 34 34 34 35 34 35 35 35 36 36 37 36 36 36 35 35 35 35 35 35 35 35 35 34 34 33 32 31 30 30 29 28 27 26 26 27 27
29 29 30 30 30 30 31 31 32 32 32 32 33 33 34 35 35 35 35 35 34 34 34 34 34 35 35 34 34 34 33 32 32 31 29 28 28 27 27 26 25 25 26 26
26 27 28 28 29 29 29 30 30 31 31 31 32 32 33 33 33 34 34 33 33 33 33 34 34 34 34 34 33 32 31 31 30 29 28 27 27 26 26 26 25 24 24 24
25 26 26 27 28 28 28 29 30 30 30 30 30 30 30 30 31 32 32 32 33 33 33 33 33 33 33 32 31 31 30 29 28 27 26 26 25 25 25 24 23 23 23 23
24 24 25 26 26 27 27 28 28 29 30 30 30 30 30 30 30 31 31 32 32 32 32 32 32 32 31 30 29 29 28 27 26 25 25 24 24 23 23 23 22 22 22 21
23 24 24 24 24 25 25 26 26 27 28 29 30 30 30 31 31 31 31 31 31 31 31 30 30 30 29 28 27 27 26 25 24 23 23 22 22 22 21 21 21 20 20 20
23 24 23 23 24 24 24 25 25 26 27 28 28 29 29 29 29 29 29 29 29 29 29 28 28 27 27 26 25 25 24 24 23 22 22 21 21 20 20 20 19 19 18 18
22 23 23 23 23 23 24 24 24 25 25 26 26 27 27 27 27 27 28 28 28 28 27 27 26 25 24 24 24 24 23 23 22 22 21 21 20 20 19 18 18 17 16 16
21 22 22 22 22 22 23 23 23 23 23 24 25 25 25 26 26 27 27 27 27 27 26 25 24 24 23 23 22 22 22 21 21 20 20 20 20 19 18 17 16 15 15 14
21 21 21 21 21 21 22 22 22 22 23 23 23 23 24 24 24 25 25 25 25 25 25 24 23 23 22 21 21 20 20 20 19 19 18 18 18 18 17 15 14 14 13 13
20 20 20 20 20 21 21 21 21 20 20 21 21 21 22 22 22 22 22 22 22 22 22 22 22 21 20 20 19 19 18 18 17 16 16 16 15 15 14 13 13 12 12 12
19 19 20 20 20 20 20 20 19 19 19 19 20 19 19 19 19 18 18 18 19 19 19 19 19 18 18 18 18 17 17 17 16 16 15 14 14 13 12 12 12 12 11 11
19 19 18 18 18 18 18 18 18 18 18 18 18 18 18 17 17 18 17 17 16 16 16 15 15 15 14 14 15 15 15 15 15 14 13 13 13 12 11 11 10 10 10 10

GEFSNGP_500_meanwind_216.txt.gz
Wind_Speed
41 42 42 42 42 43 44 44 46 44 43 41 42 43 43 43 43 43 43 43 43 43 42 43 43 43 43 44 45 45 46 47 48 48 49 49 49 48 49 49 49 49 49 49
43 43 44 44 43 43 43 44 44 44 43 41 43 43 43 43 43 43 43 43 42 42 43 43 43 43 44 44 45 45 46 47 47 48 48 48 48 47 48 47 47 47 47 47
43 43 44 44 41 41 42 43 44 44 43 43 44 43 44 44 44 44 44 43 43 42 43 43 43 44 44 44 45 46 46 46 47 47 47 47 47 46 46 46 46 46 46 46
40 41 44 42 41 41 42 42 43 44 44 45 45 44 44 43 43 44 44 43 43 43 43 43 43 44 44 45 45 45 45 45 46 46 46 46 46 46 46 45 45 45 45 45
39 40 41 40 39 40 41 40 41 42 43 44 44 44 43 43 43 43 43 43 43 42 43 43 43 43 43 44 44 44 44 45 45 46 46 45 45 45 44 44 44 44 43 44
37 38 38 37 37 39 40 40 39 40 41 42 43 43 42 43 43 43 43 43 43 43 43 43 43 43 43 44 44 44 44 45 45 46 45 45 44 44 44 44 44 43 43 44
35 36 36 34 34 35 36 37 38 39 40 41 41 42 42 42 43 43 43 43 43 43 43 44 44 44 44 44 44 44 45 45 45 46 46 45 45 45 44 44 43 43 42 42
33 35 33 33 33 33 33 33 34 36 37 37 38 39 40 40 41 41 41 42 42 42 43 44 44 44 44 44 44 45 45 46 46 46 46 46 46 45 44 43 43 42 42 41
32 32 31 32 33 33 33 33 33 34 35 36 37 38 38 39 39 40 41 41 42 42 43 43 43 44 44 44 44 45 46 46 46 46 45 45 44 43 42 43 43 42 41 41
30 30 30 31 32 33 34 34 34 34 34 35 36 36 37 38 39 40 40 41 42 42 42 43 43 44 44 45 45 45 45 45 45 44 43 42 42 42 42 42 42 41 40 39
30 30 31 31 32 33 33 34 34 35 35 35 36 36 37 38 39 39 40 40 40 41 41 42 42 43 43 44 43 43 43 43 42 42 41 40 40 40 40 40 40 40 38 36
29 29 30 31 31 32 33 34 35 36 37 37 37 37 37 37 37 38 38 39 40 40 41 41 42 42 42 42 41 41 40 39 39 39 39 39 39 39 40 39 37 37 35 34
29 29 30 30 30 31 32 34 35 36 37 37 38 38 37 37 37 37 38 39 39 40 40 40 39 40 40 40 40 39 39 38 38 38 38 38 38 37 36 36 35 33 32 32
29 29 29 29 30 30 31 33 34 35 35 36 36 36 37 37 37 38 38 38 38 38 38 38 37 38 38 38 38 38 38 38 37 36 36 36 36 35 34 33 31 31 31 31
28 29 29 29 29 30 31 32 33 34 34 34 34 34 35 35 36 36 36 36 35 35 35 35 36 36 36 37 37 37 37 36 36 35 34 34 33 32 31 30 29 29 30 29
28 28 27 28 29 29 30 31 32 33 33 33 32 32 32 33 33 33 33 33 33 33 34 34 35 35 36 36 36 36 35 35 34 34 33 33 32 30 30 29 28 27 27 27
26 26 27 27 28 28 28 29 29 30 30 30 30 31 31 31 31 32 32 32 33 33 33 33 34 35 35 35 35 34 34 33 33 33 32 31 30 29 28 28 27 26 26 25
26 26 27 27 27 27 28 28 28 28 28 29 30 30 31 31 32 32 33 33 33 33 34 34 35 35 34 34 34 33 33 33 32 31 30 29 28 27 27 26 26 25 24 23
25 26 27 27 27 27 27 27 27 28 28 29 29 30 30 31 31 32 33 34 34 35 35 35 35 34 34 33 32 32 31 30 29 29 28 28 27 25 25 24 23 23 22 21
24 25 26 26 26 27 27 27 27 28 28 28 29 30 30 31 31 32 33 33 33 34 34 34 34 33 32 31 30 30 29 28 28 27 26 26 25 24 24 23 22 20 19 19
24 24 24 25 25 26 26 26 27 27 28 28 28 28 29 30 30 30 30 31 31 31 31 31 30 30 30 29 29 28 27 26 26 25 25 24 24 23 22 21 20 18 18 17
23 23 24 24 24 24 25 25 26 26 26 27 27 27 27 27 28 28 28 28 28 28 28 27 27 27 27 27 27 26 26 25 24 24 23 23 22 21 20 19 18 17 16 15
22 23 23 23 23 23 24 24 25 25 25 25 25 24 24 24 24 25 25 25 26 26 26 25 25 25 25 24 24 23 23 23 23 22 22 21 21 20 18 17 16 15 14 13
21 21 22 22 22 22 22 23 23 22 22 22 22 22 22 22 22 22 23 23 23 24 24 23 23 23 23 23 22 22 22 22 21 20 20 20 19 18 17 16 15 14 13 12
19 20 20 20 20 20 20 20 20 20 20 20 20 20 20 20 20 20 21 21 21 21 22 22 22 22 22 21 21 20 20 20 19 19 18 18 17 16 15 14 14 13 12 12
18 18 18 17 18 18 18 18 18 18 18 18 18 19 19 19 19 19 19 19 19 19 19 19 19 20 20 19 19 18 17 17 17 17 16 15 15 14 13 12 12 12 11 11
17 17 17 16 16 16 16 17 17 17 17 17 17 18 18 18 18 18 18 18 18 17 17 17 17 17 17 17 16 16 16 16 15 15 14 13 12 12 11 11 10 10 10 10

GEFSNGP_500_meanwind_222.txt.gz
Wind_Speed
37 38 39 40 40 41 41 41 41 41 42 42 42 42 43 43 42 41 41 41 41 42 42 43 43 44 44 44 45 45 45 45 46 46 46 47 47 48 49 50 51 52 52 53
37 37 38 39 39 40 40 40 41 42 42 43 44 44 45 44 43 42 42 42 41 42 42 42 43 43 44 44 44 44 45 45 46 46 47 47 47 48 49 50 51 51 52 53
36 35 36 38 37 37 38 38 39 40 41 42 43 44 44 44 44 43 43 43 42 42 42 42 42 43 43 44 44 44 45 46 46 46 47 47 48 48 49 50 51 51 51 51
36 36 37 36 37 37 38 38 38 40 40 41 42 42 43 43 44 44 44 44 44 43 43 43 42 42 43 43 44 44 45 45 46 46 46 47 47 47 48 48 49 49 49 48
34 36 36 35 34 34 36 37 38 38 39 40 40 41 42 42 42 43 43 43 44 44 43 43 42 42 42 43 43 44 44 45 45 46 46 46 47 47 47 48 48 48 47 47
33 34 35 34 33 33 35 36 36 37 38 38 39 39 39 40 41 41 41 41 42 42 42 42 42 42 42 42 42 43 43 44 44 45 45 46 46 47 47 47 47 47 46 46
31 33 33 33 32 32 33 34 34 35 36 36 37 37 38 38 39 40 40 41 41 41 41 40 40 40 41 41 42 42 42 43 44 44 44 45 46 46 46 46 46 46 45 45
29 31 31 31 31 32 32 32 32 32 33 34 34 35 35 36 37 38 38 39 40 40 40 40 40 40 40 40 40 41 41 42 43 44 44 45 46 46 45 45 45 45 45 45
28 28 28 29 30 30 30 31 31 31 31 31 32 33 34 35 36 37 38 38 39 39 39 40 39 40 40 40 41 41 42 42 42 43 43 44 44 44 43 44 44 44 44 44
29 28 27 27 28 29 29 29 30 30 30 30 31 32 33 35 36 37 37 37 38 38 38 38 39 39 40 40 41 41 41 41 42 42 42 43 42 42 42 43 43 43 43 43
27 27 28 28 28 28 27 27 28 29 30 31 31 32 33 33 34 35 36 37 37 37 37 37 38 39 39 40 40 41 40 40 40 40 40 40 40 40 41 41 41 40 40 40
25 26 27 27 27 27 28 28 28 29 29 30 31 31 32 33 34 35 36 36 36 37 37 37 38 39 39 40 40 39 39 39 39 39 38 38 38 38 38 39 39 38 37 37
23 24 25 25 26 26 27 28 28 29 30 30 31 31 32 33 33 34 35 35 35 36 36 37 37 38 38 39 39 39 38 38 38 37 37 38 38 38 38 37 37 36 35 35
24 24 25 25 26 26 27 28 28 29 29 30 31 31 32 33 33 33 34 34 35 35 36 36 37 37 37 37 37 37 37 36 36 37 37 37 37 37 36 35 34 34 34 34
23 24 24 25 26 26 27 27 28 28 29 30 31 32 32 32 32 33 33 33 34 34 34 35 35 36 36 36 35 35 35 34 35 35 36 36 36 35 35 33 33 33 32 32
21 22 23 24 25 26 27 27 28 29 30 30 31 31 31 31 31 31 32 32 32 32 32 32 33 33 33 33 33 33 33 33 33 34 35 35 35 34 32 31 31 30 29 29
19 20 22 23 24 25 27 28 29 29 30 30 30 30 30 30 30 30 30 30 30 30 31 31 31 32 32 32 32 32 31 32 33 33 33 33 33 31 30 29 28 28 27 26
19 20 21 22 24 25 26 27 28 28 28 29 29 29 30 30 30 30 30 30 30 30 30 31 31 32 32 31 31 31 32 32 32 32 32 31 30 28 27 26 26 25 25 24
19 20 21 22 24 25 26 27 27 28 28 28 28 29 28 28 28 28 28 29 29 30 30 30 30 30 30 30 30 30 31 31 30 30 30 28 27 27 26 25 25 25 24 24
20 21 21 22 23 24 24 25 26 26 27 27 27 27 27 27 27 27 27 28 28 29 29 29 29 29 28 28 29 29 29 28 28 28 27 27 27 26 25 25 24 23 23 22
20 20 21 21 22 23 23 24 24 24 24 24 24 24 24 25 25 26 26 26 27 27 26 27 27 27 27 28 28 28 27 27 27 26 26 26 26 25 24 23 23 22 21 20
20 20 21 21 21 22 22 22 22 22 22 22 22 22 22 22 23 23 23 23 22 23 23 23 24 25 25 26 25 25 25 25 25 24 24 24 23 22 22 21 21 20 19 18
20 20 20 20 21 21 20 20 20 20 20 20 20 21 21 20 20 20 20 20 21 21 21 22 22 22 23 23 23 23 23 23 22 22 21 21 20 19 19 19 18 18 17 16
19 19 19 19 19 19 18 18 18 18 18 19 19 19 20 19 19 19 19 20 20 20 20 19 20 20 21 21 21 21 21 21 20 20 19 18 18 17 17 16 16 15 15 15
18 17 17 17 18 17 17 17 17 17 17 18 18 18 18 18 18 19 19 19 19 19 18 18 19 19 19 19 19 19 19 19 18 18 17 16 15 15 15 14 14 13 13 13
16 16 16 17 17 16 16 16 16 17 17 17 17 17 17 17 18 18 18 18 18 18 18 18 18 17 17 17 17 17 16 16 16 15 14 14 14 13 13 13 13 12 11 11
15 15 15 15 15 15 15 15 16 16 16 16 16 16 17 17 17 17 16 16 16 16 16 16 16 16 16 15 15 15 14 14 14 13 12 12 12 11 11 11 11 10 10 9

GEFSNGP_500_meanwind_228.txt.gz
Wind_Speed
35 34 35 37 37 38 39 40 40 39 39 39 40 42 43 43 43 42 42 42 42 43 44 44 44 45 46 46 47 47 47 48 48 49 49 49 49 49 50 50 50 51 51 52
36 36 36 36 37 37 38 39 40 41 40 39 41 42 42 43 43 43 42 43 43 44 44 44 45 45 45 46 46 46 46 47 47 48 48 48 48 49 49 50 51 52 52 53
36 36 37 38 36 36 37 38 38 39 39 39 40 41 41 42 43 43 43 44 44 44 44 45 45 45 44 45 45 46 46 47 47 47 48 48 48 48 49 50 51 52 52 53
34 35 38 37 36 37 37 38 38 39 40 40 41 41 41 41 42 42 43 43 44 44 45 45 45 45 45 45 45 45 46 47 47 48 48 49 49 49 50 50 51 51 52 52
32 33 35 35 35 35 36 37 38 39 39 40 41 41 42 42 42 42 41 41 42 43 44 44 44 45 45 45 45 45 46 46 47 48 48 49 50 49 50 50 51 51 50 51
30 32 33 33 34 34 35 36 37 38 39 40 40 41 40 41 41 41 42 42 42 42 44 44 44 44 44 45 45 45 46 46 46 46 47 48 48 48 48 49 49 49 49 49
28 30 31 32 32 33 35 35 35 36 37 38 38 39 39 40 41 41 41 42 42 42 43 43 43 43 43 44 45 45 45 45 46 46 46 46 46 46 46 46 46 46 46 46
28 29 29 29 31 32 33 34 35 35 35 36 36 37 37 39 40 40 40 41 41 42 42 42 42 43 43 43 44 44 44 44 44 44 44 44 44 44 44 44 44 44 44 43
27 28 28 29 31 32 33 34 34 35 35 35 35 36 36 37 37 38 39 40 40 41 41 41 42 42 42 42 42 42 42 42 43 42 42 42 42 42 42 42 43 43 42 41
27 28 29 31 31 32 33 33 34 35 35 35 35 36 36 36 37 37 38 39 39 40 40 41 41 41 41 40 40 40 41 41 42 42 41 41 40 40 41 41 41 40 40 40
26 27 28 30 31 31 32 32 33 33 34 34 35 35 36 36 37 38 38 38 39 39 39 40 40 39 39 39 39 39 39 40 40 40 40 40 39 39 39 39 39 39 39 40
26 26 27 28 29 30 30 30 30 31 32 32 33 34 34 36 37 37 37 37 38 38 38 38 38 38 38 38 38 38 39 39 39 39 39 39 39 38 38 38 38 38 37 37
26 26 26 26 26 27 27 27 28 29 30 30 31 32 33 34 34 34 35 35 36 36 36 36 35 36 37 37 37 37 37 37 38 38 38 38 38 38 37 36 36 36 36 36
25 25 24 25 25 26 26 27 28 28 29 30 31 32 32 32 31 32 33 33 34 35 35 35 35 36 36 37 37 37 37 37 37 38 38 38 37 36 36 35 35 36 37 37
23 23 23 24 25 26 27 27 28 29 30 30 30 30 30 31 31 32 32 33 33 33 33 34 34 35 35 35 35 35 36 36 37 37 36 36 36 35 35 35 36 36 37 38
22 22 23 24 24 25 26 26 27 27 28 29 29 30 31 31 32 32 32 32 32 32 32 32 33 33 34 34 34 35 35 35 35 34 34 34 34 34 34 35 35 36 36 35
21 21 22 24 25 25 25 26 26 27 28 29 29 29 30 31 32 32 32 32 32 32 32 32 32 32 33 33 33 33 33 33 33 32 33 33 32 32 32 33 33 33 33 33
22 21 22 22 23 24 25 26 27 27 28 28 29 30 31 32 32 32 32 32 32 32 32 32 32 31 31 32 31 31 31 30 30 30 30 30 30 30 31 31 31 31 31 30
20 20 21 21 22 23 25 26 27 27 28 29 30 30 31 31 31 31 31 31 31 31 31 31 31 30 30 30 30 29 29 29 29 29 29 29 30 30 30 30 30 30 28 26
20 20 21 21 22 23 23 24 25 26 27 28 28 29 29 28 28 28 28 28 29 28 28 28 28 28 28 28 28 28 28 29 29 29 30 30 30 30 29 29 28 27 26 25
19 19 20 20 21 22 22 23 23 24 24 25 26 26 26 25 25 25 25 25 25 26 26 26 26 26 26 26 26 27 27 28 28 28 28 28 28 28 28 27 26 25 24 24
19 19 19 19 20 21 21 22 22 22 23 23 23 23 23 23 23 23 23 23 23 23 24 24 24 24 24 25 25 26 26 26 26 26 26 26 26 25 24 24 23 23 23 22
19 19 19 20 20 20 21 21 21 21 20 20 20 20 20 21 21 21 21 21 22 22 22 22 23 23 23 23 23 23 23 23 23 23 23 22 22 21 21 21 21 21 21 20
19 19 20 20 20 20 20 20 20 19 19 19 18 18 19 19 19 20 20 20 21 21 21 21 21 21 21 21 21 21 21 21 20 20 19 19 18 18 18 18 18 18 18 17
19 19 19 19 19 19 19 19 19 18 18 18 18 18 18 18 18 18 19 19 19 20 20 20 20 20 20 20 20 19 19 19 19 18 17 17 16 16 16 16 16 15 15 15
18 18 18 18 18 18 19 19 18 18 17 17 18 18 18 18 17 17 18 18 18 18 18 18 18 18 19 19 19 19 18 18 17 16 16 16 15 15 15 14 14 14 13 13
18 18 18 18 18 18 18 18 17 17 17 17 17 16 16 16 16 16 16 16 16 16 16 16 16 17 17 17 18 17 17 16 15 15 15 15 14 13 13 12 12 12 12 11

GEFSNGP_500_meanwind_234.txt.gz
Wind_Speed
31 32 33 34 37 39 40 39 38 38 37 36 36 37 37 38 38 39 39 39 40 41 42 42 43 43 44 45 45 46 46 46 46 46 46 47 47 47 48 48 48 49 49 50
29 31 32 33 35 37 38 39 40 39 38 38 38 38 38 38 39 39 39 39 40 41 41 41 42 43 44 44 44 45 46 46 46 47 47 47 47 48 48 48 48 49 50 51
27 29 30 31 31 33 35 37 38 38 37 37 38 37 37 38 38 38 38 39 39 40 41 41 42 42 43 43 44 45 45 45 46 47 47 47 47 48 48 48 49 49 50 51
25 26 28 27 27 29 32 34 36 38 37 37 36 35 36 37 38 38 38 39 39 40 40 41 42 42 43 44 44 45 45 46 46 46 47 47 47 48 49 49 50 50 51 52
25 26 26 25 25 27 29 31 33 35 37 38 38 37 36 36 37 38 38 39 40 41 41 41 42 43 43 44 45 45 46 46 47 47 47 47 47 48 49 50 50 51 51 52
27 27 26 25 26 27 28 29 30 32 34 36 37 38 37 37 38 39 39 39 40 41 41 42 42 43 44 44 45 45 45 46 46 46 46 47 47 48 49 50 50 51 50 50
27 28 28 27 28 28 29 29 29 30 31 33 35 36 36 38 39 40 40 40 40 40 40 41 41 41 42 43 43 44 44 45 45 46 46 47 47 48 49 49 49 49 49 49
26 27 27 27 28 29 29 29 29 30 31 32 33 35 36 37 38 39 40 40 41 40 40 40 40 40 41 42 42 42 43 43 44 45 46 46 47 47 47 48 48 48 47 47
25 25 26 26 27 28 29 30 30 30 31 32 33 34 36 37 38 39 39 40 41 41 42 41 41 41 42 43 43 43 43 43 43 44 44 45 45 44 45 45 46 46 46 45
24 24 25 26 27 27 28 30 31 31 31 32 33 34 35 36 37 38 39 39 40 41 42 42 42 43 43 43 43 43 43 43 43 43 43 42 43 43 44 44 44 43 43 42
25 25 25 25 27 28 28 28 30 31 32 32 33 34 35 36 37 37 38 38 39 40 41 42 43 43 43 43 43 43 43 42 42 42 42 42 42 42 42 41 41 40 40 40
23 24 25 25 25 26 27 27 28 29 30 31 32 33 34 35 36 37 38 38 39 40 40 41 42 42 42 42 42 42 42 41 41 42 42 41 40 39 39 38 38 38 38 38
21 22 23 24 25 25 25 26 28 29 30 31 31 32 32 33 34 35 36 38 38 39 39 40 40 40 41 41 40 40 40 40 40 40 39 38 38 38 37 37 37 37 37 37
20 21 22 23 25 25 25 26 27 28 29 29 30 30 31 31 31 32 33 34 35 36 37 38 38 39 39 40 39 39 39 38 38 38 37 37 36 36 36 36 36 36 36 36
20 21 21 22 23 24 24 25 25 27 28 28 28 29 29 29 30 30 31 31 32 33 34 35 36 37 38 38 38 38 37 37 36 36 36 35 35 36 35 35 35 34 35 35
19 20 21 21 22 22 23 24 24 25 26 26 27 28 28 29 29 30 30 30 31 32 32 33 34 34 34 34 35 35 36 36 36 36 36 36 36 36 36 35 35 34 34 34
20 20 21 22 22 23 24 24 25 25 25 26 26 27 28 29 30 30 30 31 31 32 33 33 33 33 33 33 33 33 33 33 34 35 36 36 36 36 36 35 35 34 34 33
20 20 21 22 23 23 23 24 24 24 25 25 26 27 27 27 28 29 30 30 31 31 31 31 31 31 31 31 30 30 30 31 32 33 34 34 34 34 34 33 33 33 33 33
21 21 22 22 21 21 22 22 22 23 23 24 24 25 26 26 27 27 27 27 28 28 28 28 28 28 28 28 28 29 30 30 31 31 31 31 31 31 31 31 32 32 32 32
19 20 20 19 19 19 19 20 20 21 21 22 23 23 24 24 24 25 25 25 25 25 25 25 25 25 26 27 27 28 28 29 29 28 28 28 28 28 28 29 29 29 29 30
17 17 17 17 18 18 18 19 19 20 21 21 22 22 22 23 23 24 24 23 23 23 23 23 23 23 24 25 26 26 27 27 27 26 26 26 26 26 26 26 26 27 27 28
16 16 16 16 17 17 18 19 20 20 20 21 21 21 21 21 22 22 22 22 22 22 22 22 22 22 23 23 24 25 25 25 25 25 25 25 25 25 25 25 25 25 26 26
15 16 16 16 17 17 18 18 18 19 19 19 19 20 20 20 20 20 20 21 21 21 21 22 22 23 23 23 23 23 23 23 23 23 23 23 24 24 24 24 24 24 23 23
15 15 16 16 16 17 17 18 18 18 18 18 18 18 18 18 18 19 19 19 20 20 21 21 21 22 22 22 22 21 21 20 20 21 21 21 21 21 21 21 21 21 20 19
15 15 15 16 16 16 17 17 18 18 18 18 18 17 17 17 18 18 18 19 19 19 20 20 20 20 20 20 20 19 19 19 19 19 19 19 19 19 19 18 18 18 17 17
16 16 16 16 16 16 17 17 17 17 18 18 17 17 17 17 17 17 17 17 18 17 17 18 18 18 18 18 18 18 18 18 18 17 17 17 17 17 17 17 17 16 15 15
16 16 17 17 17 17 17 17 17 17 17 17 17 16 16 16 16 16 16 16 16 16 16 16 16 16 16 16 16 16 16 16 16 15 15 15 15 15 15 15 14 14 14 13